[[{"header":{"parameterUnit":"m.s-1","parameterCategory":1,"la1":30.6,"la2":29.2853,"lo1":-89.7004,"lo2":-87.6739,"dy":0.0162,"dx":0.0183,"nx":112,"ny":82,"refTime":"2026-03-05T00:00:00:Z","depth":0,"parameterNumber":2,"parameterNumberName":"U-component_of_WINDS"},"data":[0.0,0.0,0.0,0.0,0.0,0.0,0.0,0.0,0.0,0.0,0.0,0.0,0.0,0.0,0.0,0.0,0.0,0.0,0.0,0.0,0.0,0.0,0.0,0.0,0.0,0.0,0.0,0.0,0.0,0.0,0.0,0.0,0.0,0.0,0.0,0.0,0.0,0.0,0.0,0.0,0.0,0.0,0.0,0.0,0.0,0.0,0.0,0.0,0.0,0.0,0.0,0.0,0.0,0.0,0.0,0.0,0.0,0.0,0.0,0.0,0.0,0.0,0.0,0.0,0.0,0.0,0.0,0.0,0.0,0.0,0.0,0.0,0.0,0.0,0.0,0.0,0.0,0.0,0.0,0.0,0.0,0.0,0.0,0.0,0.0,0.0,0.0,0.0,0.0,0.0,0.0,-1.9384,-2.116,-2.2296,-2.2296,-2.1928,-2.1221,-2.0061,0.0,0.0,0.0,0.0,0.0,0.0,0.0,0.0,0.0,0.0,0.0,0.0,0.0,0.0,0.0,0.0,0.0,0.0,0.0,0.0,0.0,0.0,0.0,0.0,0.0,0.0,0.0,0.0,0.0,0.0,0.0,0.0,0.0,0.0,0.0,0.0,0.0,0.0,0.0,0.0,0.0,0.0,0.0,0.0,0.0,0.0,0.0,0.0,0.0,0.0,0.0,0.0,0.0,0.0,0.0,0.0,0.0,0.0,0.0,0.0,0.0,0.0,0.0,0.0,0.0,0.0,0.0,0.0,0.0,0.0,0.0,0.0,0.0,0.0,0.0,0.0,0.0,0.0,0.0,0.0,0.0,0.0,0.0,0.0,0.0,0.0,0.0,0.0,0.0,0.0,0.0,0.0,0.0,0.0,0.0,0.0,0.0,0.0,0.0,0.0,0.0,0.0,0.0,0.0,-1.8949,-2.1502,-2.2093,-2.2296,-2.2296,-2.2237,-2.1568,-2.0086,0.0,0.0,0.0,0.0,0.0,0.0,0.0,0.0,0.0,0.0,0.0,0.0,0.0,0.0,0.0,0.0,0.0,0.0,0.0,0.0,0.0,0.0,0.0,0.0,0.0,0.0,0.0,0.0,0.0,0.0,0.0,0.0,0.0,0.0,0.0,0.0,0.0,0.0,0.0,0.0,0.0,0.0,0.0,0.0,0.0,0.0,0.0,0.0,0.0,0.0,0.0,0.0,0.0,0.0,0.0,0.0,0.0,0.0,0.0,0.0,0.0,0.0,0.0,0.0,0.0,0.0,0.0,0.0,0.0,0.0,0.0,0.0,0.0,0.0,0.0,0.0,0.0,0.0,0.0,0.0,0.0,0.0,0.0,0.0,0.0,0.0,0.0,0.0,0.0,0.0,0.0,0.0,0.0,0.0,0.0,0.0,0.0,0.0,0.0,0.0,0.0,0.0,0.0,-1.8437,-1.9401,-2.2026,-2.2296,-2.2296,-2.2296,-2.1871,-2.1151,-2.0061,-1.7998,0.0,0.0,0.0,0.0,0.0,0.0,0.0,0.0,0.0,0.0,0.0,0.0,0.0,0.0,0.0,0.0,0.0,0.0,0.0,0.0,0.0,0.0,0.0,0.0,0.0,0.0,0.0,0.0,0.0,0.0,0.0,0.0,0.0,0.0,0.0,0.0,0.0,0.0,0.0,0.0,0.0,0.0,0.0,0.0,0.0,0.0,0.0,0.0,0.0,0.0,0.0,0.0,0.0,0.0,0.0,0.0,0.0,0.0,0.0,0.0,0.0,0.0,0.0,0.0,0.0,0.0,0.0,0.0,0.0,0.0,0.0,0.0,0.0,0.0,0.0,0.0,0.0,0.0,0.0,0.0,0.0,0.0,0.0,0.0,0.0,0.0,0.0,0.0,0.0,0.0,0.0,0.0,0.0,0.0,0.0,0.0,0.0,0.0,0.0,0.0,0.0,0.0,-1.9608,-2.0365,-2.211,-2.2296,-2.2296,-2.2296,-2.1526,-2.0705,-1.9924,-1.778,0.0,0.0,0.0,0.0,0.0,0.0,0.0,0.0,0.0,0.0,0.0,0.0,0.0,0.0,0.0,0.0,0.0,0.0,0.0,0.0,0.0,0.0,0.0,0.0,0.0,0.0,0.0,0.0,0.0,0.0,0.0,0.0,0.0,0.0,0.0,0.0,0.0,0.0,0.0,0.0,0.0,0.0,0.0,0.0,0.0,0.0,0.0,0.0,0.0,0.0,0.0,0.0,0.0,0.0,0.0,0.0,0.0,0.0,0.0,0.0,0.0,0.0,0.0,0.0,0.0,0.0,0.0,0.0,0.0,0.0,0.0,0.0,0.0,0.0,0.0,0.0,0.0,0.0,0.0,0.0,0.0,0.0,0.0,0.0,0.0,0.0,0.0,0.0,0.0,0.0,0.0,0.0,0.0,0.0,0.0,0.0,0.0,0.0,0.0,0.0,0.0,0.0,-2.0352,-2.211,-2.2279,-2.2296,-2.2296,-2.2296,-2.1626,-2.07,-1.9611,-1.7734,0.0,0.0,0.0,0.0,0.0,0.0,0.0,0.0,0.0,0.0,0.0,0.0,0.0,0.0,0.0,0.0,0.0,0.0,0.0,0.0,0.0,0.0,0.0,0.0,0.0,0.0,0.0,0.0,0.0,0.0,0.0,0.0,0.0,0.0,0.0,0.0,0.0,0.0,0.0,0.0,0.0,0.0,0.0,0.0,0.0,0.0,0.0,0.0,0.0,0.0,0.0,0.0,0.0,0.0,0.0,0.0,0.0,0.0,0.0,0.0,0.0,0.0,0.0,0.0,0.0,0.0,0.0,0.0,0.0,0.0,0.0,0.0,0.0,0.0,0.0,0.0,0.0,0.0,0.0,0.0,0.0,0.0,0.0,0.0,0.0,0.0,0.0,0.0,0.0,0.0,0.0,0.0,0.0,0.0,0.0,0.0,0.0,0.0,0.0,0.0,0.0,0.0,-1.9879,-2.1231,0.0,-2.2032,-2.1853,-2.1853,-2.1109,-2.0292,-1.9495,0.0,0.0,0.0,0.0,0.0,0.0,0.0,0.0,0.0,0.0,0.0,0.0,0.0,0.0,0.0,0.0,0.0,0.0,0.0,0.0,0.0,0.0,0.0,0.0,0.0,0.0,0.0,0.0,0.0,0.0,0.0,0.0,0.0,0.0,0.0,0.0,0.0,0.0,0.0,0.0,0.0,0.0,0.0,0.0,0.0,0.0,0.0,0.0,0.0,0.0,0.0,0.0,0.0,0.0,0.0,0.0,0.0,0.0,0.0,0.0,0.0,0.0,0.0,0.0,0.0,0.0,0.0,0.0,0.0,0.0,0.0,0.0,0.0,0.0,0.0,0.0,0.0,0.0,0.0,0.0,0.0,0.0,0.0,0.0,0.0,0.0,0.0,0.0,0.0,0.0,0.0,0.0,0.0,0.0,0.0,0.0,0.0,0.0,0.0,0.0,0.0,0.0,-1.8685,-1.9963,-2.113,0.0,-2.2017,-2.1764,-2.1612,-2.0846,-1.9939,-1.8949,0.0,0.0,0.0,0.0,0.0,0.0,0.0,0.0,0.0,0.0,0.0,0.0,0.0,0.0,0.0,0.0,0.0,0.0,0.0,0.0,0.0,0.0,0.0,0.0,0.0,0.0,0.0,0.0,0.0,0.0,0.0,0.0,0.0,0.0,0.0,0.0,0.0,0.0,0.0,0.0,0.0,0.0,0.0,0.0,0.0,0.0,0.0,0.0,0.0,0.0,0.0,0.0,0.0,0.0,0.0,0.0,0.0,0.0,0.0,0.0,0.0,0.0,0.0,0.0,0.0,0.0,0.0,0.0,0.0,0.0,0.0,0.0,0.0,0.0,0.0,0.0,0.0,0.0,0.0,0.0,0.0,0.0,0.0,0.0,0.0,0.0,0.0,0.0,0.0,0.0,0.0,0.0,0.0,0.0,0.0,0.0,0.0,0.0,0.0,0.0,0.0,0.0,-1.8821,-2.0906,-2.2296,-2.2296,-2.2296,-2.2106,-2.1643,-2.0924,-1.9719,0.0,0.0,0.0,0.0,0.0,0.0,0.0,0.0,0.0,0.0,0.0,0.0,0.0,0.0,0.0,0.0,0.0,0.0,0.0,0.0,0.0,0.0,0.0,0.0,0.0,0.0,0.0,0.0,0.0,0.0,0.0,0.0,0.0,0.0,0.0,0.0,0.0,0.0,0.0,0.0,0.0,0.0,0.0,0.0,0.0,0.0,0.0,0.0,0.0,0.0,0.0,0.0,0.0,0.0,0.0,0.0,0.0,0.0,0.0,0.0,0.0,0.0,0.0,0.0,0.0,0.0,0.0,0.0,0.0,0.0,0.0,0.0,0.0,0.0,0.0,0.0,0.0,0.0,0.0,0.0,0.0,0.0,0.0,0.0,0.0,0.0,0.0,0.0,0.0,0.0,0.0,0.0,0.0,0.0,0.0,0.0,0.0,0.0,0.0,0.0,0.0,0.0,0.0,-1.9456,-2.1214,-2.2296,-2.2296,-2.2003,-2.1645,-2.1213,-2.0671,-1.9531,-1.7561,0.0,0.0,0.0,0.0,0.0,0.0,0.0,0.0,0.0,0.0,0.0,0.0,0.0,0.0,0.0,0.0,0.0,0.0,0.0,0.0,0.0,0.0,0.0,0.0,0.0,0.0,0.0,0.0,0.0,0.0,0.0,0.0,0.0,0.0,0.0,0.0,0.0,0.0,0.0,0.0,0.0,0.0,0.0,0.0,0.0,0.0,0.0,0.0,0.0,0.0,0.0,0.0,0.0,0.0,0.0,0.0,0.0,0.0,0.0,0.0,0.0,0.0,0.0,0.0,0.0,0.0,0.0,0.0,0.0,0.0,0.0,0.0,0.0,0.0,0.0,0.0,0.0,0.0,0.0,0.0,0.0,0.0,0.0,0.0,0.0,0.0,0.0,0.0,0.0,0.0,0.0,0.0,0.0,0.0,0.0,0.0,0.0,0.0,0.0,0.0,0.0,0.0,-1.9748,-2.135,-2.2223,-2.2032,-2.1779,-2.1368,-2.0764,-2.0466,-1.9414,-1.7359,0.0,0.0,0.0,0.0,0.0,0.0,0.0,0.0,0.0,0.0,0.0,0.0,0.0,0.0,0.0,0.0,0.0,0.0,0.0,0.0,0.0,0.0,0.0,0.0,0.0,0.0,0.0,0.0,0.0,0.0,0.0,0.0,0.0,0.0,0.0,0.0,0.0,0.0,0.0,0.0,0.0,0.0,0.0,0.0,0.0,0.0,0.0,0.0,0.0,0.0,0.0,0.0,0.0,0.0,0.0,0.0,0.0,0.0,0.0,0.0,0.0,0.0,0.0,0.0,0.0,0.0,0.0,0.0,0.0,0.0,0.0,0.0,0.0,0.0,0.0,0.0,0.0,0.0,0.0,0.0,0.0,0.0,0.0,0.0,0.0,0.0,0.0,0.0,0.0,0.0,0.0,0.0,0.0,0.0,0.0,0.0,0.0,0.0,0.0,0.0,0.0,0.0,-1.9748,-2.1251,-2.2034,-2.1598,-2.1536,-2.1212,-2.0382,-2.0297,-1.9396,-1.7287,0.0,0.0,0.0,0.0,0.0,0.0,0.0,0.0,0.0,0.0,0.0,0.0,0.0,0.0,0.0,0.0,0.0,0.0,0.0,0.0,0.0,0.0,0.0,0.0,0.0,0.0,0.0,0.0,0.0,0.0,0.0,0.0,0.0,0.0,0.0,0.0,0.0,0.0,0.0,0.0,0.0,0.0,0.0,0.0,0.0,0.0,0.0,0.0,0.0,0.0,0.0,0.0,0.0,0.0,0.0,0.0,0.0,0.0,0.0,0.0,-2.1732,0.0,0.0,0.0,0.0,0.0,0.0,0.0,0.0,0.0,0.0,0.0,0.0,0.0,0.0,0.0,0.0,0.0,0.0,0.0,0.0,0.0,0.0,0.0,0.0,0.0,0.0,0.0,0.0,0.0,0.0,0.0,0.0,0.0,0.0,0.0,0.0,0.0,0.0,0.0,0.0,0.0,-1.926,-2.0548,-2.1245,-2.1134,-2.1118,-2.0894,-2.0348,-2.0297,-1.9513,-1.7691,0.0,0.0,0.0,0.0,0.0,0.0,0.0,0.0,0.0,0.0,0.0,0.0,0.0,0.0,0.0,0.0,0.0,0.0,0.0,0.0,0.0,0.0,0.0,0.0,0.0,0.0,0.0,0.0,0.0,0.0,0.0,0.0,0.0,0.0,0.0,0.0,0.0,0.0,0.0,0.0,0.0,0.0,0.0,0.0,0.0,0.0,0.0,0.0,0.0,0.0,0.0,0.0,0.0,0.0,0.0,0.0,0.0,0.0,0.0,0.0,0.0,-2.2923,0.0,0.0,0.0,0.0,0.0,0.0,0.0,0.0,0.0,0.0,0.0,0.0,0.0,0.0,0.0,0.0,0.0,0.0,0.0,0.0,0.0,0.0,0.0,0.0,0.0,0.0,0.0,0.0,0.0,0.0,0.0,0.0,0.0,0.0,0.0,0.0,0.0,0.0,0.0,0.0,-1.9451,-2.0621,-2.1213,-2.1007,-2.0797,-2.0499,-2.0052,-2.0017,-1.9487,-1.8253,-1.6999,0.0,0.0,0.0,0.0,0.0,0.0,0.0,0.0,0.0,0.0,0.0,0.0,0.0,0.0,0.0,0.0,0.0,0.0,0.0,0.0,0.0,0.0,0.0,0.0,0.0,0.0,0.0,0.0,0.0,0.0,0.0,0.0,0.0,0.0,0.0,0.0,0.0,0.0,0.0,0.0,0.0,0.0,0.0,0.0,0.0,0.0,0.0,0.0,0.0,0.0,0.0,0.0,0.0,-2.8483,-2.933,-2.9958,-3.0093,-3.0161,-3.0059,-2.8163,-2.6571,-2.5308,0.0,0.0,0.0,0.0,0.0,0.0,0.0,0.0,0.0,0.0,0.0,0.0,0.0,0.0,0.0,0.0,0.0,0.0,0.0,0.0,0.0,0.0,0.0,0.0,0.0,-2.1798,-2.1759,0.0,0.0,0.0,0.0,0.0,0.0,0.0,0.0,0.0,0.0,0.0,0.0,-1.9837,-2.0868,-2.136,-2.1144,-2.0663,-2.0235,-1.9891,-1.9768,-1.9468,-1.8912,-1.8132,-1.6981,0.0,0.0,0.0,0.0,0.0,0.0,0.0,0.0,0.0,0.0,0.0,0.0,0.0,0.0,0.0,0.0,0.0,0.0,0.0,0.0,0.0,0.0,0.0,0.0,0.0,0.0,0.0,0.0,0.0,0.0,0.0,0.0,-2.1072,-2.189,0.0,0.0,0.0,0.0,0.0,0.0,0.0,0.0,0.0,0.0,0.0,0.0,0.0,0.0,-2.8248,-2.9719,-3.0497,-3.0632,-3.2645,-3.366,-3.3795,-3.4455,-3.4721,-3.4704,-3.4399,0.0,-2.7398,-2.7384,0.0,0.0,0.0,0.0,0.0,0.0,0.0,0.0,0.0,0.0,0.0,0.0,0.0,0.0,0.0,0.0,0.0,0.0,0.0,0.0,0.0,0.0,-2.4441,-2.4302,-2.3937,-2.3706,0.0,-2.1112,-1.8411,-1.8142,0.0,0.0,0.0,0.0,0.0,0.0,0.0,0.0,-1.9951,-2.0551,-2.1012,-2.1545,-2.1035,-2.0629,-2.0572,-2.0034,-1.9663,-1.9573,-1.8386,-1.7594,-1.734,-1.5053,0.0,0.0,0.0,0.0,0.0,0.0,0.0,0.0,0.0,0.0,0.0,0.0,0.0,0.0,0.0,0.0,0.0,0.0,0.0,0.0,0.0,0.0,0.0,0.0,0.0,0.0,0.0,0.0,0.0,-2.1072,-2.2547,-2.2885,-2.3001,-2.2697,0.0,0.0,0.0,0.0,0.0,0.0,0.0,0.0,0.0,-2.8687,-2.9448,-3.0584,-3.209,-3.3136,-3.3897,-3.4375,-3.534,-3.5994,-3.6417,-3.6755,-3.6884,-3.6884,-3.6884,-3.5368,-3.273,-3.1021,-2.8716,-2.6214,0.0,0.0,0.0,0.0,-2.5815,-2.5627,-2.6597,-2.6022,0.0,0.0,0.0,0.0,0.0,0.0,0.0,0.0,0.0,0.0,0.0,0.0,0.0,-2.5671,-2.5295,-2.4925,-2.5136,-2.3198,-2.1272,0.0,-1.9787,-1.8775,-1.8058,0.0,0.0,0.0,0.0,0.0,-2.0767,-2.131,-2.1706,-2.201,-2.1581,-2.1111,-2.0733,-2.0438,-2.0094,-1.9723,-1.9151,-1.8657,-1.8267,-1.6802,-1.5379,0.0,0.0,0.0,0.0,0.0,0.0,0.0,0.0,0.0,0.0,0.0,0.0,0.0,0.0,0.0,0.0,0.0,0.0,0.0,0.0,0.0,0.0,0.0,0.0,0.0,0.0,0.0,0.0,-2.2967,-2.4086,-2.3729,-2.4846,-2.4778,0.0,0.0,0.0,0.0,0.0,0.0,-2.8551,-2.8838,-2.9989,-3.2256,-3.3072,-3.407,-3.5351,-3.5904,-3.6586,-3.7371,-3.7371,-3.7736,-3.8464,-3.8464,-3.8464,-3.8464,-3.8464,-3.8041,-3.7127,-3.4112,-3.1475,-2.9257,-2.8627,-2.8085,-2.7747,-2.8686,-2.8793,-2.8661,-2.9951,-2.9196,-2.7595,-2.7327,0.0,-2.4081,-2.3328,0.0,0.0,0.0,0.0,-2.392,-2.5046,-2.5734,-2.6279,-2.704,-2.6646,-2.6115,-2.6221,-2.5111,-2.3888,0.0,-2.1843,-2.0702,-2.0161,0.0,0.0,0.0,0.0,-2.1279,-2.2085,-2.242,-2.2659,-2.2829,-2.2308,-2.1739,-2.1261,-2.0897,-2.0498,-1.9989,-1.9779,-1.9483,-1.8972,-1.8311,-1.719,-1.5575,0.0,0.0,0.0,0.0,0.0,0.0,0.0,0.0,0.0,0.0,0.0,0.0,0.0,0.0,0.0,0.0,0.0,0.0,0.0,0.0,0.0,0.0,0.0,0.0,0.0,0.0,0.0,0.0,0.0,-2.4609,-2.7013,0.0,0.0,0.0,0.0,-2.7587,-2.8315,-2.9433,-3.0954,-3.1701,-3.3085,-3.5312,-3.6146,-3.6965,-3.7719,-3.777,-3.8159,-3.8886,-3.8886,-3.9276,-3.9994,-3.9994,-3.9994,-3.9994,-3.9994,-3.9571,-3.8652,-3.561,-3.3578,-3.2227,-3.061,-3.0083,-3.0125,-2.9386,-2.9594,-3.0277,-3.0352,-2.9579,-2.874,-2.9971,-2.8857,-2.6988,-2.6949,-2.5882,0.0,0.0,-2.51,-2.5946,-2.5587,-2.6856,-2.8394,-2.9018,-2.8265,-2.7562,-2.8136,-2.68,-2.5213,0.0,-2.3035,-2.2422,-2.3066,0.0,-2.2388,-2.2434,-2.2533,-2.2949,-2.3935,-2.3639,-2.3588,-2.4219,-2.3305,-2.2643,-2.2598,-2.144,-2.0688,-2.0643,-2.0049,-1.9693,-1.9648,-1.9001,-1.8296,-1.7579,-1.5679,0.0,0.0,0.0,0.0,0.0,0.0,0.0,0.0,0.0,0.0,0.0,0.0,0.0,0.0,0.0,0.0,0.0,0.0,0.0,0.0,0.0,0.0,0.0,0.0,0.0,0.0,0.0,0.0,-2.8112,-2.9465,0.0,-2.8619,-2.9414,-3.0176,-3.0649,-3.1833,-3.3207,-3.473,-3.5052,-3.6,-3.7736,-3.8058,-3.8589,-3.9292,-3.9334,-3.9453,-3.9723,-3.9723,-3.9859,-4.0096,-4.0096,-4.0096,-4.0096,-4.0096,-3.996,-3.9564,-3.7982,-3.6522,-3.5232,-3.4649,-3.4128,-3.3767,-3.3989,-3.4247,-3.4506,-3.4513,-3.364,-3.2237,-3.0526,-2.9122,-2.8022,-2.7593,-2.738,-2.7342,-2.7635,-2.8349,-2.9105,-2.9366,-2.9936,-3.0506,-3.0624,-3.003,-2.946,-2.9599,-2.8446,-2.7274,-2.6887,-2.5053,-2.3631,-2.3716,-2.3232,-2.2695,-2.2196,-2.2971,-2.3727,-2.4079,-2.4069,-2.4267,-2.4859,-2.4249,-2.3758,-2.3681,-2.2523,-2.1627,-2.1246,-2.0267,-1.9708,-1.9708,-1.9465,-1.9031,-1.8356,-1.7235,-1.5649,0.0,0.0,0.0,0.0,0.0,0.0,0.0,0.0,0.0,0.0,0.0,0.0,0.0,0.0,0.0,0.0,0.0,0.0,0.0,0.0,0.0,0.0,0.0,0.0,0.0,0.0,-3.0211,-3.0446,-3.2019,-3.2594,-3.1343,-3.2341,-3.3292,-3.3783,-3.4945,-3.6197,-3.7472,-3.7557,-3.8091,-3.9326,-3.9385,-3.9622,-4.0096,-4.0096,-4.0096,-4.0096,-4.0096,-4.0096,-4.0096,-4.0096,-4.0096,-4.0096,-4.0096,-4.0096,-4.0045,-3.9516,-3.8757,-3.7831,-3.7093,-3.663,-3.6382,-3.6441,-3.6601,-3.6764,-3.6543,-3.5829,-3.4592,-3.187,-3.0341,-2.946,-2.8771,-2.8743,-2.9029,-2.9475,-3.0076,-3.0712,-3.1382,-3.1534,-3.1565,-3.1708,-3.1284,-3.0753,-3.0412,-2.9685,-2.8958,-2.8462,-2.6718,-2.5277,-2.5045,-2.4868,-2.4471,-2.3642,-2.4438,-2.5026,-2.4765,-2.4547,-2.4552,-2.4894,-2.445,-2.4081,-2.401,-2.2883,-2.198,-2.1603,-2.0388,-1.9708,-1.9708,-1.9708,-1.9498,-1.9046,-1.8162,-1.6637,-1.4468,0.0,0.0,0.0,0.0,0.0,0.0,0.0,0.0,0.0,0.0,0.0,0.0,0.0,0.0,0.0,0.0,0.0,0.0,0.0,0.0,0.0,0.0,0.0,-2.6826,-3.0025,-3.2141,-3.1478,-3.4629,-3.5983,-3.3795,-3.5571,-3.688,-3.688,-3.755,-3.8278,-3.8988,-3.9022,-3.9343,-4.0079,-4.0096,-4.0096,-4.0096,-4.0096,-4.0096,-4.0096,-4.0096,-4.0096,-4.0096,-4.0096,-4.0096,-4.0096,-4.0096,-4.0096,-4.0096,-4.0096,-4.0096,-3.9885,-3.7758,-3.7328,-3.7812,-3.6427,-3.6358,-3.6799,-3.6141,-3.5846,-3.5559,-3.4246,-3.2826,-3.1522,-3.0876,-3.0273,-2.979,-2.979,-3.0208,-3.0816,-3.1453,-3.1574,-3.1686,-3.2318,-3.2008,-3.1382,-3.0662,-3.0532,-3.0185,-2.8857,-2.8034,-2.7462,-2.7232,-2.7717,-2.7852,-2.7011,-2.7024,0.0,-2.611,-2.5102,-2.4446,-2.443,-2.3948,-2.3659,-2.3659,-2.2489,-2.1754,-2.1734,-2.0456,-1.9708,-1.9708,-1.9708,-1.9708,-1.9708,-1.8371,-1.7071,-1.5829,0.0,0.0,0.0,0.0,0.0,0.0,0.0,0.0,0.0,0.0,0.0,0.0,0.0,0.0,0.0,0.0,0.0,0.0,0.0,0.0,0.0,0.0,-2.9956,-2.9956,-3.2222,-3.4421,-3.5893,-3.6975,-3.755,-3.7466,-3.8024,-3.8403,-3.8403,-3.9097,-3.9588,-3.9791,-3.9808,-3.9893,-4.0096,-4.0096,-4.0096,-4.0096,-4.0096,-4.0096,-4.0096,-4.0096,-4.0096,-4.0096,-4.0096,-4.0096,-4.0096,-4.0096,-4.0096,-4.0096,-4.0096,-4.0096,-4.0028,-3.9419,-3.9311,-3.9454,-3.9059,-3.9033,-3.9093,-3.838,-3.7798,-3.7222,-3.6271,-3.5353,-3.4581,-3.4403,-3.4186,-3.403,-3.403,-3.4121,-3.4227,-3.4428,-3.4451,-3.4357,-3.4018,-3.3801,-3.3473,-3.2734,-3.2584,-3.222,-3.0853,-3.0802,-3.0049,-2.725,-2.6887,-2.6878,-2.6646,-2.7352,0.0,-2.6361,-2.595,-2.5564,-2.5036,-2.4835,-2.4756,-2.4756,-2.3551,-2.2635,0.0,-2.0633,-1.9708,-1.9708,-1.9708,-1.9708,-1.9708,-1.8371,-1.7295,0.0,0.0,0.0,0.0,0.0,0.0,0.0,0.0,0.0,0.0,0.0,0.0,0.0,0.0,0.0,0.0,0.0,0.0,0.0,0.0,0.0,0.0,-3.0548,-3.2916,-3.3863,-3.5115,-3.6535,-3.8176,-3.8633,-3.8988,-3.9436,-3.9469,-3.9469,-3.9469,-3.9859,-4.0096,-4.0096,-4.0096,-4.0096,-4.0096,-4.0096,-4.0096,-4.0096,-4.0096,-4.0096,-4.0096,-4.0096,-4.0096,-4.0096,-4.0096,-4.0096,0.0,-4.0096,-4.0096,-4.0096,-4.0096,-4.0096,0.0,0.0,0.0,0.0,0.0,-4.0096,-4.0045,-3.9622,-3.9008,-3.82,-3.7137,-3.6329,-3.5672,-3.5431,-3.5297,-3.5352,-3.5649,-3.5489,-3.5287,-3.5566,-3.5,-3.43,-3.4159,-3.4107,-3.3839,-3.2796,-3.3032,-3.3051,-3.17,0.0,0.0,-2.8599,-2.8357,-2.8275,-2.7716,-2.8221,-2.8277,-2.7225,-2.6686,-2.6219,-2.5787,-2.5263,-2.4963,-2.4963,-2.3741,0.0,0.0,0.0,-1.9989,-1.9708,-1.9708,0.0,0.0,0.0,0.0,0.0,0.0,0.0,0.0,-1.5799,-1.5396,0.0,0.0,0.0,0.0,0.0,0.0,0.0,0.0,0.0,0.0,0.0,0.0,0.0,0.0,0.0,0.0,-3.3372,-3.5622,-3.7736,-3.8108,-3.8396,-3.9039,-3.9706,-4.0096,-4.0096,-4.0096,-4.0096,-4.0096,-4.0096,-4.0096,-4.0096,0.0,0.0,0.0,0.0,-4.0096,-4.0096,-4.0096,-4.0096,-4.0096,-4.0096,-4.0096,-4.0096,-4.0096,-4.0096,-4.0096,-4.0096,-4.0096,-4.0096,-4.0096,-4.0096,-4.0096,-4.0096,-4.0096,-4.0096,-4.0096,-4.0096,-4.0096,-4.0096,0.0,0.0,-3.7583,-3.6689,-3.599,-3.5483,-3.5247,-3.5326,-3.5969,-3.563,-3.5202,-3.5786,-3.4514,-3.3192,-3.371,-3.3774,-3.3355,-3.205,-3.2672,-3.3165,-3.1943,-3.1126,-3.0631,-3.0605,-3.0884,-3.07,-2.9501,-2.9439,-2.9231,-2.8428,-2.7448,-2.6733,-2.6516,0.0,0.0,-2.4619,-2.3554,-2.257,-2.1864,-2.1186,-2.0557,-1.9947,-1.9932,-1.9932,-1.9932,-1.9932,-1.9932,-1.9932,-2.0528,-2.0808,-2.0718,-1.7206,-1.6503,0.0,0.0,0.0,0.0,0.0,0.0,0.0,0.0,0.0,0.0,0.0,0.0,0.0,0.0,0.0,-3.2662,-3.5385,-3.7601,-3.8633,-3.9317,-3.974,-3.9876,-4.0011,-4.0096,-4.0096,-4.0096,-4.0096,-4.0096,-4.0096,-4.0096,-4.0096,-4.0096,0.0,-4.0096,-4.0096,-4.0096,-4.0096,-4.0096,-4.0096,-4.0096,0.0,0.0,-4.0096,-4.0096,-4.0096,-4.0096,-4.0096,-4.0096,-4.0096,-4.0096,-4.0096,-4.0096,-4.0096,-4.0096,-4.0096,-4.0096,-4.0096,-4.0096,-4.0096,-3.9995,-3.9817,-3.9563,-3.9367,-3.9204,-3.9096,-3.8646,0.0,-3.8321,-3.7844,-3.7299,-3.7436,-3.6721,-3.5873,-3.5391,-3.4833,-3.4349,-3.404,-3.3777,-3.3483,-3.3181,-3.2555,-3.1909,-3.1318,-3.0821,-3.0385,-3.0133,-3.0503,-3.0392,-2.9228,-2.889,-2.8172,-2.6658,-2.6675,-2.6184,-2.4717,-2.4274,-2.3616,-2.2559,-2.1874,-2.144,-2.1321,-2.1306,-2.1306,-2.1306,-2.1306,-2.1306,-2.1306,-2.144,-2.1515,-2.1485,-2.0722,-2.0557,0.0,0.0,0.0,0.0,0.0,0.0,0.0,0.0,0.0,0.0,0.0,-2.7638,-2.8738,0.0,-3.3457,-3.5351,-3.7229,-3.87,-3.9453,-3.9876,-4.0096,-4.0096,-4.0096,-4.0096,-4.0096,-4.0096,-4.0096,-4.0096,-4.0096,-4.0096,-4.0096,-4.0096,-4.0096,-4.0096,-4.0096,-4.0096,-4.0096,-4.0096,-4.0096,-4.0096,-4.0096,-4.0096,-4.0096,-4.0096,-4.0096,-4.0096,-4.0096,-4.0096,-4.0096,-4.0096,-4.0096,-4.0096,-4.0096,-4.0096,-4.0096,-4.0096,-4.0096,-4.0096,-4.0096,-4.0096,-4.0045,-3.9636,-3.9489,-3.9489,-3.9489,-3.9239,-3.9032,-3.9454,-3.9005,-3.8447,-3.8447,-3.7638,-3.6702,-3.6348,-3.5688,-3.5062,-3.4723,-3.4372,-3.4072,-3.406,-3.3468,-3.2982,-3.2952,-3.2348,-3.1624,-3.0924,-3.0502,-3.0282,-3.0256,-2.9456,-2.8772,-2.8447,-2.7799,-2.7162,-2.6554,-2.5553,-2.4451,-2.3218,-2.2553,-2.2059,-2.171,-2.1695,-2.1695,-2.1695,-2.1695,-2.1695,-2.1695,-2.2044,-2.2209,-2.2224,-2.2503,-2.2308,0.0,0.0,0.0,0.0,0.0,0.0,0.0,0.0,-2.6386,-2.7723,-2.9211,-3.0838,-3.2615,-3.415,-3.5808,-3.7787,-3.8717,-3.9436,-4.0028,-4.0096,-4.0096,-4.0096,-4.0096,-4.0096,-4.0096,-4.0096,-4.0096,-4.0096,-4.0096,-4.0096,-4.0096,-4.0096,-4.0096,-4.0096,-4.0096,-4.0096,-4.0096,-4.0096,-4.0096,-4.0096,-4.0096,-4.0096,-4.0096,-4.0096,-4.0096,-4.0096,-4.0096,-4.0096,-4.0096,-4.0096,-4.0096,-4.0096,-4.0096,-4.0096,-4.0096,-4.0096,-4.0096,-4.0096,-4.0096,-4.0096,-3.9978,-3.9342,-3.9139,-3.9139,-3.9139,-3.9139,-3.9262,-3.9927,-3.9673,-3.9208,-3.9208,-3.8237,-3.7194,-3.7067,-3.6455,-3.5719,-3.5037,-3.4755,-3.4636,-3.4609,-3.4019,-3.3689,-3.4236,-3.3717,-3.285,-3.1693,-3.0536,-3.0103,-3.0937,-2.9643,-2.8996,-2.9848,-2.8604,-2.7849,-2.8188,-2.6788,-2.5381,-2.4239,-2.3719,-2.3143,-2.2473,-2.2458,-2.2458,-2.2458,-2.2458,-2.2458,-2.2458,-2.3002,-2.3272,-2.3287,-2.3874,-2.3483,-2.637,-2.3985,-2.297,-2.4678,-2.5236,-2.6387,0.0,0.0,-3.1667,-3.2476,-3.3825,-3.494,-3.5177,-3.6462,-3.7821,-3.8717,-3.9503,-4.0011,-4.0096,-4.0096,-4.0096,-4.0096,-4.0096,-4.0096,-4.0096,-4.0096,-4.0096,-4.0096,-4.0096,-4.0096,-4.0096,-4.0096,-4.0096,-4.0096,-4.0096,-4.0096,-4.0096,-4.0096,-4.0096,-4.0096,-4.0096,-4.0096,-4.0096,-4.0096,-4.0096,-4.0096,-4.0096,-4.0096,-4.0096,-4.0096,-4.0096,-4.0096,-4.0096,-4.0096,-4.0096,-4.0096,-4.0096,-4.0096,-4.0096,-4.0096,-4.007,-3.9995,-3.9969,-3.9969,-3.9969,-3.9969,-3.9978,-4.007,-4.0045,-3.9977,-3.9977,-3.9386,-3.8614,-3.8022,-3.7256,-3.6479,-3.5736,-3.5094,-3.4671,-3.4611,-3.4047,-3.3623,-3.3698,-3.3127,-3.2602,-3.2315,-3.1643,-3.1013,-3.0541,-2.979,-2.915,-2.8732,-2.8505,-2.8186,-2.7641,-2.7343,-2.6889,-2.6218,-2.6118,-2.5807,-2.5189,-2.5166,-2.5166,-2.5166,-2.5166,-2.5166,-2.5166,-2.5241,-2.5285,-2.5285,-2.5877,-2.5503,-2.9516,-2.818,-2.7604,0.0,-2.9194,-3.0632,-3.251,-3.3254,-3.3914,-3.5115,-3.6214,-3.7053,-3.7499,-3.8447,-3.9276,0.0,-3.991,-4.0096,-4.0096,-4.0096,-4.0096,-4.0096,-4.0096,-4.0096,-4.0096,-4.0096,-4.0096,-4.0096,-4.0096,-4.0096,-4.0096,-4.0096,-4.0096,-4.0096,-4.0096,-4.0096,-4.0096,-4.0096,-4.0096,-4.0096,-4.0096,-4.0096,-4.0096,-4.0096,-4.0096,-4.0096,-4.0096,-4.0096,-4.0096,-4.0096,-4.0096,-4.0096,-4.0096,-4.0096,-4.0096,-4.0096,-4.0096,-4.0096,-4.0096,-4.0096,-4.0096,-4.0096,-4.0096,-4.0096,-4.0096,-4.0096,-4.0096,-4.0096,-4.0096,-4.0096,-4.0096,-3.9876,-3.9564,-3.9294,-3.8631,-3.8011,-3.7685,-3.707,-3.6431,-3.5964,-3.5654,-3.533,-3.4835,-3.4528,-3.419,-3.3752,-3.2439,-3.1521,-3.156,-3.0376,-2.9265,-2.8581,-2.8803,-2.877,-2.814,-2.8376,-2.8138,-2.7129,-2.7069,-2.6786,-2.6145,-2.5794,-2.5615,-2.5615,-2.5615,-2.5615,-2.5615,-2.5615,-2.5615,-2.5615,-2.5863,-2.5901,-3.0937,0.0,0.0,-3.0734,-3.2374,-3.4044,-3.4286,-3.5064,-3.6045,-3.7185,-3.799,-3.8667,-3.9191,-3.974,-4.0096,-4.0096,-4.0096,-4.0096,-4.0096,-4.0096,-4.0096,-4.0096,-4.0096,-4.0096,-4.0096,-4.0096,-4.0096,-4.0096,-4.0096,-4.0096,-4.0096,-4.0096,-4.0197,-4.0417,-4.0417,-4.0519,-4.0705,-4.0722,-4.0722,-4.0722,-4.0722,-4.0722,-4.0722,-4.0722,-4.0722,-4.0722,-4.0722,-4.0722,-4.0722,-4.0722,-4.0603,-4.0417,-4.0417,-4.0282,-4.0096,-4.0096,-4.0096,-4.0096,-4.0096,-4.0096,-4.0096,-4.0096,-4.0096,-4.0096,-4.0096,-4.0096,-4.0096,-4.0096,-4.0096,-4.0096,-4.0096,-4.0096,-4.0096,-4.0096,-3.9706,-3.9242,-3.9039,-3.8582,-3.799,-3.7246,-3.7117,-3.684,-3.6079,-3.5943,-3.5683,-3.4975,-3.3632,-3.2637,-3.2481,-3.095,-2.967,-2.914,-2.9289,-2.9249,-2.8814,-2.9169,-2.8935,-2.7837,-2.7944,-2.7657,-2.6834,-2.6533,-2.6329,-2.6153,-2.6153,-2.6153,-2.6153,-2.6153,-2.6153,-2.6153,-2.6329,-2.6561,0.0,0.0,-3.048,-3.1887,-3.3897,-3.5757,-3.6524,-3.7804,-3.887,-3.892,-3.9537,-4.0045,-4.0062,-4.0079,-4.0096,-4.0096,-4.0096,-4.0096,-4.0096,-4.0096,-4.0096,-4.0096,-4.0096,-4.0096,0.0,-4.0096,-4.0096,-4.0096,-4.0096,-4.0096,-4.0096,-4.0096,-4.0434,-4.1136,-4.117,-4.1508,-4.2219,-4.2219,-4.2219,-4.2219,-4.2219,-4.2219,-4.2219,-4.2219,-4.2219,-4.2219,-4.2219,-4.2219,-4.2219,-4.2219,-4.1813,-4.117,-4.117,-4.073,-4.0096,-4.0096,-4.0096,-4.0096,-4.0096,-4.0096,-4.0096,-4.0096,-4.0096,-4.0096,-4.0096,-4.0096,-4.0096,-4.0096,-4.0096,-4.0096,-4.0096,-4.0096,-4.0096,-4.0096,-4.0079,-3.9876,-3.914,-3.8971,-3.8751,-3.8024,-3.7872,-3.7635,-3.6897,-3.6761,-3.6485,-3.5678,-3.5504,-3.4781,-3.2837,-3.1407,-3.0555,-3.054,-2.99,-2.9503,-2.9478,-2.9437,-2.9118,-2.8504,-2.9011,-2.881,-2.7615,-2.8103,-2.8152,-2.7565,-2.754,-2.754,-2.754,-2.754,-2.754,-2.755,-2.8152,-2.8103,-3.185,0.0,-3.4112,-3.5639,-3.6941,-3.8058,-3.8826,-3.9385,-3.974,-3.974,-3.9554,-3.9385,-3.9385,-3.9385,-3.9385,-3.9385,-3.9791,-4.0096,-4.0096,-4.0096,-4.0096,-4.0096,-4.0096,0.0,0.0,0.0,0.0,-4.0096,-4.0096,-4.0096,-4.0096,-4.0096,-4.0426,-4.1187,-4.1204,-4.1542,-4.2286,-4.2286,-4.2286,-4.2286,-4.2286,-4.2286,-4.2286,-4.2286,-4.2286,-4.2286,-4.2286,-4.2286,-4.2286,-4.2286,-4.2151,-4.1931,-4.1931,-4.1779,-4.1568,-4.1568,-4.1238,-4.0747,-4.0282,-4.0096,-4.0096,-4.0096,-4.0096,-4.0096,-4.0096,-4.0096,-4.0096,-4.0096,-4.0096,-4.0096,-4.0096,-4.0096,-4.0096,-4.0096,-4.0096,-4.0028,-3.9791,-3.974,-3.952,-3.8768,-3.8633,-3.8396,-3.7652,-3.7533,-3.7263,-3.6502,-3.5549,-3.4535,-3.3399,-3.2465,-3.1768,-3.1316,-3.0635,-3.0235,-3.0235,-3.0183,-3.0042,-2.9834,-2.9597,-2.9275,-2.8872,-2.8236,-2.781,-2.7585,-2.76,-2.76,-2.76,-2.76,-2.76,-2.7585,-2.781,-2.7785,-3.3525,-3.4895,-3.64,-3.7922,-3.8853,-3.9537,-3.9994,-4.0096,-4.0028,-3.9774,-3.9106,-3.8531,-3.8244,-3.7973,-3.7973,-3.8514,-3.8988,-3.9503,-4.0028,-4.0096,-4.0096,-4.0096,-4.0096,0.0,0.0,0.0,0.0,-4.0096,-4.0096,-4.0096,-4.0096,-4.0096,-4.057,-4.1559,-4.1593,-4.2083,-4.3098,-4.3125,-4.3125,-4.3125,-4.3125,-4.3125,-4.3125,-4.3125,-4.3125,-4.3125,-4.3125,-4.3125,-4.3125,-4.3125,-4.2946,-4.2692,-4.2692,-4.2523,-4.2286,-4.2286,-4.1999,-4.1491,-4.073,-4.0333,-4.0096,-4.0096,-4.0096,-4.0096,-4.0096,-4.0096,-4.0096,-4.0096,-4.0096,-4.0096,-4.0096,-4.0096,-4.0096,-4.0096,-4.0096,-4.0096,-4.0096,-4.0096,-3.996,-3.9503,-3.9402,-3.9157,-3.8413,-3.8075,-3.7736,-3.7263,-3.6159,-3.5138,-3.4412,-3.3718,-3.3153,-3.2724,-3.1867,-3.13,-3.13,-3.0844,-3.0541,-3.0541,-3.0113,-2.9755,-2.9541,-2.9198,-2.8903,-2.8682,-2.8667,-2.8667,-2.8667,-2.8417,-2.8319,-2.8319,-2.8319,-2.8319,-3.4269,-3.5814,-3.7303,-3.8725,-3.9588,-4.0096,-4.0096,-4.0079,-3.9825,-3.9039,-3.8261,-3.7483,0.0,0.0,-3.6005,-3.7499,-3.7872,-3.8464,-3.991,-4.0096,-4.0096,0.0,0.0,0.0,0.0,0.0,0.0,-4.0096,0.0,-4.013,-4.0146,-4.0163,-4.084,-4.2303,-4.2354,-4.3091,-4.4598,-4.4615,-4.4615,-4.4615,-4.4615,-4.4615,-4.4615,-4.4615,-4.4615,-4.4615,-4.4615,-4.4615,-4.4615,-4.4615,-4.4147,-4.3443,-4.3443,-4.3031,-4.2405,-4.2405,-4.2388,-4.2252,-4.1559,-4.0832,-4.0214,-4.0214,-4.0197,-4.0163,-4.0163,-4.013,-4.0096,-4.0096,-4.0096,-4.0096,-4.0096,-4.0096,-4.0096,-4.0096,-4.0096,-4.0096,-4.0096,-4.0096,-4.0096,-4.0096,-4.0096,-3.9893,-3.9174,-3.8447,-3.7973,-3.7973,-3.7313,-3.6552,-3.5752,-3.5045,-3.46,-3.46,-3.3421,-3.264,-3.264,-3.1486,-3.0746,-3.0695,-3.0603,-3.0282,-2.9678,-3.0779,-3.1146,-3.0612,-3.0586,-3.0612,-3.0637,-3.0015,-2.9672,-2.9645,-2.9645,-2.9633,-3.662,-3.8108,-3.9351,-3.974,-3.996,-4.0096,-4.0096,-3.9673,-3.8928,-3.7642,-3.6304,-3.481,0.0,0.0,0.0,-3.5301,-3.7246,0.0,-3.9977,-4.0096,0.0,-4.0096,0.0,-4.0096,-4.0096,-4.0096,0.0,0.0,-4.0096,-4.035,-4.0882,-4.0916,-4.1593,-4.3081,-4.3132,-4.3606,-4.4598,-4.4615,-4.4615,-4.4615,-4.4615,-4.4615,-4.4615,-4.4615,-4.4615,-4.4615,-4.4615,-4.4615,-4.4615,-4.4615,-4.4496,-4.4282,-4.4282,-4.4192,-4.4022,-4.4022,-4.3623,-4.3071,-4.2885,-4.2354,-4.1728,-4.1728,-4.1356,-4.0916,-4.0916,-4.0527,-4.0096,-4.0096,-4.0096,-4.0096,-4.0096,-4.0096,-4.0096,-4.0096,-4.0096,-4.0096,-4.0096,-4.0096,-4.0096,-4.0096,-4.0096,-4.0045,-3.9859,-3.9191,-3.8717,-3.8717,-3.8091,-3.7347,-3.6586,-3.5402,-3.46,-3.46,-3.385,-3.3351,-3.3351,-3.3023,-3.2635,-3.2113,-3.1621,-3.0998,-3.0295,-3.0167,-3.0247,-3.0586,-3.0586,-3.0839,-3.1341,-3.1186,-3.0814,-3.0361,-3.0361,-3.0079,-3.8058,-3.9208,-4.0096,-4.0096,-4.0096,-3.9842,-3.8877,-3.8335,-3.7337,-3.4866,-3.3389,0.0,0.0,0.0,0.0,0.0,0.0,0.0,-3.991,-4.0096,-4.0096,0.0,-4.0096,0.0,-4.0096,-4.0096,-4.0231,0.0,-4.0578,-4.0747,-4.1187,-4.1508,-4.2219,-4.3358,-4.3392,-4.3792,-4.4598,-4.4615,-4.4615,-4.4615,-4.4615,-4.4615,-4.4615,-4.4615,-4.4615,-4.4615,0.0,-4.4615,-4.4615,-4.4615,-4.4615,-4.4615,-4.4615,-4.4615,-4.4615,-4.4615,-4.4299,-4.3927,-4.3927,-4.3656,-4.321,-4.2506,-4.2016,-4.1677,-4.1677,-4.117,-4.0578,-4.0578,-4.0367,-4.0096,-4.0096,-4.0096,-4.0096,-4.0096,-4.0096,-4.0096,-4.0096,-4.0096,-4.0096,-4.0096,-4.0096,-4.0096,-4.0096,-3.9757,-3.9486,-3.9486,-3.8853,-3.8227,-3.7828,-3.6474,-3.5575,-3.5575,-3.4652,-3.4161,-3.4447,-3.3937,-3.3572,-3.3495,-3.2572,-3.1852,-3.1457,-3.1095,-3.1083,-3.1477,-3.1477,-3.1799,-3.2488,-3.218,-3.2003,-3.1911,-3.1911,-3.1721,-3.8937,-3.9622,-4.0096,-4.0096,-4.0028,-3.9402,-3.7286,-3.6575,-3.5323,-3.1647,0.0,-2.9176,-2.7638,-2.877,-3.0683,-3.2899,0.0,-3.7574,-3.9791,-4.0096,-4.0096,-4.0096,-4.0096,-4.0146,-4.0248,-4.0248,-4.057,-4.1288,-4.1441,-4.1491,-4.1491,-4.21,-4.2794,-4.3527,-4.3572,-4.3893,-4.4598,-4.4615,-4.4615,-4.4615,-4.4615,-4.4615,-4.4615,-4.4615,-4.4615,-4.4615,0.0,0.0,-4.4615,-4.4615,-4.4615,-4.4615,-4.4615,-4.4615,-4.4615,-4.4615,-4.4615,-4.4615,-4.4615,-4.4615,-4.4395,-4.3031,-4.2523,-4.2439,-4.2439,-4.1931,-4.1356,-4.1356,-4.0798,-4.0248,-4.0248,-4.018,-4.0096,-4.0096,-4.0096,-4.0096,-4.0096,-4.0096,-4.0096,-4.0096,-4.0096,-4.0096,-4.0096,-4.002,-3.9927,-3.9927,-3.9404,-3.9,-3.9,-3.7701,-3.6814,-3.6814,-3.5647,-3.5105,-3.5578,-3.4718,-3.428,-3.4578,-3.3597,-3.2951,-3.2749,-3.2641,-3.2641,-3.2749,-3.2641,-3.2922,-3.3582,-3.3029,-3.3039,-3.3582,-3.3582,-3.3582,-3.9723,-4.0011,-4.0096,-4.0096,-3.9656,-3.8751,-3.7168,-3.5334,0.0,0.0,0.0,-2.6826,-2.5354,-2.7334,0.0,-3.2141,0.0,0.0,0.0,0.0,-4.0096,0.0,0.0,0.0,0.0,0.0,0.0,0.0,0.0,-4.3003,-4.3003,-4.3122,-4.3572,-4.4378,-4.4384,-4.4479,-4.4615,-4.4615,-4.4615,-4.4615,-4.4615,-4.4615,-4.4615,-4.4615,-4.4615,-4.4615,0.0,0.0,-4.4615,-4.4615,-4.4615,-4.4615,-4.4615,-4.4615,-4.4615,-4.4615,-4.4615,-4.4615,-4.4615,-4.4615,-4.4564,-4.4293,-4.3741,-4.3189,-4.3189,-4.2692,-4.21,-4.21,-4.1576,-4.1018,-4.1018,-4.0544,-4.0096,-4.0096,-4.0096,-4.0096,-4.0096,-4.0096,-4.0096,-4.0096,-4.0096,-4.0096,-4.0096,-3.9542,-3.9113,-3.9113,-3.9013,-3.8931,-3.8931,-3.7682,-3.6796,-3.6796,-3.6563,-3.6219,-3.5726,-3.6588,-3.6423,-3.4703,-3.4938,-3.4628,-3.3459,-3.2895,-3.2868,-3.3417,-3.2895,-3.2922,-3.3582,-3.3495,-3.3495,-3.3582,-3.3582,-3.3582,-4.0011,-4.0096,-4.0096,-4.0096,-3.9554,-3.8294,-3.5639,0.0,0.0,0.0,0.0,-2.4644,-2.3562,0.0,0.0,0.0,0.0,0.0,0.0,0.0,0.0,0.0,0.0,0.0,0.0,0.0,0.0,0.0,0.0,-4.3392,-4.3392,-4.3809,-4.4198,-4.4598,-4.4615,-4.4615,-4.4615,-4.4615,-4.4615,-4.4615,-4.4615,-4.4615,-4.4615,-4.4615,-4.4615,-4.4615,-4.4615,0.0,-4.4615,-4.4615,-4.4615,-4.4615,-4.4615,-4.4615,-4.4615,-4.4615,-4.4615,-4.4615,-4.4615,-4.4615,-4.4615,-4.4615,-4.4333,-4.4012,-4.4012,-4.3487,-4.2878,-4.2878,-4.2337,-4.1762,-4.1762,-4.1508,-4.1162,-4.0747,-4.0383,-4.0096,-4.0096,-4.0096,-4.0096,-4.0096,-4.0096,-4.0096,-4.0096,-3.9782,-3.9368,-3.8962,-3.8908,-3.8772,-3.8386,-3.773,-3.7474,-3.7895,-3.7261,-3.6801,-3.6851,-3.7145,-3.7045,-3.6356,-3.6306,-3.5974,-3.5284,-3.4617,-3.4233,-3.4168,-3.352,-3.3305,-3.3582,-3.3235,-3.3261,-3.3582,-3.3582,-3.3786,-4.0096,-4.0096,-4.0096,-4.0096,-3.9317,-3.7584,-3.3981,-3.1765,0.0,0.0,-2.3678,-2.3038,-2.2615,0.0,0.0,0.0,0.0,0.0,0.0,0.0,0.0,0.0,0.0,0.0,0.0,0.0,0.0,0.0,0.0,0.0,-4.3673,-4.4248,-4.4615,-4.4615,-4.4615,-4.4615,-4.4615,-4.4615,-4.4615,-4.4615,-4.4615,-4.4615,-4.4615,-4.4615,-4.4615,-4.4615,-4.4615,0.0,0.0,-4.4615,-4.4615,-4.4615,-4.4615,-4.4615,-4.4615,-4.4615,-4.4615,-4.4615,-4.4615,-4.4615,-4.4615,-4.4615,-4.4615,-4.4615,-4.4615,-4.4147,-4.3673,-4.3673,-4.3115,-4.254,-4.254,-4.2422,-4.21,-4.139,-4.0747,-4.0299,-4.013,-4.0096,-4.0096,-4.0096,-4.0096,-4.0096,-4.0096,-3.9952,-3.9636,-3.9005,-3.8772,-3.8442,-3.7863,-3.7793,-3.8023,-3.867,-3.7849,-3.7484,-3.806,-3.7745,-3.7611,-3.7866,-3.7503,-3.7119,-3.6801,-3.6293,-3.5664,-3.4947,-3.4419,-3.4042,-3.3837,-3.3322,-3.3306,-3.3794,-3.3794,-3.4159,-4.0096,-4.0096,-4.0096,-4.0096,-3.8539,-3.618,-3.3098,0.0,0.0,-2.4137,-2.2919,-2.2584,-2.319,0.0,0.0,0.0,0.0,-3.3698,0.0,0.0,0.0,0.0,0.0,0.0,0.0,0.0,0.0,0.0,0.0,0.0,-4.4496,-4.4564,-4.4615,-4.4615,-4.4615,-4.4615,-4.4615,-4.4615,-4.4615,-4.4615,-4.4615,-4.4615,-4.4615,-4.4615,-4.4615,-4.4615,-4.4615,0.0,0.0,-4.4615,-4.4615,-4.4615,-4.4615,-4.4615,-4.4615,-4.4615,-4.4615,-4.4615,-4.4615,-4.4615,-4.4615,-4.4615,-4.4615,-4.4615,-4.4615,-4.4564,-4.4496,-4.4496,-4.391,-4.3291,-4.3291,-4.2811,-4.21,-4.139,-4.1153,-4.0916,-4.0248,-4.0096,-4.0096,-4.0096,-4.0096,-4.0096,-4.0096,-3.9489,-3.9005,-3.8908,-3.833,-3.7863,-3.7822,-3.7793,-3.7819,-3.7898,-3.8406,-3.8737,-3.8807,-3.941,-3.9218,-3.7883,-3.8439,-3.8162,-3.6757,-3.6708,-3.6365,-3.5625,-3.5609,-3.5264,-3.4618,-3.4532,-3.4488,-3.4426,-3.4426,-3.4811,-3.9859,-4.0096,-4.0096,-4.0096,-3.8437,-3.6017,-3.2983,0.0,-2.6962,-2.4002,-2.2818,-2.2381,-2.2682,-2.3342,0.0,0.0,0.0,0.0,0.0,0.0,0.0,0.0,0.0,0.0,0.0,0.0,0.0,0.0,0.0,0.0,-4.4615,-4.4615,-4.4615,-4.4615,-4.4615,-4.4615,-4.4615,-4.4615,-4.4615,-4.4615,-4.4615,-4.4615,-4.4615,-4.4615,-4.4615,-4.4615,-4.4615,0.0,0.0,-4.4615,-4.4615,-4.4615,-4.4615,-4.4615,-4.4615,-4.4615,-4.4615,-4.4615,-4.4615,-4.4615,-4.4615,-4.4615,-4.4615,-4.4615,-4.4615,-4.4615,-4.4615,-4.4615,-4.4378,-4.4113,-4.4113,-4.3555,-4.2895,-4.2608,-4.2202,-4.166,-4.0916,-4.0747,-4.0629,-4.0197,-4.0096,-4.0096,-4.0096,-3.9833,-3.9463,-3.8962,-3.8635,-3.8133,-3.7203,-3.7084,-3.7084,-3.7084,-3.7761,-3.8414,-3.8854,-3.9193,-3.932,-3.9192,-3.9488,-3.9396,-3.8782,-3.8304,-3.7932,-3.7691,-3.6837,-3.6258,-3.5948,-3.5557,-3.51,-3.4601,-3.4601,-3.4729,-3.9385,-3.9943,-4.0096,-4.0096,-3.8268,-3.5656,0.0,-2.9634,-2.6624,-2.368,-2.2651,-2.2296,-2.2296,-2.2902,-2.3883,-2.5372,0.0,-2.8163,0.0,0.0,0.0,0.0,0.0,0.0,0.0,0.0,0.0,0.0,0.0,0.0,0.0,-4.4615,-4.4615,-4.4615,-4.4615,-4.4615,-4.4615,-4.4615,-4.4615,-4.4615,-4.4615,-4.4615,-4.4615,-4.4615,-4.4615,-4.4615,0.0,0.0,0.0,-4.4615,-4.4615,-4.4615,-4.4615,-4.4615,-4.4615,-4.4615,-4.4615,-4.4615,-4.4615,-4.4615,-4.4615,-4.4615,-4.4615,-4.4615,-4.4615,-4.4615,-4.4615,-4.4615,-4.4615,-4.4615,-4.4615,-4.4181,-4.3707,-4.3443,-4.3014,-4.2422,-4.1677,-4.1525,-4.1305,-4.0587,-4.0434,-4.0367,-4.0146,-3.9901,-3.9542,-3.9005,-3.8509,-3.7901,-3.7054,-3.6569,-3.6353,-3.6584,-3.6905,-3.7515,-3.8497,-3.8772,-3.9139,-3.9714,-3.9969,-3.9978,-3.9756,-3.9437,-3.9056,-3.8652,-3.7829,-3.7198,-3.6734,-3.6522,-3.601,-3.525,-3.525,-3.5102,-3.8599,-3.9529,-4.0096,-4.0096,-3.7838,-3.4839,0.0,-2.8873,-2.5862,-2.2905,-2.2296,-2.2296,-2.2296,-2.2902,-2.3883,-2.5372,-2.6826,0.0,0.0,0.0,0.0,0.0,0.0,0.0,0.0,0.0,0.0,0.0,0.0,0.0,0.0,-4.4615,-4.4615,-4.4615,-4.4615,-4.4615,-4.4615,-4.4615,-4.4615,-4.4615,-4.4615,-4.4615,-4.4615,-4.4615,-4.4615,0.0,0.0,0.0,0.0,-4.4615,-4.4615,-4.4615,-4.4615,-4.4615,-4.4615,-4.4615,-4.4615,-4.4615,-4.4615,-4.4615,-4.4615,-4.4615,-4.4615,-4.4615,-4.4615,-4.4615,-4.4615,-4.4615,-4.4615,-4.4615,-4.4615,-4.4598,-4.4395,-4.3606,-4.3375,-4.32,-4.2439,-4.2286,-4.2066,-4.1339,-4.1187,-4.0967,-4.0231,-3.9437,-3.8908,-3.8908,-3.7613,-3.6904,-3.769,-3.6461,-3.5782,-3.6523,-3.5943,-3.6133,-3.7677,-3.8469,-3.8908,-3.8908,-3.9662,-3.9756,-3.8951,-3.9662,-3.9358,-3.7835,-3.8509,-3.8113,-3.6615,-3.7395,-3.7365,-3.6584,-3.6584,-3.6212,-3.5656,-3.6468,-3.6789,-3.5774,-3.4049,-3.1952,-2.943,-2.7368,-2.5253,-2.2803,-2.2296,-2.2296,-2.2296,-2.2496,-2.346,-2.5947,-2.6742,0.0,0.0,0.0,0.0,0.0,0.0,0.0,0.0,0.0,0.0,0.0,0.0,0.0,0.0,-4.4615,-4.4615,-4.4615,-4.4615,-4.4615,-4.4615,-4.4615,-4.4615,-4.4615,-4.4615,-4.4615,-4.4615,-4.4615,0.0,0.0,0.0,0.0,0.0,-4.4615,-4.4615,-4.4615,-4.4615,-4.4615,-4.4615,-4.4615,-4.4615,-4.4615,-4.4615,-4.4615,-4.4615,-4.4615,-4.4615,-4.4615,-4.4615,-4.4615,-4.4615,-4.4615,-4.4615,-4.4615,-4.4615,-4.4615,-4.4547,-4.4265,-4.4215,-4.3995,-4.3234,-4.3064,-4.2844,-4.2083,-4.1948,-4.1711,-4.0984,-4.0231,-3.9528,-3.899,-3.8076,-3.7308,-3.7024,-3.6569,-3.6134,-3.5863,-3.5636,-3.5894,-3.6889,-3.7188,-3.7571,-3.8104,-3.8402,-3.8652,-3.8881,-3.8652,-3.8805,-3.9358,-3.8569,-3.8161,-3.8157,-3.7905,-3.7397,-3.6584,-3.6086,-3.5733,-3.3173,-3.4201,-3.4535,-3.3643,-3.229,-3.0598,-2.8314,-2.6657,-2.4967,-2.2753,-2.2296,-2.2296,-2.2296,-2.253,-2.3325,-2.5152,-2.5913,0.0,0.0,0.0,0.0,0.0,0.0,0.0,0.0,0.0,0.0,0.0,0.0,0.0,0.0,-4.4615,-4.4615,-4.4615,-4.4615,-4.4615,-4.4615,-4.4615,-4.4615,-4.4615,-4.4615,-4.4615,-4.4615,-4.4615,0.0,0.0,0.0,0.0,0.0,-4.4615,-4.4615,-4.4615,-4.4615,-4.4615,-4.4615,-4.4615,-4.4615,-4.4615,-4.4615,-4.4615,-4.4615,-4.4615,-4.4615,-4.4615,-4.4615,-4.4615,-4.4615,-4.4615,-4.4615,-4.4615,-4.4615,-4.4615,-4.4615,-4.4615,-4.4615,-4.4479,-4.3961,-4.3859,-4.3639,-4.2861,-4.2726,-4.2489,-4.1745,-4.0765,-3.9836,-3.9026,-3.8008,-3.7174,-3.6661,-3.6368,-3.6117,-3.5911,-3.5668,-3.5701,-3.6134,-3.6446,-3.6813,-3.7308,-3.7632,-3.8007,-3.8469,-3.8035,-3.8262,-3.9226,-3.829,-3.8035,-3.8469,-3.8035,-3.7397,-3.6584,-3.6149,-3.575,0.0,-3.2307,-3.2899,-3.2797,-3.1732,-3.0159,-2.7976,-2.6421,0.0,-2.2736,-2.2296,-2.233,-2.2446,-2.2936,-2.3427,-2.3748,0.0,0.0,0.0,0.0,0.0,0.0,0.0,0.0,0.0,0.0,0.0,0.0,0.0,0.0,0.0,-4.4615,-4.4615,-4.4615,-4.4615,-4.4615,-4.4615,-4.4615,-4.4615,-4.4615,-4.4615,-4.4615,-4.4615,-4.4615,0.0,0.0,0.0,0.0,0.0,-4.4615,-4.4615,-4.4615,-4.4615,-4.4615,-4.4615,-4.4615,-4.4615,-4.4615,-4.4615,-4.4615,-4.4615,-4.4615,-4.4615,-4.4615,-4.4615,-4.4615,-4.4615,-4.4615,-4.4615,-4.4615,-4.4615,-4.4615,-4.4615,-4.4615,-4.4615,-4.4615,-4.4615,-4.4615,-4.4395,-4.3639,-4.3504,-4.3267,-4.2506,-4.1209,-3.9992,-3.9175,-3.7707,-3.6677,-3.6677,-3.5973,-3.575,-3.6446,-3.5926,-3.5504,-3.5504,-3.6149,-3.6523,-3.6523,-3.7219,-3.7677,-3.769,-3.7719,-3.7719,-3.7793,-3.7748,-3.769,-3.7648,-3.7648,-3.7249,-3.6523,-3.6523,-3.6134,-2.5946,0.0,-2.7994,-2.6877,-2.6336,-2.5794,0.0,-2.4171,-2.3613,-2.2516,-2.2296,-2.2634,-2.378,-2.319,-2.368,0.0,0.0,0.0,0.0,0.0,0.0,0.0,0.0,0.0,0.0,0.0,0.0,0.0,0.0,0.0,0.0,-4.4615,-4.4615,-4.4615,-4.4615,-4.4615,-4.4615,-4.4615,-4.4615,-4.4615,-4.4615,-4.4615,-4.4615,-4.4615,0.0,0.0,0.0,0.0,-4.4615,-4.4615,-4.4615,-4.4615,-4.4615,-4.4615,-4.4615,-4.4615,-4.4615,-4.4615,-4.4615,-4.4615,-4.4615,-4.4615,-4.4615,-4.4615,-4.4615,-4.4615,-4.4615,-4.4615,-4.4615,-4.4615,-4.4615,-4.4615,-4.4615,-4.4615,-4.4615,-4.4615,-4.4615,-4.4615,-4.4547,-4.4333,-4.4316,-4.4062,-4.3284,-4.2395,-4.1523,-4.0762,-3.8828,-3.7421,-3.7421,-3.6294,-3.5569,-3.5718,-3.5619,-3.5504,-3.5504,-3.5668,-3.575,-3.575,-3.5941,-3.6305,-3.6859,-3.6873,-3.7174,-3.7793,-3.7189,-3.66,-3.6053,-3.6053,-3.5926,-3.575,-3.575,-3.5668,-2.3376,-2.505,-2.6505,-2.5709,-2.5506,-2.532,-2.4577,-2.3883,-2.319,0.0,0.0,0.0,0.0,0.0,0.0,0.0,0.0,0.0,0.0,0.0,0.0,0.0,0.0,0.0,0.0,0.0,0.0,0.0,0.0,0.0,0.0,-4.4615,-4.4615,-4.4615,-4.4615,-4.4615,-4.4615,-4.4615,-4.4615,-4.4615,-4.4615,-4.4615,-4.4615,-4.4615,-4.4615,0.0,0.0,0.0,-4.4615,-4.4615,-4.4615,-4.4615,-4.4615,-4.4615,-4.4615,-4.4615,-4.4615,-4.4615,-4.4615,-4.4615,-4.4615,-4.4615,-4.4615,-4.4615,-4.4615,-4.4615,-4.4615,-4.4615,-4.4615,-4.4615,-4.4615,-4.4615,-4.4615,-4.4615,-4.4615,-4.4615,-4.4615,-4.4615,-4.4615,-4.4615,-4.4615,-4.435,-4.3483,-4.2725,-4.1878,-4.0675,-3.9125,-3.799,-3.7617,-3.6866,-3.6267,-3.5983,-3.5953,-3.5833,-3.5534,-3.5504,-3.5504,-3.5504,-3.5504,-3.5668,-3.6086,-3.6086,-3.6461,-3.7249,-3.7174,-3.6783,-3.6006,-3.6006,-3.5831,-3.5504,-3.5504,-3.5504,-2.2702,-2.4797,-2.6725,-2.6167,-2.6201,-2.6133,-2.5288,0.0,0.0,0.0,0.0,0.0,0.0,0.0,0.0,0.0,0.0,0.0,0.0,0.0,0.0,0.0,0.0,0.0,0.0,0.0,0.0,0.0,0.0,0.0,0.0,-4.4615,-4.4615,-4.4615,-4.4615,-4.4615,-4.4615,-4.4615,-4.4615,-4.4615,-4.4615,-4.4615,-4.4615,-4.4615,-4.4615,0.0,0.0,0.0,-4.4615,-4.4615,-4.4615,-4.4615,-4.4615,-4.4615,-4.4615,-4.4615,-4.4615,-4.4615,-4.4615,-4.4615,-4.4615,-4.4615,-4.4615,-4.4615,-4.4615,-4.4615,-4.4615,-4.4615,-4.4615,-4.4615,-4.4615,-4.4615,-4.4615,-4.4615,-4.4615,-4.4615,-4.4615,-4.4615,-4.4615,-4.4615,-4.4615,-4.431,-4.3456,-4.2795,-4.1827,-4.0269,-3.9315,-3.8519,-3.7847,-3.7533,-3.721,-3.6686,-3.6626,-3.6357,-3.5714,-3.5654,-3.5609,-3.5519,-3.5504,-3.5504,-3.5504,-3.5504,-3.5782,-3.6415,-3.7115,-3.71,-3.6446,-3.6446,-3.6117,-3.5504,-3.5504,-3.5504,-2.4578,-2.6336,-2.6877,-2.375,-2.39,-2.4474,-2.3122,-2.2634,0.0,0.0,0.0,0.0,0.0,0.0,0.0,0.0,0.0,0.0,0.0,0.0,0.0,0.0,0.0,0.0,0.0,0.0,0.0,0.0,0.0,0.0,0.0,0.0,-4.4615,-4.4615,-4.4615,-4.4615,-4.4615,-4.4615,-4.4615,-4.4615,-4.4615,-4.4615,-4.4615,-4.4615,-4.4615,0.0,0.0,-4.4615,-4.4615,-4.4615,-4.4615,-4.4615,-4.4615,-4.4615,-4.4615,-4.4615,-4.4615,-4.4615,-4.4615,-4.4615,-4.4615,-4.4615,-4.4615,-4.4615,-4.4615,-4.4615,-4.4615,-4.4615,-4.4615,-4.4615,-4.4615,-4.4615,-4.4615,-4.4615,-4.4615,-4.4615,-4.4615,-4.4615,-4.4615,-4.4615,-4.4615,-4.431,-4.3456,-4.3207,-4.2776,-4.1805,-4.0427,-3.9495,-3.9347,-3.8198,-3.7375,-3.7285,-3.727,-3.7015,-3.6387,-3.6342,-3.6088,-3.5549,-3.5504,-3.5504,-3.5504,-3.5504,-3.5554,-3.5668,-3.5797,-3.5782,-3.5668,-3.5668,-3.5619,-3.5504,-3.5504,-3.5504,-2.353,-2.517,-2.61,-2.4002,-2.5524,-2.7131,-2.5609,-2.495,0.0,0.0,0.0,0.0,0.0,0.0,0.0,0.0,0.0,0.0,0.0,0.0,0.0,0.0,0.0,0.0,0.0,0.0,0.0,0.0,0.0,0.0,0.0,0.0,-4.4615,-4.4615,-4.4615,-4.4615,-4.4615,-4.4615,-4.4615,-4.4615,-4.4615,-4.4615,-4.4615,-4.4615,-4.4615,-4.4615,0.0,-4.4615,-4.4615,-4.4615,-4.4615,-4.4615,-4.4615,-4.4615,-4.4615,-4.4615,-4.4615,-4.4615,-4.4615,-4.4615,-4.4615,-4.4615,-4.4615,-4.4615,-4.4615,-4.4615,-4.4615,-4.4615,-4.4615,-4.4615,-4.4615,-4.4615,-4.4615,-4.4615,-4.4615,-4.4615,-4.4615,-4.4615,-4.4615,-4.4615,-4.4615,-4.431,-4.3456,-4.3306,-4.2847,-4.1511,-4.068,-4.0056,-3.9588,-3.8908,-3.8347,-3.7973,-3.7943,-3.7689,-3.7045,-3.6985,-3.6567,-3.5564,-3.5504,-3.5504,-3.5504,-3.5504,-3.5504,-3.5504,-3.5504,-3.5504,-3.5504,-3.5504,-3.5504,-3.5504,-3.5504,-3.5504,-2.319,-2.4577,-2.5727,-2.5168,-2.7046,-2.8821,-2.7993,-2.7232,-2.6793,0.0,0.0,0.0,0.0,0.0,0.0,0.0,0.0,0.0,0.0,0.0,0.0,0.0,0.0,0.0,0.0,0.0,0.0,0.0,0.0,0.0,0.0,0.0,-4.4615,-4.4615,-4.4615,-4.4615,-4.4615,-4.4615,-4.4615,-4.4615,-4.4615,-4.4615,-4.4615,-4.4615,-4.4615,-4.4615,-4.4615,-4.4615,-4.4615,-4.4615,-4.4615,-4.4615,-4.4615,-4.4615,-4.4615,-4.4615,-4.4615,-4.4615,-4.4615,-4.4615,-4.4615,-4.4615,-4.4733,-4.4869,-4.4869,-4.4987,-4.5122,-4.5122,-4.5122,-4.5055,-4.4699,-4.4615,-4.4615,-4.4615,-4.4615,-4.4615,-4.4615,-4.4615,-4.4615,-4.4615,-4.4615,-4.431,-4.3456,-4.3306,-4.2724,-4.0946,-4.069,-4.0413,-3.9517,-3.9388,-3.9215,-3.8691,-3.8631,-3.8362,-3.7689,-3.7494,-3.6985,-3.6013,-3.5669,-3.5504,-3.5504,-3.5504,-3.5504,-3.5504,-3.5504,-3.5504,-3.5504,-3.5504,-3.5504,-3.5504,-3.5504,-3.5504,-2.5828,-2.6488,-2.6607,-2.6539,-2.6234,-2.6252,-2.7519,-2.7232,0.0,-2.8536,0.0,0.0,0.0,0.0,0.0,0.0,0.0,0.0,0.0,0.0,0.0,0.0,0.0,0.0,0.0,0.0,0.0,0.0,0.0,0.0,0.0,0.0,0.0,-4.4615,-4.4615,-4.4615,-4.4615,-4.4615,-4.4615,-4.4615,-4.4615,-4.4615,-4.4615,-4.4615,-4.4615,-4.4615,-4.4615,-4.4615,-4.4615,-4.4615,-4.4615,-4.4615,-4.4615,-4.4615,-4.4615,-4.4615,-4.4615,-4.4615,-4.4615,-4.4615,-4.4615,-4.4615,-4.5043,-4.5618,-4.5618,-4.6092,-4.6633,-4.6633,-4.6633,-4.6312,-4.497,-4.4615,-4.4615,-4.4615,-4.4615,-4.4615,-4.4615,-4.4615,-4.4615,-4.4615,-4.4615,-4.431,-4.3456,-4.3306,-4.2724,-4.0946,-4.069,-4.0413,-3.9517,-3.9388,-3.9394,-3.9313,-3.9313,-3.9065,-3.8377,-3.7764,-3.7375,-3.7285,-3.6163,-3.5504,-3.5504,-3.5504,-3.5504,-3.5504,-3.5504,-3.5504,-3.5504,-3.5504,-3.5504,-3.5504,-3.5504,-3.5504,-2.4408,-2.5642,-2.6691,-2.6691,-2.7554,0.0,0.0,-3.0091,-3.1292,-3.2797,-3.3558,0.0,0.0,0.0,0.0,0.0,0.0,0.0,0.0,0.0,0.0,0.0,0.0,0.0,0.0,0.0,0.0,0.0,0.0,0.0,0.0,0.0,0.0,-4.3842,-4.3859,-4.4079,-4.4615,-4.4615,-4.4615,-4.4615,-4.4615,-4.4615,-4.4615,-4.4615,-4.4615,-4.4615,-4.4615,-4.4615,-4.4615,-4.4615,-4.4615,-4.4615,-4.4615,-4.4615,-4.4615,-4.4615,-4.4615,-4.4615,-4.4615,-4.4615,-4.4682,-4.5128,-4.5466,-4.5788,-4.6244,-4.6583,-4.6786,-4.6786,-4.6786,-4.6667,-4.6092,-4.5618,-4.528,-4.528,-4.4925,-4.4615,-4.4615,-4.4615,-4.4615,-4.4615,-4.4615,-4.4514,-4.4167,-4.4109,-4.3515,-4.1756,-4.1511,-4.0995,-3.9574,-3.9388,-3.9388,-3.9388,-3.9388,-3.932,-3.905,-3.8407,-3.8018,-3.8018,-3.718,-3.6522,-3.6133,-3.6118,-3.5923,-3.5519,-3.5504,-3.5504,-3.5504,-3.5504,-3.5504,-3.5504,-3.5504,-3.5504,-2.3799,-2.5017,-2.6404,-2.664,0.0,0.0,-3.1292,-3.2662,-3.4252,-3.5955,-3.6146,0.0,0.0,0.0,0.0,0.0,0.0,0.0,0.0,0.0,0.0,0.0,0.0,0.0,0.0,0.0,0.0,0.0,0.0,0.0,0.0,0.0,0.0,0.0,-4.3274,-4.3673,-4.4215,-4.4479,-4.4615,-4.4615,-4.4615,-4.4615,-4.4615,-4.4615,-4.4615,-4.4615,-4.4615,-4.4615,-4.4615,-4.4615,-4.4615,-4.4615,-4.4615,-4.4615,-4.4615,-4.4615,-4.4615,-4.4615,-4.4615,-4.4615,-4.4733,-4.5466,-4.5872,-4.6177,-4.6921,-4.731,-4.7479,-4.7479,-4.7479,-4.7479,-4.7479,-4.6769,-4.6058,-4.6058,-4.5483,-4.4942,-4.4942,-4.4767,-4.4514,-4.4253,-4.4412,-4.4514,-4.4224,-4.4412,-4.4018,-4.2252,-4.1997,-4.1362,-3.961,-3.9388,-3.9388,-3.9388,-3.9388,-3.9388,-3.9388,-3.899,-3.8721,-3.8721,-3.8302,-3.7659,-3.6806,-3.6776,-3.6567,-3.6118,-3.5908,-3.5818,-3.5818,-3.5609,-3.5609,-3.5818,-3.5818,-3.5923,-2.4694,-2.5033,-2.5812,-2.6539,0.0,0.0,-3.3863,-3.4523,-3.5165,-3.7466,0.0,-3.7269,0.0,0.0,0.0,0.0,0.0,0.0,0.0,0.0,0.0,0.0,0.0,0.0,0.0,0.0,0.0,0.0,0.0,0.0,0.0,0.0,0.0,0.0,-4.3014,-4.3375,-4.3392,-4.4181,-4.4598,-4.4615,-4.4615,-4.4615,-4.4615,-4.4615,-4.4615,-4.4615,-4.4615,-4.4615,-4.4615,-4.4615,-4.4615,-4.4615,-4.4615,-4.4615,-4.4615,-4.4615,-4.4615,-4.4615,-4.4615,-4.4615,-4.4733,-4.5466,-4.6194,-4.6938,-4.7699,-4.8426,-4.9001,-4.9001,-4.9001,-4.9001,-4.9001,-4.7919,-4.6802,-4.6802,-4.6244,-4.5691,-4.5691,-4.5128,-4.4344,-4.3489,-4.4023,-4.4344,-4.3443,-4.4023,-4.4006,-4.2252,-4.1997,-4.1362,-3.961,-3.9388,-3.9388,-3.9388,-3.9388,-3.9388,-3.9388,-3.9388,-3.9388,-3.9388,-3.9388,-3.8811,-3.7464,-3.7419,-3.7419,-3.7404,-3.6806,-3.6492,-3.6492,-3.5833,-3.5863,-3.6492,-3.6492,-3.6821,-2.4069,-2.5406,0.0,-2.813,0.0,0.0,0.0,-3.6485,0.0,0.0,0.0,0.0,0.0,0.0,0.0,0.0,0.0,0.0,0.0,0.0,0.0,0.0,0.0,0.0,0.0,0.0,0.0,0.0,0.0,0.0,0.0,0.0,0.0,0.0,-4.1745,-4.2371,-4.3375,-4.3656,-4.4045,-4.4615,-4.4615,-4.4615,-4.4615,-4.4615,-4.4615,-4.4615,-4.4615,-4.4615,-4.4615,-4.4615,-4.4615,-4.4615,-4.4615,-4.4615,-4.4615,-4.4615,-4.4615,-4.4615,-4.4615,-4.4615,-4.4733,-4.5466,-4.6194,-4.6938,-4.7699,-4.8426,-4.9001,-4.9001,-4.9001,-4.9001,-4.9001,-4.868,-4.8037,-4.6878,-4.6041,-4.5291,-4.4658,-4.4859,-4.4898,-4.3978,-4.4538,-4.4702,-4.3314,-4.3815,-4.3651,-4.1409,-4.1609,-4.1362,-3.961,-3.9388,-3.9388,-3.9388,-3.9388,-3.9388,-3.9388,-3.9388,-3.9388,-3.9388,-3.9388,-3.902,-3.8138,-3.8093,-3.7883,-3.7419,-3.7225,-3.7135,-3.7135,-3.6941,-3.6941,-3.7135,-3.7135,-3.724,-2.4658,-2.6303,0.0,-3.0328,-3.2966,-3.5723,-3.7855,0.0,0.0,0.0,0.0,0.0,0.0,0.0,0.0,0.0,0.0,0.0,0.0,0.0,0.0,0.0,0.0,0.0,0.0,0.0,0.0,0.0,0.0,0.0,0.0,0.0,0.0,0.0,-4.1052,-4.1644,-4.2513,-4.2828,-4.3352,-4.4113,-4.4113,-4.4282,-4.4615,-4.4615,-4.4615,-4.4615,-4.4615,-4.4615,-4.4615,-4.4615,-4.4615,-4.4615,-4.4615,-4.4615,-4.4615,-4.4615,-4.4615,-4.4615,-4.4615,-4.4615,-4.4733,-4.5466,-4.6007,-4.6566,-4.7597,-4.8193,-4.8629,-4.8934,-4.9001,-4.9001,-4.9001,-4.9001,-4.8759,-4.7723,-4.6914,-4.6146,-4.5195,-4.5212,-4.5032,-4.372,-4.4228,-4.443,-4.3113,-4.3602,-4.3556,-4.1781,-4.1417,-4.0878,-3.9583,-3.9388,-3.9388,-3.9388,-3.9388,-3.9388,-3.9388,-3.9388,-3.9388,-3.9388,-3.9388,-3.923,-3.8811,-3.8796,-3.8616,-3.8212,-3.7943,-3.7808,-3.7808,-3.7539,-3.7539,-3.7808,-3.7808,-3.7943,-2.5821,0.0,0.0,-3.2701,-3.4165,0.0,-3.8366,0.0,0.0,0.0,0.0,0.0,0.0,0.0,0.0,0.0,0.0,0.0,0.0,0.0,0.0,0.0,0.0,0.0,0.0,0.0,0.0,0.0,0.0,0.0,0.0,0.0,0.0,0.0,-4.0747,-4.1136,-4.1204,-4.1863,-4.2574,0.0,-4.3291,-4.3724,-4.4496,-4.4581,-4.4615,-4.4615,-4.4615,-4.4615,-4.4615,-4.4615,-4.4615,-4.4615,-4.4615,-4.4615,-4.4615,-4.4615,-4.4615,-4.4615,-4.4615,-4.4615,-4.4716,-4.5382,-4.5652,-4.5974,-4.7378,-4.7838,-4.8041,-4.8798,-4.9001,-4.9001,-4.9001,-4.9001,-4.9001,-4.9001,-4.8433,-4.7603,-4.6569,-4.5897,-4.4918,-4.3116,-4.3474,-4.3756,-4.2824,-4.3396,-4.3696,-4.2838,-4.1459,-4.0277,-3.9679,-3.9544,-3.9514,-3.9514,-3.9454,-3.9388,-3.9388,-3.9388,-3.9388,-3.9388,-3.9388,-3.9388,-3.9388,-3.9388,-3.9388,-3.9388,-3.8796,-3.8482,-3.8482,-3.7883,-3.7898,-3.8482,-3.8482,-3.8826,-2.5035,-2.7326,0.0,0.0,-3.5719,-3.8129,-3.8775,0.0,0.0,0.0,0.0,0.0,0.0,0.0,0.0,0.0,0.0,0.0,0.0,0.0,0.0,0.0,0.0,0.0,0.0,0.0,0.0,0.0,0.0,0.0,0.0,0.0,0.0,-4.0096,-4.0265,-4.0595,-4.1204,-4.1373,-4.1813,0.0,-4.254,-4.2929,-4.369,-4.4299,-4.4615,-4.4615,-4.4615,-4.4615,-4.4615,-4.4615,-4.4615,-4.4615,-4.4615,-4.4615,-4.4615,-4.4615,-4.4615,-4.4615,-4.4615,-4.4615,-4.4632,-4.4801,-4.5229,-4.5872,-4.6769,-4.7445,-4.8041,-4.8798,-4.9001,-4.9001,-4.9001,-4.9001,-4.9001,-4.9001,-4.8316,-4.7193,-4.5536,-4.5607,-4.5444,-4.3548,-4.3966,-4.4155,-4.269,-4.3205,-4.3516,-4.2808,-4.1854,-4.1115,-4.098,-4.0502,-4.0187,-4.0187,-3.9723,-3.9388,-3.9388,-3.9388,-3.9388,-3.9388,-3.9388,-3.9388,-3.9388,-3.9388,-3.9388,-3.9388,-3.9275,-3.92,-3.92,-3.905,-3.905,-3.92,-3.92,-3.9239,-2.5306,0.0,0.0,-3.476,0.0,0.0,0.0,0.0,0.0,0.0,0.0,0.0,0.0,0.0,0.0,0.0,0.0,0.0,0.0,0.0,0.0,0.0,0.0,0.0,0.0,0.0,0.0,0.0,0.0,0.0,0.0,-4.0096,-4.0096,-4.0096,-4.0096,-4.0282,-4.0663,-4.0663,-4.1035,-4.1762,-4.1762,-4.2354,-4.3426,-4.4215,-4.4615,-4.4615,-4.4615,-4.4615,-4.4615,-4.4615,-4.4615,-4.4615,-4.4615,-4.4615,-4.4615,-4.4615,-4.4615,-4.4615,-4.4615,-4.4615,-4.4615,-4.4615,-4.484,-4.5365,-4.6464,-4.7073,-4.7614,-4.8697,-4.8688,-4.8338,-4.8338,-4.8015,-4.7655,-4.7655,-4.7982,-4.777,-4.5885,-4.5834,-4.5602,-4.3693,-4.3732,-4.3821,-4.2998,-4.3218,-4.3282,-4.265,-4.2161,-4.1767,-4.1452,-4.1085,-4.0876,-4.0876,-4.0277,-3.9888,-3.9888,-3.9568,-3.9388,-3.9388,-3.9388,-3.9388,-3.9388,-3.9388,-3.9388,-3.9388,-3.9388,-3.9388,-3.9388,-3.9388,-3.9388,-3.9388,-3.9388,-3.9388,-2.5532,0.0,-3.2534,-3.6845,-3.8316,0.0,0.0,0.0,0.0,0.0,0.0,0.0,0.0,0.0,0.0,0.0,0.0,0.0,0.0,0.0,0.0,0.0,0.0,0.0,0.0,0.0,0.0,0.0,0.0,0.0,-4.0096,-4.0096,-4.0096,-4.0096,-4.0096,-4.0096,-4.0096,-4.0096,-4.0417,-4.1018,-4.1136,-4.1847,-4.3037,-4.3961,-4.4479,-4.4615,-4.4615,-4.4615,-4.4587,-4.4457,-4.4384,-4.4355,-4.4224,-4.415,-4.415,-4.415,-4.4253,-4.4384,-4.4384,-4.4468,-4.4615,-4.4615,-4.4699,-4.5055,-4.638,-4.6887,-4.7229,-4.8411,-4.8193,-4.7556,-4.7406,-4.6781,-4.6208,-4.6208,-4.7389,-4.808,-4.6539,-4.6314,-4.5854,-4.3935,-4.3409,-4.329,-4.329,-4.329,-4.315,-4.265,-4.2575,-4.2327,-4.1788,-4.1662,-4.1587,-4.1587,-4.0965,-4.0561,-4.0561,-4.0068,-3.9768,-3.9768,-3.9768,-3.9709,-3.9589,-3.9553,-3.9529,-3.9388,-3.9388,-3.9388,-3.9388,-3.9388,-3.9388,-3.9388,-3.9388,-3.9388,0.0,0.0,-3.3542,0.0,-3.797,0.0,0.0,0.0,0.0,0.0,0.0,0.0,0.0,0.0,0.0,0.0,0.0,0.0,0.0,0.0,0.0,0.0,0.0,0.0,0.0,0.0,0.0,0.0,0.0,0.0,-4.0096,-4.0096,-4.0096,-4.0096,-4.0096,-4.0096,-4.0096,-4.0096,-4.0146,-4.0265,-4.0882,-4.1305,-4.1542,-4.2946,-4.3944,-4.4615,-4.4615,-4.4615,-4.4542,-4.3785,-4.3472,-4.3396,-4.2645,-4.2347,-4.2347,-4.2347,-4.2847,-4.3472,-4.3472,-4.3977,-4.4615,-4.4615,-4.5026,-4.5703,-4.6549,-4.7242,-4.7767,-4.7782,-4.7688,-4.7406,-4.6592,-4.6279,-4.6208,-4.6208,-4.6384,-4.6488,-4.6244,-4.685,-4.6866,-4.4968,-4.3888,-4.329,-4.329,-4.329,-4.326,-4.317,-4.317,-4.3125,-4.305,-4.2581,-4.2276,-4.2276,-4.1677,-4.1287,-4.1287,-4.1175,-4.1115,-4.1115,-4.1115,-4.0861,-4.0292,-4.0277,-3.9993,-3.9388,-3.9388,-3.9388,-3.9388,-3.9388,-3.9388,-3.9388,-3.9388,-3.9388,-2.5737,-2.9026,-3.2538,0.0,-3.6952,0.0,0.0,0.0,0.0,0.0,0.0,0.0,0.0,0.0,0.0,0.0,0.0,0.0,0.0,0.0,0.0,0.0,0.0,0.0,0.0,0.0,0.0,0.0,0.0,-4.0096,-4.0096,-4.0096,-4.0096,-4.0096,-4.0096,-4.0096,-4.0096,-4.0096,-4.0096,-4.0096,-4.0434,-4.0798,-4.1195,-4.1429,-4.2183,-4.3272,-4.3689,-4.3575,-4.3122,-4.2738,-4.2583,-4.252,-4.2157,-4.1997,-4.1997,-4.1997,-4.2252,-4.2583,-4.2583,-4.3139,-4.3873,-4.3873,-4.4699,-4.5838,-4.6583,-4.7327,-4.7872,-4.7669,-4.7239,-4.6609,-4.567,-4.4989,-4.4577,-4.4577,-4.5026,-4.5431,-4.5431,-4.6154,-4.6435,-4.5042,-4.4434,-4.3966,-4.3409,-4.329,-4.329,-4.329,-4.329,-4.329,-4.329,-4.309,-4.2895,-4.2895,-4.2327,-4.1976,-4.1976,-4.1632,-4.1422,-4.1422,-4.1422,-4.1287,-4.0965,-4.0591,-4.0262,-3.9978,-3.9604,-3.9388,-3.9388,-3.9388,-3.9388,-3.9388,-3.9388,-3.9388,0.0,0.0,-3.0548,-3.366,-3.5177,0.0,0.0,0.0,0.0,0.0,0.0,0.0,0.0,0.0,0.0,0.0,0.0,0.0,0.0,0.0,0.0,0.0,0.0,0.0,0.0,0.0,0.0,0.0,0.0,-4.0096,-4.0096,-4.0096,-4.0096,-4.0096,-4.0096,-4.0096,-4.0096,-4.0096,-4.0096,-4.0096,-3.9901,-4.0085,-4.0596,-4.0056,-4.0332,-4.1346,-4.229,-4.2452,-4.1997,-4.1772,-4.1674,-4.1642,-4.1412,-4.1346,-4.1346,-4.1346,-4.1478,-4.1674,-4.1674,-4.2221,-4.2986,-4.2986,-4.4175,-4.5749,-4.6316,-4.7278,-4.8107,-4.7719,-4.7104,-4.6279,-4.5132,-4.4259,-4.363,-4.3369,-4.3888,-4.4548,-4.5042,-4.5525,-4.5634,-4.4946,-4.4586,-4.4182,-4.3448,-4.329,-4.329,-4.329,-4.329,-4.329,-4.329,-4.329,-4.329,-4.329,-4.2895,-4.265,-4.265,-4.2162,-4.1878,-4.1878,-4.1878,-4.1803,-4.1677,-4.116,-4.0741,-4.0412,-3.9918,-3.9553,-3.9388,-3.9388,-3.9388,-3.9388,-3.9388,-3.9388,0.0,-2.5238,0.0,-3.0313,0.0,0.0,0.0,0.0,0.0,0.0,0.0,0.0,0.0,0.0,0.0,0.0,0.0,0.0,0.0,0.0,0.0,0.0,0.0,0.0,0.0,0.0,0.0,0.0,0.0,-4.0096,-4.0096,-4.0096,-4.0096,-4.0096,-4.0096,-4.0096,-4.0096,-4.0096,-4.0096,-4.0096,-3.9315,-3.8978,-3.9017,-3.8991,-3.8883,-3.8866,-4.0451,-4.1437,-4.1933,-4.1113,-4.0758,-4.069,-3.9864,-3.9553,-3.9553,-3.9553,-4.006,-4.0758,-4.0758,-4.1346,-4.2062,-4.2062,-4.3634,-4.5539,-4.5572,-4.7166,-4.8748,-4.7852,-4.7556,-4.7104,-4.5264,-4.4774,-4.4472,-4.3512,-4.3329,-4.3858,-4.571,-4.5468,-4.4849,-4.4812,-4.4043,-4.3369,-4.329,-4.329,-4.329,-4.329,-4.329,-4.329,-4.329,-4.329,-4.329,-4.329,-4.326,-4.3245,-4.3245,-4.3215,-4.3185,-4.3185,-4.3185,-4.2955,-4.2366,-4.2306,-4.1707,-4.0427,-4.0367,-4.0053,-3.9388,-3.9388,-3.9388,-3.9388,-3.9388,-3.9388,0.0,0.0,0.0,-2.8048,0.0,0.0,0.0,0.0,0.0,0.0,0.0,0.0,0.0,0.0,0.0,0.0,0.0,0.0,0.0,0.0,0.0,0.0,0.0,0.0,0.0,0.0,0.0,0.0,0.0,0.0,-4.0096,-4.0096,-4.0096,-4.0096,-4.0096,-4.0096,-4.0096,-4.0096,-3.9833,-3.9315,-3.9059,-3.8663,-3.8177,-3.7664,-3.7623,-3.7977,-3.8477,-3.9315,-4.0324,-3.999,-3.9864,-3.9829,-3.9502,-3.9388,-3.9388,-3.9388,-3.961,-3.9864,-3.9864,-4.0447,-4.1258,-4.168,-4.3059,-4.4673,-4.5109,-4.6154,-4.7122,-4.6815,-4.6696,-4.64,-4.5116,-4.4812,-4.4548,-4.3551,-4.329,-4.3512,-4.419,-4.5048,-4.5525,-4.4909,-4.451,-4.4066,-4.3409,-4.329,-4.329,-4.329,-4.329,-4.329,-4.329,-4.329,-4.329,-4.329,-4.329,-4.329,-4.329,-4.329,-4.329,-4.329,-4.329,-4.3185,-4.3,-4.262,-4.2171,-4.1707,-4.0831,-4.0083,-3.9388,-3.9388,-3.9388,-3.9388,-3.9388,-3.9388,-2.1325,0.0,0.0,0.0,0.0,0.0,0.0,0.0,0.0,0.0,0.0,0.0,0.0,0.0,0.0,0.0,0.0,0.0,0.0,0.0,0.0,0.0,0.0,0.0,0.0,0.0,0.0,0.0,0.0,0.0,-4.0096,-4.0096,-4.0096,-4.0096,-4.0096,-4.0096,-4.0096,-3.9833,-3.9437,-3.8881,-3.8398,-3.7889,-3.7368,-3.66,-3.6595,-3.7237,-3.7342,-3.8033,-3.9095,-3.9334,-3.9388,-3.9388,-3.9388,-3.9388,-3.9388,-3.9388,-3.9388,-3.9388,-3.9388,-3.9773,-4.0381,-4.1051,-4.2369,-4.3794,-4.4455,-4.5384,-4.6208,-4.6208,-4.6208,-4.5961,-4.5042,-4.4548,-4.4105,-4.3448,-4.329,-4.329,-4.329,-4.4327,-4.5048,-4.4434,-4.4297,-4.4066,-4.3409,-4.329,-4.329,-4.329,-4.329,-4.329,-4.329,-4.329,-4.329,-4.329,-4.329,-4.329,-4.329,-4.329,-4.329,-4.329,-4.329,-4.329,-4.329,-4.2925,-4.262,-4.2396,-4.1542,-4.0621,-3.9753,-3.9493,-3.9388,-3.9388,-3.9388,-3.9388,0.0,0.0,0.0,0.0,0.0,0.0,0.0,0.0,0.0,0.0,0.0,0.0,0.0,0.0,0.0,0.0,0.0,0.0,0.0,0.0,0.0,0.0,0.0,0.0,0.0,0.0,0.0,0.0,0.0,-4.0096,-4.007,-4.007,-4.0096,-4.0096,-4.0096,-4.0096,-4.0096,-3.9315,-3.8881,-3.8854,-3.7336,-3.6584,-3.6554,-3.5846,-3.5848,-3.6492,-3.7135,-3.7778,-3.8407,-3.9125,-3.9388,-3.9388,-3.9388,-3.9388,-3.9388,-3.9388,-3.9388,-3.9388,-3.9388,-3.9388,-3.9559,-4.0217,-4.1517,-4.2926,-4.3572,-4.4865,-4.6103,-4.6138,-4.6138,-4.5941,-4.5058,-4.4066,-4.329,-4.329,-4.329,-4.329,-4.329,-4.329,-4.329,-4.329,-4.329,-4.329,-4.329,-4.329,-4.329,-4.329,-4.329,-4.329,-4.329,-4.329,-4.329,-4.329,-4.329,-4.329,-4.329,-4.329,-4.329,-4.329,-4.329,-4.329,-4.329,-4.329,-4.303,-4.244,-4.241,-4.1767,-4.0427,-3.9768,-3.9403,-3.9388,-3.9388,-3.9388,-1.9708,0.0,0.0,0.0,0.0,0.0,0.0,0.0,0.0,0.0,0.0,0.0,0.0,0.0,0.0,0.0,0.0,0.0,0.0,0.0,0.0,0.0,0.0,0.0,0.0,0.0,0.0,0.0,-3.9782,-3.985,-3.9262,-3.9782,-4.0096,-4.0096,-4.0096,-4.0096,-4.0096,-3.9315,-3.8635,-3.8092,-3.7084,-3.6337,-3.5814,-3.5587,-3.5609,-3.5833,-3.6941,-3.7509,-3.7778,-3.8931,-3.9388,-3.9388,-3.9388,-3.9388,-3.9388,-3.9388,-3.9388,-3.9388,-3.9388,-3.9723,-4.0232,-4.0891,-4.1761,-4.2637,-4.3249,-4.376,-4.4266,-4.4968,-4.519,-4.5116,-4.4887,-4.4066,-4.329,-4.329,-4.329,-4.329,-4.329,-4.329,-4.329,-4.329,-4.329,-4.329,-4.329,-4.329,-4.329,-4.329,-4.329,-4.329,-4.329,-4.329,-4.329,-4.329,-4.329,-4.329,-4.329,-4.329,-4.329,-4.329,-4.329,-4.329,-4.329,-4.329,-4.32,-4.306,-4.2635,-4.1991,-4.1115,-4.0442,-3.9888,-3.9388,-3.9388,-3.9388,-2.0183,0.0,0.0,0.0,0.0,0.0,0.0,0.0,0.0,0.0,0.0,0.0,0.0,0.0,0.0,0.0,0.0,0.0,0.0,0.0,0.0,0.0,0.0,0.0,0.0,0.0,0.0,-3.8962,-3.9636,-3.9756,-3.8935,-3.9662,-3.9952,-3.961,-3.9927,-3.9927,-3.961,-3.8843,-3.8048,-3.7308,-3.6508,-3.5926,-3.5504,-3.5504,-3.5504,-3.5579,-3.6851,-3.7404,-3.7509,-3.8871,-3.9388,-3.9388,-3.9388,-3.9388,-3.9388,-3.9388,-3.9388,-3.9388,-3.9388,-3.9843,-4.0502,-4.1175,-4.1856,-4.2515,-4.3135,-4.329,-4.3409,-4.3989,-4.4182,-4.4182,-4.4182,-4.3732,-4.329,-4.329,-4.329,-4.329,-4.329,-4.329,-4.329,-4.329,-4.329,-4.329,-4.329,-4.329,-4.329,-4.329,-4.329,-4.329,-4.329,-4.329,-4.329,-4.329,-4.329,-4.329,-4.329,-4.329,-4.329,-4.329,-4.329,-4.329,-4.329,-4.329,-4.329,-4.329,-4.2955,-4.2312,-4.1422,-4.0726,-4.0068,-3.9388,-3.9388,-3.9388,-2.1111,-2.141,0.0,0.0,0.0,0.0,-2.5967,-2.557,0.0,0.0,0.0,0.0,0.0,0.0,0.0,0.0,0.0,0.0,0.0,0.0,0.0,0.0,0.0,0.0,0.0,-3.9969,-3.9636,-3.8827,-3.9437,-3.9584,-3.8935,-3.9662,-3.9731,-3.8935,-3.9584,-3.961,-3.8908,-3.8076,-3.7308,-3.6569,-3.5831,-3.5504,-3.5504,-3.5504,-3.5504,-3.5579,-3.6851,-3.7404,-3.7509,-3.8871,-3.9388,-3.9388,-3.9388,-3.9388,-3.9388,-3.9388,-3.9388,-3.9388,-3.9388,-3.9903,-4.0606,-4.1227,-4.1916,-4.262,-4.3125,-4.329,-4.329,-4.329,-4.329,-4.329,-4.329,-4.329,-4.329,-4.329,-4.329,-4.329,-4.329,-4.329,-4.329,-4.329,-4.329,-4.329,-4.329,-4.329,-4.329,-4.329,-4.329,-4.329,-4.329,-4.329,-4.329,-4.329,-4.329,-4.329,-4.329,-4.329,-4.329,-4.329,-4.329,-4.329,-4.329,-4.329,-4.329,-4.329,-4.3215,-4.2611,-4.1422,-4.0726,-4.0068,-3.9388,-3.9388,-3.9388,-2.2478,-2.2757,-2.3041,0.0,0.0,0.0,0.0,-2.2577,0.0,0.0,0.0,0.0,0.0,0.0,0.0,0.0,0.0,0.0,0.0,0.0,0.0,0.0,0.0,0.0,0.0,-3.9139,-3.8799,-3.8064,-3.8149,-3.8458,-3.8881,-3.9662,-3.9731,-3.8935,-3.9043,-3.9059,-3.8908,-3.7541,-3.6768,-3.6569,-3.5831,-3.5504,-3.5504,-3.5504,-3.5504,-3.5579,-3.6851,-3.7404,-3.7509,-3.8871,-3.9388,-3.9388,-3.9388,-3.9388,-3.9388,-3.9388,-3.9388,-3.9388,-3.9388,-4.0187,-4.1205,-4.1339,-4.2177,-4.3125,-4.3245,-4.329,-4.329,-4.329,-4.329,-4.329,-4.329,-4.329,-4.329,-4.329,-4.329,-4.329,-4.329,-4.329,-4.329,-4.329,-4.329,-4.329,-4.329,-4.329,-4.329,-4.329,-4.329,-4.329,-4.329,-4.329,-4.329,-4.329,-4.329,-4.329,-4.329,-4.329,-4.329,-4.329,-4.329,-4.329,-4.329,-4.329,-4.329,-4.329,-4.2821,-4.2201,-4.1422,-4.0726,-4.0068,-3.9388,-3.9388,-3.9388,-2.34,-2.361,-2.4044,-2.3729,0.0,0.0,0.0,0.0,0.0,0.0,0.0,0.0,0.0,0.0,0.0,0.0,0.0,0.0,0.0,0.0,0.0,0.0,0.0,0.0,0.0,-3.8504,-3.8745,-3.8386,-3.8007,-3.7806,-3.7758,-3.9236,-3.9385,-3.7815,-3.8509,-3.8536,-3.7758,-3.6978,-3.6415,-3.6054,-3.5668,-3.5504,-3.5504,-3.5504,-3.5504,-3.5579,-3.6851,-3.7404,-3.7509,-3.8871,-3.9388,-3.9388,-3.9388,-3.9388,-3.9388,-3.9388,-3.9388,-3.9433,-3.9798,-4.0561,-4.1467,-4.1796,-4.2536,-4.329,-4.329,-4.329,-4.329,-4.329,-4.329,-4.329,-4.329,-4.329,-4.329,-4.329,-4.329,-4.329,-4.329,-4.329,-4.329,-4.329,-4.329,-4.329,-4.329,-4.329,-4.329,-4.329,-4.329,-4.329,-4.329,-4.329,-4.329,-4.329,-4.329,-4.329,-4.329,-4.329,-4.329,-4.329,-4.329,-4.329,-4.329,-4.329,-4.329,-4.329,-4.3015,-4.2521,-4.1916,-4.1205,-4.0382,-3.9388,-3.9388,-3.9388,0.0,0.0,0.0,0.0,0.0,-2.4597,0.0,0.0,0.0,0.0,0.0,0.0,0.0,0.0,0.0,0.0,0.0,0.0,0.0,0.0,0.0,0.0,0.0,0.0,0.0,-3.7215,-3.8154,-3.8848,-3.7801,-3.6999,-3.6615,-3.869,-3.8951,-3.6904,-3.8032,-3.8088,-3.6843,-3.6538,-3.6086,-3.5504,-3.5504,-3.5504,-3.5504,-3.5504,-3.5504,-3.5579,-3.6851,-3.7404,-3.7509,-3.8871,-3.9388,-3.9388,-3.9388,-3.9388,-3.9388,-3.9388,-3.9388,-3.9514,-4.0172,-4.0831,-4.1527,-4.2186,-4.2806,-4.329,-4.329,-4.329,-4.329,-4.329,-4.329,-4.329,-4.329,-4.329,-4.329,-4.329,-4.329,-4.329,-4.329,-4.329,-4.329,-4.329,-4.329,-4.329,-4.329,-4.329,-4.329,-4.329,-4.329,-4.329,-4.329,-4.329,-4.329,-4.329,-4.329,-4.329,-4.329,-4.329,-4.329,-4.329,-4.329,-4.329,-4.329,-4.329,-4.329,-4.329,-4.329,-4.3015,-4.2396,-4.1871,-4.0891,-3.9604,-3.9448,-3.9388,0.0,0.0,0.0,0.0,-2.7275,0.0,0.0,0.0,0.0,0.0,0.0,0.0,0.0,0.0,0.0,0.0,0.0,0.0,0.0,0.0,0.0,0.0,0.0,0.0,0.0,0.0,-3.5447,-3.8656,-3.6341,-3.5319,-3.6537,-3.8157,-3.8608,-3.769,-3.7835,-3.7835,-3.7661,-3.6305,-3.5587,-3.5504,-3.5504,-3.5504,-3.5504,-3.5504,-3.5504,-3.5579,-3.6851,-3.7404,-3.7509,-3.8871,-3.9388,-3.9388,-3.9388,-3.9388,-3.9388,-3.9388,-3.9388,-3.9514,-4.0172,-4.0831,-4.1527,-4.2186,-4.2806,-4.329,-4.329,-4.329,-4.329,-4.329,-4.329,-4.329,-4.329,-4.329,-4.329,-4.329,-4.329,-4.329,-4.329,-4.329,-4.329,-4.329,-4.329,-4.329,-4.329,-4.329,-4.329,-4.329,-4.329,-4.329,-4.329,-4.329,-4.329,-4.329,-4.329,-4.329,-4.329,-4.329,-4.329,-4.329,-4.329,-4.329,-4.329,-4.329,-4.329,-4.329,-4.329,-4.3015,-4.2396,-4.2321,-4.1617,-4.0277,-3.9694,-3.9388,0.0,0.0,0.0,0.0,0.0,0.0,0.0,0.0,-2.2942,0.0,0.0,0.0,0.0,0.0,0.0,0.0,0.0,0.0,0.0,0.0,0.0,0.0,0.0,0.0,0.0,0.0,0.0,0.0,0.0,-3.3998,-3.5323,-3.7295,-3.7785,-3.6508,-3.7324,-3.7354,-3.6461,-3.5829,-3.5504,-3.5504,-3.5504,-3.5504,-3.5504,-3.5504,-3.5504,-3.5579,-3.6851,-3.7404,-3.7509,-3.8871,-3.9388,-3.9388,-3.9388,-3.9388,-3.9388,-3.9388,-3.9664,-4.0083,-4.0741,-4.1399,-4.2096,-4.2716,-4.3105,-4.329,-4.329,-4.329,-4.329,-4.329,-4.329,-4.329,-4.329,-4.329,-4.329,-4.329,-4.329,-4.329,-4.329,-4.329,-4.329,-4.329,-4.329,-4.329,-4.329,-4.329,-4.329,-4.329,-4.329,-4.329,-4.329,-4.329,-4.329,-4.329,-4.329,-4.329,-4.329,-4.329,-4.329,-4.329,-4.329,-4.329,-4.329,-4.329,-4.329,-4.329,-4.329,-4.317,-4.2925,-4.259,-4.2111,-4.1504,-4.0472,-3.9783,-2.9894,0.0,0.0,0.0,0.0,0.0,0.0,0.0,0.0,0.0,0.0,0.0,0.0,0.0,0.0,0.0,0.0,0.0,0.0,0.0,0.0,0.0,0.0,0.0,0.0,0.0,0.0,0.0,0.0,0.0,-3.44,-3.6295,-3.6858,-3.5847,-3.6874,-3.6935,-3.5814,-3.5619,-3.5504,-3.5504,-3.5504,-3.5504,-3.5504,-3.5504,-3.5609,-3.5833,-3.6941,-3.7509,-3.7764,-3.8931,-3.9388,-3.9388,-3.9388,-3.9388,-3.9388,-3.9388,-3.9828,-4.0502,-4.1145,-4.1961,-4.2701,-4.314,-4.329,-4.329,-4.329,-4.329,-4.329,-4.329,-4.329,-4.329,-4.329,-4.329,-4.329,-4.329,-4.329,-4.329,-4.329,-4.329,-4.329,-4.329,-4.329,-4.329,-4.329,-4.329,-4.329,-4.329,-4.329,-4.329,-4.329,-4.329,-4.329,-4.329,-4.329,-4.329,-4.329,-4.329,-4.329,-4.329,-4.329,-4.329,-4.329,-4.329,-4.329,-4.329,-4.329,-4.329,-4.329,-4.2865,-4.2575,-4.2366,-4.101,-4.0142,0.0,0.0,0.0,-2.8588,0.0,0.0,0.0,0.0,-2.5307,0.0,0.0,0.0,0.0,0.0,0.0,0.0,0.0,0.0,0.0,0.0,0.0,0.0,0.0,0.0,0.0,0.0,0.0,0.0,0.0,0.0,-3.4325,-3.5262,-3.5962,-3.6553,-3.6615,-3.66,-3.6584,-3.5863,-3.5504,-3.5504,-3.5504,-3.5504,-3.5504,-3.5504,-3.5848,-3.6492,-3.7135,-3.7764,-3.8407,-3.9125,-3.9388,-3.9388,-3.9388,-3.9388,-3.9388,-3.9388,-3.9828,-4.0502,-4.1145,-4.2222,-4.326,-4.329,-4.329,-4.329,-4.329,-4.329,-4.329,-4.329,-4.329,-4.329,-4.329,-4.329,-4.329,-4.329,-4.329,-4.329,-4.329,-4.329,-4.329,-4.329,-4.329,-4.329,-4.329,-4.329,-4.329,-4.329,-4.329,-4.329,-4.329,-4.329,-4.329,-4.329,-4.329,-4.329,-4.329,-4.329,-4.329,-4.329,-4.329,-4.329,-4.329,-4.329,-4.329,-4.329,-4.329,-4.329,-4.329,-4.3275,-4.297,-4.2366,-4.101,-4.0382,0.0,0.0,-3.3395,-3.0283,0.0,0.0,0.0,0.0,0.0,0.0,0.0,0.0,0.0,0.0,0.0,0.0,0.0,0.0,0.0,0.0,0.0,0.0,0.0,0.0,0.0,0.0,0.0,0.0,-2.9277,0.0,0.0,-3.4359,-3.5075,-3.5214,-3.6122,-3.6368,-3.5863,-3.5619,-3.5504,-3.5504,-3.5504,-3.5504,-3.5519,-3.5953,-3.6282,-3.6552,-3.7599,-3.8182,-3.8437,-3.9125,-3.9388,-3.9388,-3.9388,-3.9388,-3.9388,-3.9388,-4.0113,-4.1205,-4.2297,-4.2931,-4.329,-4.329,-4.329,-4.329,-4.329,-4.329,-4.329,-4.329,-4.329,-4.329,-4.329,-4.329,-4.329,-4.329,-4.329,-4.329,-4.329,-4.329,-4.3424,-4.3898,-4.3947,-4.3947,-4.3947,-4.3947,-4.3798,-4.3364,-4.329,-4.329,-4.329,-4.329,-4.329,-4.329,-4.329,-4.329,-4.329,-4.329,-4.329,-4.329,-4.329,-4.329,-4.329,-4.329,-4.329,-4.329,-4.329,-4.329,-4.329,-4.329,-4.3185,-4.2985,-4.2102,-4.1235,-3.3903,-3.4189,0.0,-3.148,-3.0567,0.0,-2.6667,0.0,0.0,0.0,0.0,0.0,0.0,0.0,0.0,0.0,0.0,0.0,0.0,0.0,0.0,0.0,0.0,0.0,0.0,0.0,-2.6072,-2.8083,-2.7799,0.0,0.0,0.0,-3.4105,-3.4488,-3.561,-3.5975,-3.5504,-3.5504,-3.5504,-3.5504,-3.5504,-3.5504,-3.5534,-3.6193,-3.6611,-3.6866,-3.7928,-3.8527,-3.8796,-3.923,-3.9388,-3.9388,-3.9388,-3.9388,-3.9454,-3.9679,-4.0591,-4.1878,-4.2955,-4.329,-4.329,-4.329,-4.329,-4.329,-4.329,-4.329,-4.329,-4.329,-4.329,-4.329,-4.329,-4.329,-4.329,-4.329,-4.329,-4.3364,-4.3589,-4.3648,-4.3828,-4.4541,-4.4661,-4.4661,-4.4661,-4.4661,-4.4362,-4.3424,-4.329,-4.329,-4.329,-4.329,-4.329,-4.329,-4.329,-4.329,-4.329,-4.329,-4.329,-4.329,-4.329,-4.329,-4.329,-4.329,-4.329,-4.329,-4.329,-4.329,-4.329,-4.329,-4.329,-4.329,-4.2895,-4.1998]},{"header":{"parameterUnit":"m.s-1","parameterCategory":1,"la1":30.6,"la2":29.2853,"lo1":-89.7004,"lo2":-87.6739,"dy":0.0162,"dx":0.0183,"nx":112,"ny":82,"refTime":"2026-03-05T00:00:00:Z","depth":0,"parameterNumber":3,"parameterNumberName":"V-component_of_WINDS"},"data":[0.0,0.0,0.0,0.0,0.0,0.0,0.0,0.0,0.0,0.0,0.0,0.0,0.0,0.0,0.0,0.0,0.0,0.0,0.0,0.0,0.0,0.0,0.0,0.0,0.0,0.0,0.0,0.0,0.0,0.0,0.0,0.0,0.0,0.0,0.0,0.0,0.0,0.0,0.0,0.0,0.0,0.0,0.0,0.0,0.0,0.0,0.0,0.0,0.0,0.0,0.0,0.0,0.0,0.0,0.0,0.0,0.0,0.0,0.0,0.0,0.0,0.0,0.0,0.0,0.0,0.0,0.0,0.0,0.0,0.0,0.0,0.0,0.0,0.0,0.0,0.0,0.0,0.0,0.0,0.0,0.0,0.0,0.0,0.0,0.0,0.0,0.0,0.0,0.0,0.0,0.0,1.1191,1.2217,1.2905,1.2905,1.3372,1.3068,1.1699,0.0,0.0,0.0,0.0,0.0,0.0,0.0,0.0,0.0,0.0,0.0,0.0,0.0,0.0,0.0,0.0,0.0,0.0,0.0,0.0,0.0,0.0,0.0,0.0,0.0,0.0,0.0,0.0,0.0,0.0,0.0,0.0,0.0,0.0,0.0,0.0,0.0,0.0,0.0,0.0,0.0,0.0,0.0,0.0,0.0,0.0,0.0,0.0,0.0,0.0,0.0,0.0,0.0,0.0,0.0,0.0,0.0,0.0,0.0,0.0,0.0,0.0,0.0,0.0,0.0,0.0,0.0,0.0,0.0,0.0,0.0,0.0,0.0,0.0,0.0,0.0,0.0,0.0,0.0,0.0,0.0,0.0,0.0,0.0,0.0,0.0,0.0,0.0,0.0,0.0,0.0,0.0,0.0,0.0,0.0,0.0,0.0,0.0,0.0,0.0,0.0,0.0,0.0,0.0,1.0968,1.2445,1.2788,1.2905,1.2905,1.2968,1.2641,1.1655,0.0,0.0,0.0,0.0,0.0,0.0,0.0,0.0,0.0,0.0,0.0,0.0,0.0,0.0,0.0,0.0,0.0,0.0,0.0,0.0,0.0,0.0,0.0,0.0,0.0,0.0,0.0,0.0,0.0,0.0,0.0,0.0,0.0,0.0,0.0,0.0,0.0,0.0,0.0,0.0,0.0,0.0,0.0,0.0,0.0,0.0,0.0,0.0,0.0,0.0,0.0,0.0,0.0,0.0,0.0,0.0,0.0,0.0,0.0,0.0,0.0,0.0,0.0,0.0,0.0,0.0,0.0,0.0,0.0,0.0,0.0,0.0,0.0,0.0,0.0,0.0,0.0,0.0,0.0,0.0,0.0,0.0,0.0,0.0,0.0,0.0,0.0,0.0,0.0,0.0,0.0,0.0,0.0,0.0,0.0,0.0,0.0,0.0,0.0,0.0,0.0,0.0,0.0,1.0645,1.1201,1.2749,1.2905,1.2905,1.2905,1.3501,1.3217,1.1699,1.166,0.0,0.0,0.0,0.0,0.0,0.0,0.0,0.0,0.0,0.0,0.0,0.0,0.0,0.0,0.0,0.0,0.0,0.0,0.0,0.0,0.0,0.0,0.0,0.0,0.0,0.0,0.0,0.0,0.0,0.0,0.0,0.0,0.0,0.0,0.0,0.0,0.0,0.0,0.0,0.0,0.0,0.0,0.0,0.0,0.0,0.0,0.0,0.0,0.0,0.0,0.0,0.0,0.0,0.0,0.0,0.0,0.0,0.0,0.0,0.0,0.0,0.0,0.0,0.0,0.0,0.0,0.0,0.0,0.0,0.0,0.0,0.0,0.0,0.0,0.0,0.0,0.0,0.0,0.0,0.0,0.0,0.0,0.0,0.0,0.0,0.0,0.0,0.0,0.0,0.0,0.0,0.0,0.0,0.0,0.0,0.0,0.0,0.0,0.0,0.0,0.0,0.0,1.1349,1.1758,1.2798,1.2905,1.2905,1.2905,1.3648,1.3446,1.1854,1.1602,0.0,0.0,0.0,0.0,0.0,0.0,0.0,0.0,0.0,0.0,0.0,0.0,0.0,0.0,0.0,0.0,0.0,0.0,0.0,0.0,0.0,0.0,0.0,0.0,0.0,0.0,0.0,0.0,0.0,0.0,0.0,0.0,0.0,0.0,0.0,0.0,0.0,0.0,0.0,0.0,0.0,0.0,0.0,0.0,0.0,0.0,0.0,0.0,0.0,0.0,0.0,0.0,0.0,0.0,0.0,0.0,0.0,0.0,0.0,0.0,0.0,0.0,0.0,0.0,0.0,0.0,0.0,0.0,0.0,0.0,0.0,0.0,0.0,0.0,0.0,0.0,0.0,0.0,0.0,0.0,0.0,0.0,0.0,0.0,0.0,0.0,0.0,0.0,0.0,0.0,0.0,0.0,0.0,0.0,0.0,0.0,0.0,0.0,0.0,0.0,0.0,0.0,1.178,1.2798,1.2895,1.2905,1.2905,1.2905,1.2581,1.2346,1.2254,1.0682,0.0,0.0,0.0,0.0,0.0,0.0,0.0,0.0,0.0,0.0,0.0,0.0,0.0,0.0,0.0,0.0,0.0,0.0,0.0,0.0,0.0,0.0,0.0,0.0,0.0,0.0,0.0,0.0,0.0,0.0,0.0,0.0,0.0,0.0,0.0,0.0,0.0,0.0,0.0,0.0,0.0,0.0,0.0,0.0,0.0,0.0,0.0,0.0,0.0,0.0,0.0,0.0,0.0,0.0,0.0,0.0,0.0,0.0,0.0,0.0,0.0,0.0,0.0,0.0,0.0,0.0,0.0,0.0,0.0,0.0,0.0,0.0,0.0,0.0,0.0,0.0,0.0,0.0,0.0,0.0,0.0,0.0,0.0,0.0,0.0,0.0,0.0,0.0,0.0,0.0,0.0,0.0,0.0,0.0,0.0,0.0,0.0,0.0,0.0,0.0,0.0,0.0,1.1506,1.2289,0.0,1.3238,1.3457,1.3457,1.4005,1.3784,1.251,0.0,0.0,0.0,0.0,0.0,0.0,0.0,0.0,0.0,0.0,0.0,0.0,0.0,0.0,0.0,0.0,0.0,0.0,0.0,0.0,0.0,0.0,0.0,0.0,0.0,0.0,0.0,0.0,0.0,0.0,0.0,0.0,0.0,0.0,0.0,0.0,0.0,0.0,0.0,0.0,0.0,0.0,0.0,0.0,0.0,0.0,0.0,0.0,0.0,0.0,0.0,0.0,0.0,0.0,0.0,0.0,0.0,0.0,0.0,0.0,0.0,0.0,0.0,0.0,0.0,0.0,0.0,0.0,0.0,0.0,0.0,0.0,0.0,0.0,0.0,0.0,0.0,0.0,0.0,0.0,0.0,0.0,0.0,0.0,0.0,0.0,0.0,0.0,0.0,0.0,0.0,0.0,0.0,0.0,0.0,0.0,0.0,0.0,0.0,0.0,0.0,0.0,1.0761,1.1555,1.223,0.0,1.3262,1.36,1.3768,1.4428,1.4157,1.2632,0.0,0.0,0.0,0.0,0.0,0.0,0.0,0.0,0.0,0.0,0.0,0.0,0.0,0.0,0.0,0.0,0.0,0.0,0.0,0.0,0.0,0.0,0.0,0.0,0.0,0.0,0.0,0.0,0.0,0.0,0.0,0.0,0.0,0.0,0.0,0.0,0.0,0.0,0.0,0.0,0.0,0.0,0.0,0.0,0.0,0.0,0.0,0.0,0.0,0.0,0.0,0.0,0.0,0.0,0.0,0.0,0.0,0.0,0.0,0.0,0.0,0.0,0.0,0.0,0.0,0.0,0.0,0.0,0.0,0.0,0.0,0.0,0.0,0.0,0.0,0.0,0.0,0.0,0.0,0.0,0.0,0.0,0.0,0.0,0.0,0.0,0.0,0.0,0.0,0.0,0.0,0.0,0.0,0.0,0.0,0.0,0.0,0.0,0.0,0.0,0.0,0.0,1.0839,1.207,1.2905,1.2905,1.2905,1.3152,1.3755,1.3394,1.299,0.0,0.0,0.0,0.0,0.0,0.0,0.0,0.0,0.0,0.0,0.0,0.0,0.0,0.0,0.0,0.0,0.0,0.0,0.0,0.0,0.0,0.0,0.0,0.0,0.0,0.0,0.0,0.0,0.0,0.0,0.0,0.0,0.0,0.0,0.0,0.0,0.0,0.0,0.0,0.0,0.0,0.0,0.0,0.0,0.0,0.0,0.0,0.0,0.0,0.0,0.0,0.0,0.0,0.0,0.0,0.0,0.0,0.0,0.0,0.0,0.0,0.0,0.0,0.0,0.0,0.0,0.0,0.0,0.0,0.0,0.0,0.0,0.0,0.0,0.0,0.0,0.0,0.0,0.0,0.0,0.0,0.0,0.0,0.0,0.0,0.0,0.0,0.0,0.0,0.0,0.0,0.0,0.0,0.0,0.0,0.0,0.0,0.0,0.0,0.0,0.0,0.0,0.0,1.1261,1.2279,1.2905,1.2905,1.3286,1.3789,1.4376,1.471,1.4354,1.3173,0.0,0.0,0.0,0.0,0.0,0.0,0.0,0.0,0.0,0.0,0.0,0.0,0.0,0.0,0.0,0.0,0.0,0.0,0.0,0.0,0.0,0.0,0.0,0.0,0.0,0.0,0.0,0.0,0.0,0.0,0.0,0.0,0.0,0.0,0.0,0.0,0.0,0.0,0.0,0.0,0.0,0.0,0.0,0.0,0.0,0.0,0.0,0.0,0.0,0.0,0.0,0.0,0.0,0.0,0.0,0.0,0.0,0.0,0.0,0.0,0.0,0.0,0.0,0.0,0.0,0.0,0.0,0.0,0.0,0.0,0.0,0.0,0.0,0.0,0.0,0.0,0.0,0.0,0.0,0.0,0.0,0.0,0.0,0.0,0.0,0.0,0.0,0.0,0.0,0.0,0.0,0.0,0.0,0.0,0.0,0.0,0.0,0.0,0.0,0.0,0.0,0.0,1.1459,1.2357,1.2992,1.3238,1.3576,1.4143,1.4983,1.5387,1.4964,1.3471,0.0,0.0,0.0,0.0,0.0,0.0,0.0,0.0,0.0,0.0,0.0,0.0,0.0,0.0,0.0,0.0,0.0,0.0,0.0,0.0,0.0,0.0,0.0,0.0,0.0,0.0,0.0,0.0,0.0,0.0,0.0,0.0,0.0,0.0,0.0,0.0,0.0,0.0,0.0,0.0,0.0,0.0,0.0,0.0,0.0,0.0,0.0,0.0,0.0,0.0,0.0,0.0,0.0,0.0,0.0,0.0,0.0,0.0,0.0,0.0,0.0,0.0,0.0,0.0,0.0,0.0,0.0,0.0,0.0,0.0,0.0,0.0,0.0,0.0,0.0,0.0,0.0,0.0,0.0,0.0,0.0,0.0,0.0,0.0,0.0,0.0,0.0,0.0,0.0,0.0,0.0,0.0,0.0,0.0,0.0,0.0,0.0,0.0,0.0,0.0,0.0,0.0,1.1575,1.2487,1.3272,1.3826,1.3886,1.4342,1.5499,1.561,1.5052,1.372,0.0,0.0,0.0,0.0,0.0,0.0,0.0,0.0,0.0,0.0,0.0,0.0,0.0,0.0,0.0,0.0,0.0,0.0,0.0,0.0,0.0,0.0,0.0,0.0,0.0,0.0,0.0,0.0,0.0,0.0,0.0,0.0,0.0,0.0,0.0,0.0,0.0,0.0,0.0,0.0,0.0,0.0,0.0,0.0,0.0,0.0,0.0,0.0,0.0,0.0,0.0,0.0,0.0,0.0,0.0,0.0,0.0,0.0,0.0,0.0,1.2515,0.0,0.0,0.0,0.0,0.0,0.0,0.0,0.0,0.0,0.0,0.0,0.0,0.0,0.0,0.0,0.0,0.0,0.0,0.0,0.0,0.0,0.0,0.0,0.0,0.0,0.0,0.0,0.0,0.0,0.0,0.0,0.0,0.0,0.0,0.0,0.0,0.0,0.0,0.0,0.0,0.0,1.2152,1.3472,1.4363,1.4491,1.4514,1.4801,1.5543,1.561,1.5314,1.4649,0.0,0.0,0.0,0.0,0.0,0.0,0.0,0.0,0.0,0.0,0.0,0.0,0.0,0.0,0.0,0.0,0.0,0.0,0.0,0.0,0.0,0.0,0.0,0.0,0.0,0.0,0.0,0.0,0.0,0.0,0.0,0.0,0.0,0.0,0.0,0.0,0.0,0.0,0.0,0.0,0.0,0.0,0.0,0.0,0.0,0.0,0.0,0.0,0.0,0.0,0.0,0.0,0.0,0.0,0.0,0.0,0.0,0.0,0.0,0.0,0.0,1.3536,0.0,0.0,0.0,0.0,0.0,0.0,0.0,0.0,0.0,0.0,0.0,0.0,0.0,0.0,0.0,0.0,0.0,0.0,0.0,0.0,0.0,0.0,0.0,0.0,0.0,0.0,0.0,0.0,0.0,0.0,0.0,0.0,0.0,0.0,0.0,0.0,0.0,0.0,0.0,0.0,1.1919,1.3359,1.4376,1.4675,1.4971,1.5377,1.5986,1.603,1.5816,1.5316,1.4076,0.0,0.0,0.0,0.0,0.0,0.0,0.0,0.0,0.0,0.0,0.0,0.0,0.0,0.0,0.0,0.0,0.0,0.0,0.0,0.0,0.0,0.0,0.0,0.0,0.0,0.0,0.0,0.0,0.0,0.0,0.0,0.0,0.0,0.0,0.0,0.0,0.0,0.0,0.0,0.0,0.0,0.0,0.0,0.0,0.0,0.0,0.0,0.0,0.0,0.0,0.0,0.0,0.0,1.6486,1.6934,1.7252,1.733,1.7369,1.7311,1.626,1.5847,1.5853,0.0,0.0,0.0,0.0,0.0,0.0,0.0,0.0,0.0,0.0,0.0,0.0,0.0,0.0,0.0,0.0,0.0,0.0,0.0,0.0,0.0,0.0,0.0,0.0,0.0,1.562,1.5201,0.0,0.0,0.0,0.0,0.0,0.0,0.0,0.0,0.0,0.0,0.0,0.0,1.2186,1.3552,1.4646,1.5257,1.5677,1.6132,1.6616,1.655,1.63,1.5869,1.5248,1.428,0.0,0.0,0.0,0.0,0.0,0.0,0.0,0.0,0.0,0.0,0.0,0.0,0.0,0.0,0.0,0.0,0.0,0.0,0.0,0.0,0.0,0.0,0.0,0.0,0.0,0.0,0.0,0.0,0.0,0.0,0.0,0.0,1.2135,1.267,0.0,0.0,0.0,0.0,0.0,0.0,0.0,0.0,0.0,0.0,0.0,0.0,0.0,0.0,1.6268,1.7158,1.7607,1.7686,1.8848,1.9434,1.9512,1.9893,2.0096,2.0087,1.9911,0.0,1.6059,1.589,0.0,0.0,0.0,0.0,0.0,0.0,0.0,0.0,0.0,0.0,0.0,0.0,0.0,0.0,0.0,0.0,0.0,0.0,0.0,0.0,0.0,0.0,1.6955,1.6009,1.6413,1.6676,0.0,1.414,1.2832,1.1725,0.0,0.0,0.0,0.0,0.0,0.0,0.0,0.0,1.5,1.6237,1.7129,1.7681,1.7378,1.7195,1.7262,1.681,1.6463,1.6387,1.5462,1.4796,1.4582,1.2659,0.0,0.0,0.0,0.0,0.0,0.0,0.0,0.0,0.0,0.0,0.0,0.0,0.0,0.0,0.0,0.0,0.0,0.0,0.0,0.0,0.0,0.0,0.0,0.0,0.0,0.0,0.0,0.0,0.0,1.2135,1.3018,1.3213,1.3246,1.3071,0.0,0.0,0.0,0.0,0.0,0.0,0.0,0.0,0.0,1.6562,1.7002,1.7613,1.8481,1.9131,1.957,1.9796,2.0352,2.0781,2.1025,2.1221,2.1349,2.1349,2.1349,2.042,1.8896,1.791,1.7169,1.654,0.0,0.0,0.0,0.0,1.5244,1.582,1.7814,1.8136,0.0,0.0,0.0,0.0,0.0,0.0,0.0,0.0,0.0,0.0,0.0,0.0,0.0,1.8396,1.8975,1.9299,1.8137,1.7441,1.636,0.0,1.285,1.1932,1.0558,0.0,0.0,0.0,0.0,0.0,1.4643,1.6278,1.7421,1.7665,1.779,1.7714,1.7436,1.7149,1.6861,1.6513,1.607,1.5655,1.5361,1.413,1.2847,0.0,0.0,0.0,0.0,0.0,0.0,0.0,0.0,0.0,0.0,0.0,0.0,0.0,0.0,0.0,0.0,0.0,0.0,0.0,0.0,0.0,0.0,0.0,0.0,0.0,0.0,0.0,0.0,1.3227,1.3906,1.3665,1.4309,1.427,0.0,0.0,0.0,0.0,0.0,0.0,1.6525,1.6692,1.7314,1.8623,1.9046,1.9621,2.041,2.0781,2.1123,2.1522,2.1522,2.1787,2.2207,2.2207,2.2207,2.2207,2.2207,2.1963,2.1435,2.0093,1.9099,1.8415,1.7802,1.7042,1.6467,1.7407,1.7644,1.7822,2.0489,2.0921,2.0465,2.1206,0.0,1.8857,1.7659,0.0,0.0,0.0,0.0,1.7419,1.9175,1.9657,1.9713,1.9736,2.0585,2.1007,1.9759,1.9885,1.9258,0.0,1.4733,1.3735,1.1876,0.0,0.0,0.0,0.0,1.3852,1.4618,1.6326,1.7505,1.7636,1.8105,1.8242,1.784,1.7574,1.72,1.6773,1.6597,1.6312,1.5919,1.5399,1.4456,1.3069,0.0,0.0,0.0,0.0,0.0,0.0,0.0,0.0,0.0,0.0,0.0,0.0,0.0,0.0,0.0,0.0,0.0,0.0,0.0,0.0,0.0,0.0,0.0,0.0,0.0,0.0,0.0,0.0,0.0,1.4172,1.5556,0.0,0.0,0.0,0.0,1.5968,1.6348,1.695,1.7871,1.8256,1.9102,2.0439,2.0869,2.1288,2.1777,2.1807,2.2031,2.2451,2.2451,2.2676,2.3033,2.3033,2.3033,2.3033,2.3033,2.2789,2.2428,2.2144,2.134,2.0334,2.1186,2.0435,1.9053,2.0243,2.0867,2.1151,2.1351,2.2442,2.3691,2.3311,2.2293,2.1228,2.115,1.9592,0.0,0.0,1.8616,1.855,1.9237,1.9557,1.9514,1.8754,1.9837,2.077,1.9884,2.0611,2.0508,0.0,1.7006,1.629,1.3791,0.0,1.4331,1.4223,1.4286,1.4903,1.645,1.7372,1.8059,1.8584,1.883,1.8958,1.892,1.799,1.7398,1.736,1.6823,1.6488,1.645,1.5944,1.5387,1.4783,1.3127,0.0,0.0,0.0,0.0,0.0,0.0,0.0,0.0,0.0,0.0,0.0,0.0,0.0,0.0,0.0,0.0,0.0,0.0,0.0,0.0,0.0,0.0,0.0,0.0,0.0,0.0,0.0,0.0,1.623,1.7012,0.0,1.6523,1.6982,1.7422,1.7695,1.8379,1.9124,2.0001,2.0186,2.0732,2.1787,2.1973,2.2223,2.2685,2.2652,2.2721,2.2877,2.2877,2.2955,2.3091,2.3091,2.3091,2.3091,2.3091,2.3013,2.2957,2.3619,2.2711,2.0961,2.1285,2.0863,2.0139,2.0828,2.1192,2.1405,2.2306,2.2637,2.2677,2.2743,2.2906,2.2997,2.2595,2.1488,2.051,2.1062,2.0692,2.0238,2.085,2.1059,2.082,1.9651,2.0303,2.082,1.9684,1.9918,2.0044,1.9046,1.8581,1.7808,1.6148,1.5818,1.5634,1.5291,1.5714,1.6269,1.686,1.781,1.8328,1.802,1.8481,1.8478,1.7643,1.7361,1.7049,1.6712,1.6559,1.65,1.65,1.6333,1.5969,1.5437,1.4494,1.3073,0.0,0.0,0.0,0.0,0.0,0.0,0.0,0.0,0.0,0.0,0.0,0.0,0.0,0.0,0.0,0.0,0.0,0.0,0.0,0.0,0.0,0.0,0.0,0.0,0.0,0.0,1.7399,1.7578,1.8486,1.8818,1.8096,1.8672,1.9173,1.9455,2.0176,2.0898,2.158,2.1629,2.1992,2.2705,2.2682,2.2818,2.3091,2.3091,2.3091,2.3091,2.3091,2.3091,2.3091,2.3091,2.3091,2.3091,2.3091,2.3091,2.3178,2.392,2.3287,2.1897,2.2453,2.201,2.1164,2.2059,2.221,2.209,2.3337,2.3435,2.3005,2.3421,2.4135,2.472,2.4142,2.338,2.2834,2.3184,2.2561,2.1856,2.1923,2.1978,2.1694,2.0493,2.0854,2.1185,2.0225,2.0117,2.0277,2.0537,1.968,1.8704,1.803,1.7332,1.674,1.6325,1.6718,1.7,1.6862,1.7917,1.8501,1.8004,1.8635,1.873,1.7888,1.7598,1.7327,1.6954,1.6658,1.65,1.65,1.65,1.6325,1.5982,1.5273,1.3991,1.214,0.0,0.0,0.0,0.0,0.0,0.0,0.0,0.0,0.0,0.0,0.0,0.0,0.0,0.0,0.0,0.0,0.0,0.0,0.0,0.0,0.0,0.0,0.0,1.5488,1.7291,1.851,1.8174,1.9943,2.0722,1.9512,2.0537,2.1239,2.1239,2.168,2.21,2.251,2.2529,2.2715,2.3081,2.3091,2.3091,2.3091,2.3091,2.3091,2.3091,2.3091,2.3091,2.3091,2.3091,2.3091,2.3091,2.3091,2.3091,2.3091,2.3091,2.3091,2.326,2.4873,2.4068,2.2162,2.4054,2.4122,2.3444,2.4377,2.4809,2.5015,2.5399,2.5936,2.6333,2.5736,2.5178,2.4721,2.4721,2.4082,2.3169,2.2229,2.2057,2.193,2.0988,2.1387,2.1821,2.142,2.123,2.1283,2.1745,2.0228,1.9007,1.9335,1.8564,1.7786,1.7541,1.7341,0.0,1.6594,1.7781,1.8673,1.8661,1.9307,1.9721,1.9721,1.8746,1.8133,1.8157,1.7127,1.65,1.65,1.65,1.65,1.65,1.5449,1.4356,1.3223,0.0,0.0,0.0,0.0,0.0,0.0,0.0,0.0,0.0,0.0,0.0,0.0,0.0,0.0,0.0,0.0,0.0,0.0,0.0,0.0,0.0,0.0,1.7295,1.7295,1.8603,1.9873,2.0723,2.1348,2.168,2.1631,2.1953,2.2116,2.2116,2.2516,2.2799,2.2916,2.2925,2.2974,2.3091,2.3091,2.3091,2.3091,2.3091,2.3091,2.3091,2.3091,2.3091,2.3091,2.3091,2.3091,2.3091,2.3091,2.3091,2.3091,2.3091,2.3091,2.3169,2.3627,2.3388,2.2836,2.3353,2.3396,2.3143,2.3118,2.3619,2.423,2.4007,2.4525,2.524,2.5053,2.4216,2.3279,2.3279,2.2371,2.1335,2.1046,2.1008,2.09,2.0289,2.031,2.0362,1.9961,1.987,1.9939,2.0373,1.9481,1.9282,2.1146,2.0399,1.9528,1.9448,1.8406,0.0,1.7781,1.8171,1.8277,1.7941,1.8085,1.8194,1.8194,1.7229,1.6825,0.0,1.6821,1.65,1.65,1.65,1.65,1.65,1.5449,1.4544,0.0,0.0,0.0,0.0,0.0,0.0,0.0,0.0,0.0,0.0,0.0,0.0,0.0,0.0,0.0,0.0,0.0,0.0,0.0,0.0,0.0,0.0,1.7637,1.9004,1.9551,2.0273,2.1094,2.2041,2.2305,2.251,2.2711,2.273,2.273,2.273,2.2955,2.3091,2.3091,2.3091,2.3091,2.3091,2.3091,2.3091,2.3091,2.3091,2.3091,2.3091,2.3091,2.3091,2.3091,2.3091,2.3091,0.0,2.3091,2.3091,2.3091,2.3091,2.3091,0.0,0.0,0.0,0.0,0.0,2.3091,2.3062,2.2818,2.3438,2.4336,2.429,2.4968,2.5799,2.5565,2.4946,2.4183,2.3708,2.2882,2.1997,2.1582,2.1977,2.2275,2.1553,2.1416,2.1402,2.14,2.0741,2.0303,2.0685,0.0,0.0,2.16,2.0414,1.9342,1.9497,1.8723,1.8101,1.8105,1.8686,1.9006,1.8736,1.8822,1.8896,1.8896,1.789,0.0,0.0,0.0,1.6773,1.65,1.65,0.0,0.0,0.0,0.0,0.0,0.0,0.0,0.0,1.3228,1.2918,0.0,0.0,0.0,0.0,0.0,0.0,0.0,0.0,0.0,0.0,0.0,0.0,0.0,0.0,0.0,0.0,1.9268,2.0566,2.1787,2.2002,2.2168,2.2539,2.2867,2.3091,2.3091,2.3091,2.3091,2.3091,2.3091,2.3091,2.3091,0.0,0.0,0.0,0.0,2.3091,2.3091,2.3091,2.3091,2.3091,2.3091,2.3091,2.3091,2.3091,2.3091,2.3091,2.3091,2.3091,2.3091,2.3091,2.3091,2.3091,2.3091,2.3091,2.3091,2.3091,2.3091,2.3091,2.3091,0.0,0.0,2.5172,2.5989,2.6753,2.6256,2.6082,2.5843,2.4837,2.426,2.3744,2.2853,2.361,2.4393,2.3604,2.3375,2.3464,2.3933,2.2771,2.1692,2.1902,2.1744,2.1498,2.133,1.9534,1.8265,1.8614,1.853,1.831,1.7936,1.913,2.0053,2.0209,0.0,0.0,2.0704,1.9633,1.8771,1.8306,1.7777,1.725,1.6701,1.6688,1.6688,1.6688,1.6688,1.6688,1.6688,1.7225,1.7498,1.7423,1.4438,1.3848,0.0,0.0,0.0,0.0,0.0,0.0,0.0,0.0,0.0,0.0,0.0,0.0,0.0,0.0,0.0,1.8857,2.043,2.1709,2.2305,2.2643,2.2886,2.2964,2.3042,2.3091,2.3091,2.3091,2.3091,2.3091,2.3091,2.3091,2.3091,2.3091,0.0,2.3091,2.3091,2.3091,2.3091,2.3091,2.3091,2.3091,0.0,0.0,2.3091,2.3091,2.3091,2.3091,2.3091,2.3091,2.3091,2.3091,2.3091,2.3091,2.3091,2.3091,2.3091,2.3091,2.3091,2.3091,2.3091,2.3266,2.3454,2.3537,2.3713,2.3907,2.3783,2.3509,0.0,2.3026,2.2683,2.2301,2.2107,2.201,2.2091,2.271,2.2567,2.2307,2.2424,2.2783,2.2798,2.1703,2.2114,2.2499,2.2082,2.0351,1.9079,1.915,1.8555,1.8171,1.8352,1.8627,1.9181,2.0088,1.9738,1.9776,2.0648,1.9525,1.8785,1.8845,1.8355,1.799,1.789,1.7877,1.7877,1.7877,1.7877,1.7877,1.7877,1.799,1.8053,1.8028,1.7388,1.725,0.0,0.0,0.0,0.0,0.0,0.0,0.0,0.0,0.0,0.0,0.0,1.5957,1.6592,0.0,1.9316,2.041,2.1494,2.2344,2.2721,2.2964,2.3091,2.3091,2.3091,2.3091,2.3091,2.3091,2.3091,2.3091,2.3091,2.3091,2.3091,2.3091,2.3091,2.3091,2.3091,2.3091,2.3091,2.3091,2.3091,2.3091,2.3091,2.3091,2.3091,2.3091,2.3091,2.3091,2.3091,2.3091,2.3091,2.3091,2.3091,2.3091,2.3091,2.3091,2.3091,2.3091,2.3091,2.3091,2.3091,2.3091,2.3178,2.3757,2.3963,2.3963,2.3963,2.3811,2.3511,2.2951,2.2519,2.2197,2.2197,2.2226,2.2381,2.2879,2.2681,2.2499,2.2983,2.2912,2.2552,2.1855,2.1942,2.1934,2.1195,2.0066,1.9379,1.9653,1.9479,1.906,1.836,1.9404,2.01,1.978,1.992,2.0098,2.0192,1.9475,1.9146,1.9396,1.8882,1.8469,1.8216,1.8204,1.8204,1.8204,1.8204,1.8204,1.8204,1.8456,1.8594,1.8607,1.8882,1.8719,0.0,0.0,0.0,0.0,0.0,0.0,0.0,0.0,1.5196,1.6006,1.6865,1.7759,1.8783,1.9717,2.0674,2.1816,2.2353,2.2711,2.3052,2.3091,2.3091,2.3091,2.3091,2.3091,2.3091,2.3091,2.3091,2.3091,2.3091,2.3091,2.3091,2.3091,2.3091,2.3091,2.3091,2.3091,2.3091,2.3091,2.3091,2.3091,2.3091,2.3091,2.3091,2.3091,2.3091,2.3091,2.3091,2.3091,2.3091,2.3091,2.3091,2.3091,2.3091,2.3091,2.3091,2.3091,2.3091,2.3091,2.3091,2.3091,2.3256,2.4168,2.4457,2.4457,2.4457,2.4457,2.4296,2.3343,2.2847,2.2637,2.2637,2.2862,2.3185,2.3387,2.3113,2.303,2.3744,2.3113,2.2332,2.2048,2.1882,2.1565,2.0724,2.0259,2.0032,2.0191,2.0356,2.0019,1.8819,2.0421,2.1164,1.9944,2.064,2.0843,2.0014,1.9552,1.9476,1.9848,1.9465,1.912,1.8857,1.8844,1.8844,1.8844,1.8844,1.8844,1.8844,1.9259,1.9484,1.9497,1.9768,1.9444,1.5225,1.3848,1.3262,1.4248,1.457,1.5234,0.0,0.0,1.8237,1.875,1.9578,2.0224,2.0361,2.1104,2.1836,2.2353,2.275,2.3042,2.3091,2.3091,2.3091,2.3091,2.3091,2.3091,2.3091,2.3091,2.3091,2.3091,2.3091,2.3091,2.3091,2.3091,2.3091,2.3091,2.3091,2.3091,2.3091,2.3091,2.3091,2.3091,2.3091,2.3091,2.3091,2.3091,2.3091,2.3091,2.3091,2.3091,2.3091,2.3091,2.3091,2.3091,2.3091,2.3091,2.3091,2.3091,2.3091,2.3091,2.3091,2.3091,2.3135,2.3266,2.3309,2.3309,2.3309,2.3309,2.3256,2.3135,2.3062,2.3023,2.3023,2.2797,2.2802,2.3701,2.3563,2.3184,2.2931,2.3449,2.3552,2.2262,2.2696,2.3216,2.3106,2.2661,2.1939,2.0885,2.0305,2.0236,2.0941,2.0859,2.0985,2.1553,2.1725,2.1531,2.0924,1.9684,1.9312,2.0118,2.0087,2.0391,2.1089,2.1117,2.1117,2.1117,2.1117,2.1117,2.1117,2.1179,2.1217,2.1217,2.0491,2.024,1.7041,1.6269,1.5937,0.0,1.6855,1.7686,1.8769,1.9199,1.958,2.0273,2.0908,2.1447,2.165,2.2197,2.2676,0.0,2.2984,2.3091,2.3091,2.3091,2.3091,2.3091,2.3091,2.3091,2.3091,2.3091,2.3091,2.3091,2.3091,2.3091,2.3091,2.3091,2.3091,2.3091,2.3091,2.3091,2.3091,2.3091,2.3091,2.3091,2.3091,2.3091,2.3091,2.3091,2.3091,2.3091,2.3091,2.3091,2.3091,2.3091,2.3091,2.3091,2.3091,2.3091,2.3091,2.3091,2.3091,2.3091,2.3091,2.3091,2.3091,2.3091,2.3091,2.3091,2.3091,2.3091,2.3091,2.3091,2.3091,2.3091,2.3091,2.2964,2.2957,2.3378,2.3155,2.2783,2.2644,2.2716,2.2599,2.1716,2.1849,2.2076,2.1873,2.1628,2.1468,2.1502,2.1268,2.1062,2.1038,2.1418,2.1754,2.1882,2.1459,2.124,2.1495,2.0522,2.0117,2.063,2.0677,2.0693,2.075,2.1216,2.1493,2.1493,2.1493,2.1493,2.1493,2.1493,2.1493,2.1493,2.1131,2.1209,1.7861,0.0,0.0,1.7744,1.8691,1.9705,1.9795,2.0244,2.081,2.1414,2.1934,2.2324,2.2627,2.2886,2.3091,2.3091,2.3091,2.3091,2.3091,2.3091,2.3091,2.3091,2.3091,2.3091,2.3091,2.3091,2.3091,2.3091,2.3091,2.3091,2.3091,2.3091,2.3149,2.3276,2.3276,2.3335,2.3442,2.3452,2.3452,2.3452,2.3452,2.3452,2.3452,2.3452,2.3452,2.3452,2.3452,2.3452,2.3452,2.3452,2.3383,2.3276,2.3276,2.3198,2.3091,2.3091,2.3091,2.3091,2.3091,2.3091,2.3091,2.3091,2.3091,2.3091,2.3091,2.3091,2.3091,2.3091,2.3091,2.3091,2.3091,2.3091,2.3091,2.3091,2.2867,2.2656,2.2539,2.2275,2.1934,2.1504,2.1375,2.1269,2.083,2.0752,2.0966,2.1538,2.1581,2.15,2.1346,2.2128,2.2613,2.2309,2.1623,2.1446,2.206,2.1192,2.0782,2.1216,2.1009,2.0936,2.1012,2.1391,2.1704,2.1945,2.1945,2.1945,2.1945,2.1945,2.1945,2.1945,2.1704,2.1944,0.0,0.0,1.7598,1.8364,1.957,2.0644,2.1034,2.1826,2.2441,2.2471,2.2769,2.3062,2.3071,2.3081,2.3091,2.3091,2.3091,2.3091,2.3091,2.3091,2.3091,2.3091,2.3091,2.3091,0.0,2.3091,2.3091,2.3091,2.3091,2.3091,2.3091,2.3091,2.3286,2.375,2.3769,2.3965,2.4375,2.4375,2.4375,2.4375,2.4375,2.4375,2.4375,2.4375,2.4375,2.4375,2.4375,2.4375,2.4375,2.4375,2.4141,2.3769,2.3769,2.3516,2.3091,2.3091,2.3091,2.3091,2.3091,2.3091,2.3091,2.3091,2.3091,2.3091,2.3091,2.3091,2.3091,2.3091,2.3091,2.3091,2.3091,2.3091,2.3091,2.3091,2.3081,2.2964,2.2598,2.25,2.2373,2.1953,2.1865,2.1728,2.1249,2.1171,2.1064,2.0703,2.0653,2.1106,2.2463,2.3029,2.3287,2.3276,2.2891,2.2638,2.267,2.1388,2.0962,2.1822,2.1078,2.1318,2.2967,2.2304,2.2243,2.3027,2.3058,2.3058,2.3058,2.3058,2.3058,2.3015,2.2243,2.2304,1.8389,0.0,1.9744,2.0576,2.1328,2.1973,2.236,2.2682,2.2886,2.2886,2.2779,2.2682,2.2682,2.2682,2.2682,2.2682,2.2916,2.3091,2.3091,2.3091,2.3091,2.3091,2.3091,0.0,0.0,0.0,0.0,2.3091,2.3091,2.3091,2.3091,2.3091,2.334,2.3779,2.3789,2.3984,2.4414,2.4414,2.4414,2.4414,2.4414,2.4414,2.4414,2.4414,2.4414,2.4414,2.4414,2.4414,2.4414,2.4414,2.4336,2.4209,2.4209,2.4121,2.3939,2.3939,2.3809,2.3525,2.3198,2.3091,2.3091,2.3091,2.3091,2.3091,2.3091,2.3091,2.3091,2.3091,2.3091,2.3091,2.3091,2.3091,2.3091,2.3091,2.3091,2.3052,2.2916,2.2886,2.276,2.2383,2.2305,2.2168,2.1738,2.167,2.1514,2.1074,2.1307,2.158,2.169,2.2417,2.2764,2.2389,2.2824,2.3096,2.3096,2.2744,2.2639,2.2944,2.2353,2.2261,2.2812,2.2764,2.2823,2.3095,2.3108,2.3108,2.3108,2.3108,2.3108,2.3095,2.2823,2.2854,1.9355,2.0146,2.1016,2.1894,2.2432,2.2769,2.3033,2.3091,2.3052,2.2906,2.2578,2.2246,2.208,2.1924,2.1924,2.2236,2.251,2.275,2.3052,2.3091,2.3091,2.3091,2.3091,0.0,0.0,0.0,0.0,2.3091,2.3091,2.3091,2.3091,2.3091,2.3364,2.3994,2.4014,2.4297,2.4883,2.4836,2.4836,2.4836,2.4836,2.4836,2.4836,2.4836,2.4836,2.4836,2.4836,2.4836,2.4836,2.4836,2.4795,2.4648,2.4648,2.4551,2.4414,2.4414,2.4248,2.3955,2.3516,2.3227,2.3091,2.3091,2.3091,2.3091,2.3091,2.3091,2.3091,2.3091,2.3091,2.3091,2.3091,2.3091,2.3091,2.3091,2.3091,2.3091,2.3091,2.3091,2.3013,2.275,2.2691,2.2607,2.2178,2.1982,2.1787,2.1514,2.1619,2.1533,2.1036,2.1844,2.231,2.1969,2.2626,2.3108,2.3108,2.3295,2.3435,2.3435,2.3159,2.3143,2.3446,2.2966,2.2836,2.3175,2.3163,2.3163,2.3163,2.353,2.371,2.371,2.371,2.371,1.9785,2.0625,2.1483,2.2301,2.2799,2.3091,2.3091,2.3081,2.2935,2.2539,2.209,2.1641,0.0,0.0,2.084,2.165,2.1865,2.2207,2.2984,2.3091,2.3091,0.0,0.0,0.0,0.0,0.0,0.0,2.3091,0.0,2.311,2.312,2.313,2.352,2.4424,2.4453,2.4816,2.5684,2.5693,2.5693,2.5693,2.5693,2.5693,2.5693,2.5693,2.5693,2.5693,2.5693,2.5693,2.5693,2.5693,2.5488,2.5145,2.5145,2.4844,2.4482,2.4482,2.4473,2.4394,2.3994,2.3574,2.3159,2.3159,2.3149,2.313,2.313,2.311,2.3091,2.3091,2.3091,2.3091,2.3091,2.3091,2.3091,2.3091,2.3091,2.3091,2.3091,2.3091,2.3091,2.3091,2.3091,2.2974,2.2617,2.2197,2.1924,2.1924,2.1543,2.1103,2.0693,2.1423,2.1989,2.1989,2.2437,2.2749,2.2749,2.3086,2.3327,2.3394,2.3482,2.3926,2.4793,2.3089,2.2525,2.3278,2.3311,2.3278,2.3244,2.4198,2.4678,2.4711,2.4711,2.4755,2.1143,2.2002,2.2662,2.2886,2.3013,2.3091,2.3091,2.2847,2.2418,2.1678,2.0908,2.0098,0.0,0.0,0.0,2.0381,2.1504,0.0,2.3023,2.3091,0.0,2.3091,0.0,2.3091,2.3091,2.3091,0.0,0.0,2.3091,2.3237,2.3603,2.3623,2.4014,2.4873,2.4902,2.5176,2.5684,2.5693,2.5693,2.5693,2.5693,2.5693,2.5693,2.5693,2.5693,2.5693,2.5693,2.5693,2.5693,2.5693,2.5625,2.5566,2.5566,2.545,2.5352,2.5352,2.5185,2.493,2.4822,2.4453,2.4092,2.4092,2.3877,2.3623,2.3623,2.3398,2.3091,2.3091,2.3091,2.3091,2.3091,2.3091,2.3091,2.3091,2.3091,2.3091,2.3091,2.3091,2.3091,2.3091,2.3091,2.3062,2.2955,2.2627,2.2353,2.2353,2.1992,2.1562,2.1123,2.1588,2.1989,2.1989,2.2779,2.3299,2.3299,2.3392,2.3765,2.453,2.4209,2.4437,2.5365,2.4538,2.3845,2.3311,2.3311,2.2976,2.2252,2.2502,2.301,2.3667,2.3667,2.4087,2.1973,2.2637,2.3091,2.3091,2.3091,2.2945,2.2389,2.2077,2.1502,2.0079,1.9277,0.0,0.0,0.0,0.0,0.0,0.0,0.0,2.2984,2.3091,2.3091,0.0,2.3091,0.0,2.3091,2.3091,2.3169,0.0,2.3428,2.3525,2.3779,2.3965,2.4375,2.5096,2.5116,2.5283,2.5684,2.5693,2.5693,2.5693,2.5693,2.5693,2.5693,2.5693,2.5693,2.5693,0.0,2.5693,2.5693,2.5693,2.5693,2.5693,2.5693,2.5693,2.5693,2.5693,2.5576,2.5361,2.5361,2.5205,2.4884,2.4541,2.4258,2.4062,2.4062,2.3769,2.3428,2.3428,2.3247,2.3091,2.3091,2.3091,2.3091,2.3091,2.3091,2.3091,2.3091,2.3091,2.3091,2.3091,2.3091,2.3091,2.3091,2.2896,2.274,2.274,2.2432,2.207,2.1785,2.17,2.1641,2.1641,2.2342,2.2664,2.2264,2.2999,2.3562,2.3672,2.4213,2.4773,2.5303,2.5068,2.4614,2.4044,2.4044,2.3584,2.259,2.306,2.3305,2.3398,2.3398,2.3688,2.248,2.2818,2.3091,2.3091,2.3052,2.2691,2.1473,2.1064,2.0342,1.8271,0.0,1.6887,1.5997,1.6652,1.7715,1.8994,0.0,2.1639,2.2916,2.3091,2.3091,2.3091,2.3091,2.312,2.3179,2.3179,2.3364,2.3838,2.3926,2.3955,2.3955,2.4307,2.4707,2.5194,2.5156,2.5342,2.5684,2.5693,2.5693,2.5693,2.5693,2.5693,2.5693,2.5693,2.5693,2.5693,0.0,0.0,2.5693,2.5693,2.5693,2.5693,2.5693,2.5693,2.5693,2.5693,2.5693,2.5693,2.5693,2.5693,2.5567,2.4844,2.4551,2.4502,2.4502,2.4209,2.3877,2.3877,2.3555,2.3179,2.3179,2.314,2.3091,2.3091,2.3091,2.3091,2.3091,2.3091,2.3091,2.3091,2.3091,2.3091,2.3091,2.3222,2.3343,2.3343,2.3037,2.2801,2.2801,2.2042,2.1469,2.1469,2.1898,2.1883,2.1219,2.2492,2.3014,2.2348,2.3799,2.4718,2.4791,2.4933,2.4933,2.4791,2.4933,2.4528,2.3514,2.4384,2.4337,2.3514,2.3514,2.3514,2.2877,2.3042,2.3091,2.3091,2.2838,2.2373,2.1405,2.04,0.0,0.0,0.0,1.5488,1.4601,1.5742,0.0,1.851,0.0,0.0,0.0,0.0,2.3091,0.0,0.0,0.0,0.0,0.0,0.0,0.0,0.0,2.4891,2.4891,2.4959,2.5156,2.5557,2.5625,2.5615,2.5693,2.5693,2.5693,2.5693,2.5693,2.5693,2.5693,2.5693,2.5693,2.5693,0.0,0.0,2.5693,2.5693,2.5693,2.5693,2.5693,2.5693,2.5693,2.5693,2.5693,2.5693,2.5693,2.5693,2.5664,2.5508,2.5254,2.4998,2.4998,2.4648,2.4307,2.4307,2.4004,2.3682,2.3682,2.3408,2.3091,2.3091,2.3091,2.3091,2.3091,2.3091,2.3091,2.3091,2.3091,2.3091,2.3091,2.3877,2.45,2.45,2.4437,2.4386,2.4386,2.3546,2.2937,2.2937,2.3014,2.3409,2.4154,2.2974,2.2649,2.3851,2.34,2.3302,2.3756,2.4564,2.46,2.3781,2.4564,2.4528,2.3514,2.3672,2.3672,2.3514,2.3514,2.3514,2.3042,2.3091,2.3091,2.3091,2.2779,2.2109,2.0576,0.0,0.0,0.0,0.0,1.4228,1.3603,0.0,0.0,0.0,0.0,0.0,0.0,0.0,0.0,0.0,0.0,0.0,0.0,0.0,0.0,0.0,0.0,2.5116,2.5116,2.5293,2.5518,2.5684,2.5693,2.5693,2.5693,2.5693,2.5693,2.5693,2.5693,2.5693,2.5693,2.5693,2.5693,2.5693,2.5693,0.0,2.5693,2.5693,2.5693,2.5693,2.5693,2.5693,2.5693,2.5693,2.5693,2.5693,2.5693,2.5693,2.5693,2.5693,2.5596,2.541,2.541,2.5107,2.4756,2.4756,2.4443,2.4111,2.4111,2.3965,2.3705,2.3525,2.3257,2.3091,2.3091,2.3091,2.3091,2.3091,2.3091,2.3091,2.3091,2.3551,2.4125,2.4702,2.4787,2.4999,2.5588,2.527,2.4452,2.3052,2.3114,2.3332,2.3363,2.293,2.2757,2.305,2.3018,2.3139,2.341,2.4352,2.4588,2.3869,2.4804,2.4701,2.3514,2.4036,2.4,2.3514,2.3514,2.322,2.3091,2.3091,2.3091,2.3091,2.2643,2.1699,1.9619,1.834,0.0,0.0,1.3636,1.3301,1.3057,0.0,0.0,0.0,0.0,0.0,0.0,0.0,0.0,0.0,0.0,0.0,0.0,0.0,0.0,0.0,0.0,0.0,2.5215,2.5547,2.5693,2.5693,2.5693,2.5693,2.5693,2.5693,2.5693,2.5693,2.5693,2.5693,2.5693,2.5693,2.5693,2.5693,2.5693,0.0,0.0,2.5693,2.5693,2.5693,2.5693,2.5693,2.5693,2.5693,2.5693,2.5693,2.5693,2.5693,2.5693,2.5693,2.5693,2.5693,2.5693,2.5488,2.5215,2.5215,2.4893,2.456,2.456,2.4492,2.4307,2.3896,2.3525,2.3208,2.311,2.3091,2.3091,2.3091,2.3091,2.3091,2.3091,2.3299,2.3757,2.467,2.4999,2.5504,2.6389,2.6524,2.5708,2.3581,2.3536,2.3309,2.2587,2.296,2.2992,2.2416,2.2869,2.3194,2.3332,2.4079,2.4454,2.4357,2.5064,2.5018,2.4135,2.4939,2.4928,2.4161,2.4161,2.3642,2.3091,2.3091,2.3091,2.3091,2.2194,2.0889,1.9157,0.0,0.0,1.3936,1.3232,1.3071,1.3389,0.0,0.0,0.0,0.0,1.9407,0.0,0.0,0.0,0.0,0.0,0.0,0.0,0.0,0.0,0.0,0.0,0.0,2.5625,2.5664,2.5693,2.5693,2.5693,2.5693,2.5693,2.5693,2.5693,2.5693,2.5693,2.5693,2.5693,2.5693,2.5693,2.5693,2.5693,0.0,0.0,2.5693,2.5693,2.5693,2.5693,2.5693,2.5693,2.5693,2.5693,2.5693,2.5693,2.5693,2.5693,2.5693,2.5693,2.5693,2.5693,2.5664,2.5625,2.5625,2.5352,2.5057,2.5057,2.4717,2.4307,2.3896,2.376,2.3623,2.3179,2.3091,2.3091,2.3091,2.3091,2.3091,2.3091,2.3963,2.467,2.4787,2.5672,2.6389,2.6483,2.6524,2.6419,2.6168,2.524,2.4619,2.4545,2.368,2.339,2.396,2.3096,2.2874,2.3473,2.3442,2.3899,2.4887,2.4876,2.5328,2.6205,2.6318,2.6344,2.6297,2.6297,2.5817,2.2955,2.3091,2.3091,2.3091,2.2136,2.0742,1.9043,0.0,1.5606,1.3857,1.3174,1.2954,1.3096,1.3477,0.0,0.0,0.0,0.0,0.0,0.0,0.0,0.0,0.0,0.0,0.0,0.0,0.0,0.0,0.0,0.0,2.5693,2.5693,2.5693,2.5693,2.5693,2.5693,2.5693,2.5693,2.5693,2.5693,2.5693,2.5693,2.5693,2.5693,2.5693,2.5693,2.5693,0.0,0.0,2.5693,2.5693,2.5693,2.5693,2.5693,2.5693,2.5693,2.5693,2.5693,2.5693,2.5693,2.5693,2.5693,2.5693,2.5693,2.5693,2.5693,2.5693,2.5693,2.5557,2.5469,2.5469,2.5146,2.4766,2.46,2.4365,2.4053,2.3623,2.3525,2.3457,2.3149,2.3091,2.3091,2.3091,2.3464,2.4006,2.4702,2.521,2.5964,2.7279,2.7441,2.7441,2.7441,2.6502,2.5546,2.4872,2.4372,2.3978,2.3549,2.3087,2.2975,2.3245,2.3877,2.3991,2.3495,2.4672,2.5036,2.4591,2.5187,2.5854,2.655,2.655,2.6349,2.2682,2.3003,2.3091,2.3091,2.2038,2.0586,0.0,1.7109,1.541,1.3672,1.3111,1.2905,1.2905,1.3223,1.3789,1.4648,0.0,1.626,0.0,0.0,0.0,0.0,0.0,0.0,0.0,0.0,0.0,0.0,0.0,0.0,0.0,2.5693,2.5693,2.5693,2.5693,2.5693,2.5693,2.5693,2.5693,2.5693,2.5693,2.5693,2.5693,2.5693,2.5693,2.5693,0.0,0.0,0.0,2.5693,2.5693,2.5693,2.5693,2.5693,2.5693,2.5693,2.5693,2.5693,2.5693,2.5693,2.5693,2.5693,2.5693,2.5693,2.5693,2.5693,2.5693,2.5693,2.5693,2.5693,2.5693,2.5508,2.5234,2.5145,2.4834,2.4492,2.4062,2.3975,2.3848,2.3374,2.3286,2.3247,2.312,2.3387,2.3877,2.467,2.5368,2.6232,2.7481,2.8187,2.8466,2.8136,2.7747,2.6883,2.542,2.4999,2.4457,2.3627,2.3309,2.3256,2.3594,2.4049,2.411,2.3686,2.4802,2.515,2.4719,2.5101,2.5864,2.6987,2.6987,2.7179,2.2285,2.2822,2.3091,2.3091,2.1846,2.0165,0.0,1.667,1.4932,1.3257,1.2905,1.2905,1.2905,1.3223,1.3789,1.4648,1.5527,0.0,0.0,0.0,0.0,0.0,0.0,0.0,0.0,0.0,0.0,0.0,0.0,0.0,0.0,2.5693,2.5693,2.5693,2.5693,2.5693,2.5693,2.5693,2.5693,2.5693,2.5693,2.5693,2.5693,2.5693,2.5693,0.0,0.0,0.0,0.0,2.5693,2.5693,2.5693,2.5693,2.5693,2.5693,2.5693,2.5693,2.5693,2.5693,2.5693,2.5693,2.5693,2.5693,2.5693,2.5693,2.5693,2.5693,2.5693,2.5693,2.5693,2.5693,2.5684,2.5567,2.5176,2.5106,2.4941,2.4502,2.4414,2.4287,2.3867,2.3779,2.3652,2.3169,2.4049,2.4787,2.4787,2.6644,2.7683,2.6637,2.8422,2.9365,2.8215,2.9106,2.887,2.6689,2.5462,2.4787,2.4787,2.3714,2.3594,2.4755,2.3714,2.4178,2.6431,2.5368,2.5889,2.8032,2.6982,2.7023,2.8072,2.8072,2.8676,2.0586,2.1055,2.124,2.0654,1.9658,1.8447,1.7034,1.5801,1.458,1.3199,1.2905,1.2905,1.2905,1.2988,1.3545,1.498,1.5439,0.0,0.0,0.0,0.0,0.0,0.0,0.0,0.0,0.0,0.0,0.0,0.0,0.0,0.0,2.5693,2.5693,2.5693,2.5693,2.5693,2.5693,2.5693,2.5693,2.5693,2.5693,2.5693,2.5693,2.5693,0.0,0.0,0.0,0.0,0.0,2.5693,2.5693,2.5693,2.5693,2.5693,2.5693,2.5693,2.5693,2.5693,2.5693,2.5693,2.5693,2.5693,2.5693,2.5693,2.5693,2.5693,2.5693,2.5693,2.5693,2.5693,2.5693,2.5693,2.5654,2.5557,2.5527,2.54,2.4961,2.4863,2.4736,2.4297,2.4219,2.4082,2.3662,2.4473,2.5122,2.484,2.6047,2.7168,2.7522,2.8187,2.8806,2.9236,2.9573,2.9197,2.7735,2.7267,2.6737,2.6005,2.5599,2.5221,2.483,2.5221,2.502,2.4178,2.5347,2.5922,2.5859,2.6295,2.7046,2.8136,2.8897,2.9456,1.9104,1.9746,1.9989,1.9424,1.8643,1.7666,1.6388,1.5429,1.4451,1.3169,1.2905,1.2905,1.2905,1.3008,1.3467,1.4521,1.4961,0.0,0.0,0.0,0.0,0.0,0.0,0.0,0.0,0.0,0.0,0.0,0.0,0.0,0.0,2.5693,2.5693,2.5693,2.5693,2.5693,2.5693,2.5693,2.5693,2.5693,2.5693,2.5693,2.5693,2.5693,0.0,0.0,0.0,0.0,0.0,2.5693,2.5693,2.5693,2.5693,2.5693,2.5693,2.5693,2.5693,2.5693,2.5693,2.5693,2.5693,2.5693,2.5693,2.5693,2.5693,2.5693,2.5693,2.5693,2.5693,2.5693,2.5693,2.5693,2.5693,2.5693,2.5693,2.5615,2.5381,2.5322,2.5195,2.4746,2.4668,2.4531,2.4102,2.4798,2.5439,2.5647,2.649,2.7319,2.8004,2.8478,2.8858,2.9145,2.9534,2.9495,2.8806,2.8347,2.7804,2.7168,2.6719,2.6182,2.5462,2.6141,2.5808,2.4392,2.5766,2.6141,2.5462,2.6141,2.7046,2.8136,2.8819,2.9404,0.0,1.8652,1.8994,1.8936,1.832,1.7412,1.6193,1.5292,0.0,1.316,1.2905,1.2925,1.2959,1.3242,1.3525,1.3711,0.0,0.0,0.0,0.0,0.0,0.0,0.0,0.0,0.0,0.0,0.0,0.0,0.0,0.0,0.0,2.5693,2.5693,2.5693,2.5693,2.5693,2.5693,2.5693,2.5693,2.5693,2.5693,2.5693,2.5693,2.5693,0.0,0.0,0.0,0.0,0.0,2.5693,2.5693,2.5693,2.5693,2.5693,2.5693,2.5693,2.5693,2.5693,2.5693,2.5693,2.5693,2.5693,2.5693,2.5693,2.5693,2.5693,2.5693,2.5693,2.5693,2.5693,2.5693,2.5693,2.5693,2.5693,2.5693,2.5693,2.5693,2.5693,2.5567,2.5195,2.5117,2.498,2.4541,2.5006,2.5847,2.6862,2.7648,2.8143,2.8143,2.9131,2.9404,2.8347,2.9157,2.9792,2.9792,2.8819,2.8215,2.8215,2.729,2.6689,2.6637,2.6595,2.6595,2.6524,2.6554,2.6637,2.673,2.673,2.725,2.8215,2.8215,2.8806,1.4942,0.0,1.6162,1.5478,1.5167,1.4855,0.0,1.3955,1.3633,1.3032,1.2905,1.3101,1.3695,1.3389,1.3672,0.0,0.0,0.0,0.0,0.0,0.0,0.0,0.0,0.0,0.0,0.0,0.0,0.0,0.0,0.0,0.0,2.5693,2.5693,2.5693,2.5693,2.5693,2.5693,2.5693,2.5693,2.5693,2.5693,2.5693,2.5693,2.5693,0.0,0.0,0.0,0.0,2.5693,2.5693,2.5693,2.5693,2.5693,2.5693,2.5693,2.5693,2.5693,2.5693,2.5693,2.5693,2.5693,2.5693,2.5693,2.5693,2.5693,2.5693,2.5693,2.5693,2.5693,2.5693,2.5693,2.5693,2.5693,2.5693,2.5693,2.5693,2.5693,2.5693,2.5654,2.5596,2.5586,2.5439,2.499,2.5726,2.6389,2.6345,2.7632,2.8649,2.8649,2.9325,2.9714,2.9443,2.9624,2.9792,2.9792,2.9534,2.9404,2.9404,2.917,2.8621,2.7775,2.7723,2.7319,2.6524,2.7331,2.8148,2.9,2.9,2.9157,2.9404,2.9404,2.9534,1.3496,1.4463,1.5303,1.4806,1.4689,1.4582,1.4189,1.3789,1.3389,0.0,0.0,0.0,0.0,0.0,0.0,0.0,0.0,0.0,0.0,0.0,0.0,0.0,0.0,0.0,0.0,0.0,0.0,0.0,0.0,0.0,0.0,2.5693,2.5693,2.5693,2.5693,2.5693,2.5693,2.5693,2.5693,2.5693,2.5693,2.5693,2.5693,2.5693,2.5693,0.0,0.0,0.0,2.5693,2.5693,2.5693,2.5693,2.5693,2.5693,2.5693,2.5693,2.5693,2.5693,2.5693,2.5693,2.5693,2.5693,2.5693,2.5693,2.5693,2.5693,2.5693,2.5693,2.5693,2.5693,2.5693,2.5693,2.5693,2.5693,2.5693,2.5693,2.5693,2.5693,2.5693,2.5693,2.5693,2.58,2.6192,2.6568,2.7066,2.7955,2.8753,2.9415,2.9922,3.0323,3.0432,3.0193,3.0168,3.0068,2.9817,2.9792,2.9792,2.9792,2.9792,2.9534,2.8897,2.8897,2.8359,2.725,2.7319,2.7907,2.9028,2.9028,2.9275,2.9792,2.9792,2.9792,1.314,1.4316,1.543,1.5107,1.5127,1.5088,1.4637,0.0,0.0,0.0,0.0,0.0,0.0,0.0,0.0,0.0,0.0,0.0,0.0,0.0,0.0,0.0,0.0,0.0,0.0,0.0,0.0,0.0,0.0,0.0,0.0,2.5693,2.5693,2.5693,2.5693,2.5693,2.5693,2.5693,2.5693,2.5693,2.5693,2.5693,2.5693,2.5693,2.5693,0.0,0.0,0.0,2.5693,2.5693,2.5693,2.5693,2.5693,2.5693,2.5693,2.5693,2.5693,2.5693,2.5693,2.5693,2.5693,2.5693,2.5693,2.5693,2.5693,2.5693,2.5693,2.5693,2.5693,2.5693,2.5693,2.5693,2.5693,2.5693,2.5693,2.5693,2.5693,2.5693,2.5693,2.5693,2.5693,2.61,2.7352,2.7264,2.775,2.9934,3.0031,3.023,3.1129,3.1354,3.1223,3.0783,3.0733,3.0507,2.9967,2.9917,2.988,2.9804,2.9792,2.9792,2.9792,2.9792,2.9365,2.8386,2.7464,2.7452,2.8347,2.8347,2.8858,2.9792,2.9792,2.9792,1.4226,1.5244,1.5557,1.3747,1.3799,1.4094,1.335,1.3101,0.0,0.0,0.0,0.0,0.0,0.0,0.0,0.0,0.0,0.0,0.0,0.0,0.0,0.0,0.0,0.0,0.0,0.0,0.0,0.0,0.0,0.0,0.0,0.0,2.5693,2.5693,2.5693,2.5693,2.5693,2.5693,2.5693,2.5693,2.5693,2.5693,2.5693,2.5693,2.5693,0.0,0.0,2.5693,2.5693,2.5693,2.5693,2.5693,2.5693,2.5693,2.5693,2.5693,2.5693,2.5693,2.5693,2.5693,2.5693,2.5693,2.5693,2.5693,2.5693,2.5693,2.5693,2.5693,2.5693,2.5693,2.5693,2.5693,2.5693,2.5693,2.5693,2.5693,2.5693,2.5693,2.5693,2.5693,2.5693,2.61,2.7352,2.7526,2.7978,2.9341,2.9983,3.0374,3.0534,3.107,3.1361,3.1286,3.1273,3.106,3.0532,3.0495,3.0281,2.9829,2.9792,2.9792,2.9792,2.9792,2.9702,2.9534,2.9378,2.9365,2.9534,2.9534,2.9624,2.9792,2.9792,2.9792,1.3619,1.4568,1.5107,1.3857,1.4736,1.5664,1.4823,1.4441,0.0,0.0,0.0,0.0,0.0,0.0,0.0,0.0,0.0,0.0,0.0,0.0,0.0,0.0,0.0,0.0,0.0,0.0,0.0,0.0,0.0,0.0,0.0,0.0,2.5693,2.5693,2.5693,2.5693,2.5693,2.5693,2.5693,2.5693,2.5693,2.5693,2.5693,2.5693,2.5693,2.5693,0.0,2.5693,2.5693,2.5693,2.5693,2.5693,2.5693,2.5693,2.5693,2.5693,2.5693,2.5693,2.5693,2.5693,2.5693,2.5693,2.5693,2.5693,2.5693,2.5693,2.5693,2.5693,2.5693,2.5693,2.5693,2.5693,2.5693,2.5693,2.5693,2.5693,2.5693,2.5693,2.5693,2.5693,2.5693,2.61,2.7352,2.7589,2.8226,3.009,3.0655,3.1085,3.1773,3.2144,3.2177,3.1863,3.1838,3.1625,3.1085,3.1035,3.0683,2.9842,2.9792,2.9792,2.9792,2.9792,2.9792,2.9792,2.9792,2.9792,2.9792,2.9792,2.9792,2.9792,2.9792,2.9792,1.3389,1.4189,1.4853,1.4494,1.5615,1.6682,1.6202,1.5723,1.5469,0.0,0.0,0.0,0.0,0.0,0.0,0.0,0.0,0.0,0.0,0.0,0.0,0.0,0.0,0.0,0.0,0.0,0.0,0.0,0.0,0.0,0.0,0.0,2.5693,2.5693,2.5693,2.5693,2.5693,2.5693,2.5693,2.5693,2.5693,2.5693,2.5693,2.5693,2.5693,2.5693,2.5693,2.5693,2.5693,2.5693,2.5693,2.5693,2.5693,2.5693,2.5693,2.5693,2.5693,2.5693,2.5693,2.5693,2.5693,2.5693,2.5762,2.584,2.584,2.5908,2.5986,2.5986,2.5986,2.5947,2.5742,2.5693,2.5693,2.5693,2.5693,2.5693,2.5693,2.5693,2.5693,2.5693,2.5693,2.61,2.7352,2.7589,2.8412,3.0855,3.1223,3.1645,3.2939,3.3124,3.2905,3.2466,3.2416,3.219,3.1625,3.1461,3.1035,3.0218,2.993,2.9792,2.9792,2.9792,2.9792,2.9792,2.9792,2.9792,2.9792,2.9792,2.9792,2.9792,2.9792,2.9792,1.4912,1.5293,1.5361,1.5322,1.5146,1.5195,1.5928,1.5723,0.0,1.6434,0.0,0.0,0.0,0.0,0.0,0.0,0.0,0.0,0.0,0.0,0.0,0.0,0.0,0.0,0.0,0.0,0.0,0.0,0.0,0.0,0.0,0.0,0.0,2.5693,2.5693,2.5693,2.5693,2.5693,2.5693,2.5693,2.5693,2.5693,2.5693,2.5693,2.5693,2.5693,2.5693,2.5693,2.5693,2.5693,2.5693,2.5693,2.5693,2.5693,2.5693,2.5693,2.5693,2.5693,2.5693,2.5693,2.5693,2.5693,2.6006,2.6338,2.6338,2.6611,2.6924,2.6924,2.6924,2.6738,2.5898,2.5693,2.5693,2.5693,2.5693,2.5693,2.5693,2.5693,2.5693,2.5693,2.5693,2.61,2.7352,2.7589,2.8412,3.0855,3.1223,3.1645,3.2939,3.3124,3.3056,3.3061,3.3061,3.278,3.2202,3.1687,3.1361,3.1286,3.0344,2.9792,2.9792,2.9792,2.9792,2.9792,2.9792,2.9792,2.9792,2.9792,2.9792,2.9792,2.9792,2.9792,1.4092,1.4805,1.541,1.541,1.5908,0.0,0.0,1.7373,1.8066,1.8936,1.9375,0.0,0.0,0.0,0.0,0.0,0.0,0.0,0.0,0.0,0.0,0.0,0.0,0.0,0.0,0.0,0.0,0.0,0.0,0.0,0.0,0.0,0.0,2.5312,2.5322,2.5449,2.5693,2.5693,2.5693,2.5693,2.5693,2.5693,2.5693,2.5693,2.5693,2.5693,2.5693,2.5693,2.5693,2.5693,2.5693,2.5693,2.5693,2.5693,2.5693,2.5693,2.5693,2.5693,2.5693,2.5693,2.5732,2.6055,2.625,2.6435,2.6699,2.6894,2.7012,2.7012,2.7012,2.6943,2.6611,2.6338,2.6143,2.6143,2.5937,2.5693,2.5693,2.5693,2.5693,2.5693,2.5693,2.583,2.6342,2.6438,2.7258,2.9715,3.009,3.0822,3.284,3.3124,3.3124,3.3124,3.3124,3.2993,3.2767,3.2227,3.1901,3.1901,3.1198,3.0645,3.0319,3.0306,3.0143,2.9804,2.9792,2.9792,2.9792,2.9792,2.9792,2.9792,2.9792,2.9792,1.374,1.4443,1.5244,1.5381,0.0,0.0,1.8066,1.8857,1.9775,2.0811,2.0869,0.0,0.0,0.0,0.0,0.0,0.0,0.0,0.0,0.0,0.0,0.0,0.0,0.0,0.0,0.0,0.0,0.0,0.0,0.0,0.0,0.0,0.0,0.0,2.5047,2.5215,2.5527,2.5615,2.5693,2.5693,2.5693,2.5693,2.5693,2.5693,2.5693,2.5693,2.5693,2.5693,2.5693,2.5693,2.5693,2.5693,2.5693,2.5693,2.5693,2.5693,2.5693,2.5693,2.5693,2.5693,2.5762,2.625,2.6484,2.666,2.709,2.7314,2.7412,2.7412,2.7412,2.7412,2.7412,2.7002,2.6592,2.6592,2.626,2.5947,2.5947,2.5781,2.583,2.6197,2.5965,2.583,2.6245,2.5965,2.6514,2.9039,2.9407,3.0328,3.2797,3.3124,3.3124,3.3124,3.3124,3.3124,3.3124,3.2717,3.2491,3.2491,3.2139,3.1599,3.0884,3.0859,3.0683,3.0306,3.0131,3.0055,3.0055,2.988,2.988,3.0055,3.0055,3.0143,1.4221,1.4453,1.4902,1.5322,0.0,0.0,1.9551,1.9932,2.0303,2.1631,0.0,2.1463,0.0,0.0,0.0,0.0,0.0,0.0,0.0,0.0,0.0,0.0,0.0,0.0,0.0,0.0,0.0,0.0,0.0,0.0,0.0,0.0,0.0,0.0,2.4834,2.5106,2.5116,2.5508,2.5684,2.5693,2.5693,2.5693,2.5693,2.5693,2.5693,2.5693,2.5693,2.5693,2.5693,2.5693,2.5693,2.5693,2.5693,2.5693,2.5693,2.5693,2.5693,2.5693,2.5693,2.5693,2.5762,2.625,2.667,2.71,2.7539,2.7959,2.8291,2.8291,2.8291,2.8291,2.8291,2.7666,2.7021,2.7021,2.6699,2.6446,2.6446,2.6055,2.612,2.7373,2.6582,2.612,2.741,2.6582,2.6572,2.9039,2.9407,3.0328,3.2797,3.3124,3.3124,3.3124,3.3124,3.3124,3.3124,3.3124,3.3124,3.3124,3.3124,3.2566,3.1436,3.1399,3.1399,3.1386,3.0884,3.062,3.062,3.0068,3.0093,3.062,3.062,3.0896,1.3896,1.4668,0.0,1.62,0.0,0.0,0.0,2.1064,0.0,0.0,0.0,0.0,0.0,0.0,0.0,0.0,0.0,0.0,0.0,0.0,0.0,0.0,0.0,0.0,0.0,0.0,0.0,0.0,0.0,0.0,0.0,0.0,0.0,0.0,2.4102,2.4463,2.5106,2.5205,2.543,2.5693,2.5693,2.5693,2.5693,2.5693,2.5693,2.5693,2.5693,2.5693,2.5693,2.5693,2.5693,2.5693,2.5693,2.5693,2.5693,2.5693,2.5693,2.5693,2.5693,2.5693,2.5762,2.625,2.667,2.71,2.7539,2.7959,2.8291,2.8291,2.8291,2.8291,2.8291,2.8105,2.8085,2.8727,2.856,2.8507,2.9418,2.8785,2.8397,2.9733,2.8923,2.8342,2.9285,2.8386,2.828,3.0362,2.9954,3.0328,3.2797,3.3124,3.3124,3.3124,3.3124,3.3124,3.3124,3.3124,3.3124,3.3124,3.3124,3.2742,3.2001,3.1964,3.1788,3.1399,3.1235,3.116,3.116,3.0997,3.0997,3.116,3.116,3.1248,1.4707,1.5494,0.0,1.751,1.9033,2.0625,2.1855,0.0,0.0,0.0,0.0,0.0,0.0,0.0,0.0,0.0,0.0,0.0,0.0,0.0,0.0,0.0,0.0,0.0,0.0,0.0,0.0,0.0,0.0,0.0,0.0,0.0,0.0,0.0,2.3701,2.4043,2.4607,2.4727,2.5029,2.5469,2.5469,2.5566,2.5693,2.5693,2.5693,2.5693,2.5693,2.5693,2.5693,2.5693,2.5693,2.5693,2.5693,2.5693,2.5693,2.5693,2.5693,2.5693,2.5693,2.5693,2.5762,2.625,2.6562,2.6885,2.748,2.7894,2.8076,2.8252,2.8291,2.8291,2.8291,2.8291,2.8436,2.903,2.8819,2.8835,3.0198,2.9713,2.9524,3.1401,3.0682,3.011,3.1108,3.0248,3.0005,3.1628,3.1494,3.1651,3.2921,3.3124,3.3124,3.3124,3.3124,3.3124,3.3124,3.3124,3.3124,3.3124,3.3124,3.2918,3.2566,3.2554,3.2403,3.2064,3.1838,3.1725,3.1725,3.1499,3.1499,3.1725,3.1725,3.1838,1.6174,0.0,0.0,1.9023,1.9925,0.0,2.2375,0.0,0.0,0.0,0.0,0.0,0.0,0.0,0.0,0.0,0.0,0.0,0.0,0.0,0.0,0.0,0.0,0.0,0.0,0.0,0.0,0.0,0.0,0.0,0.0,0.0,0.0,0.0,2.3525,2.375,2.3789,2.417,2.458,0.0,2.5057,2.5244,2.5625,2.5674,2.5693,2.5693,2.5693,2.5693,2.5693,2.5693,2.5693,2.5693,2.5693,2.5693,2.5693,2.5693,2.5693,2.5693,2.5693,2.5693,2.5752,2.6201,2.6357,2.6543,2.7353,2.7689,2.7806,2.8174,2.8291,2.8291,2.8291,2.8291,2.8291,2.8291,2.8104,2.8321,2.981,2.9664,3.0084,3.2712,3.2169,3.1718,3.2934,3.2111,3.1601,3.2723,3.3498,3.3796,3.3294,3.3181,3.3156,3.3156,3.3106,3.3124,3.3124,3.3124,3.3124,3.3124,3.3124,3.3124,3.3124,3.3124,3.3124,3.3124,3.2554,3.229,3.229,3.1788,3.18,3.229,3.229,3.2579,1.6065,1.6786,0.0,0.0,2.2374,2.3826,2.4229,0.0,0.0,0.0,0.0,0.0,0.0,0.0,0.0,0.0,0.0,0.0,0.0,0.0,0.0,0.0,0.0,0.0,0.0,0.0,0.0,0.0,0.0,0.0,0.0,0.0,0.0,2.3091,2.3188,2.3437,2.3789,2.3887,2.4141,0.0,2.456,2.4785,2.5225,2.5576,2.5693,2.5693,2.5693,2.5693,2.5693,2.5693,2.5693,2.5693,2.5693,2.5693,2.5693,2.5693,2.5693,2.5693,2.5693,2.5693,2.5703,2.5801,2.6113,2.6484,2.7002,2.7393,2.7806,2.8174,2.8291,2.8291,2.8291,2.8291,2.8291,2.8291,2.9031,3.0428,3.2857,3.2456,3.2415,3.5108,3.4583,3.3958,3.4802,3.3908,3.309,3.2922,3.3817,3.45,3.4387,3.3985,3.3721,3.3721,3.3332,3.3124,3.3124,3.3124,3.3124,3.3124,3.3124,3.3124,3.3124,3.3124,3.3124,3.3124,3.2955,3.2893,3.2893,3.2767,3.2767,3.2893,3.2893,3.2998,1.6829,0.0,0.0,2.0989,0.0,0.0,0.0,0.0,0.0,0.0,0.0,0.0,0.0,0.0,0.0,0.0,0.0,0.0,0.0,0.0,0.0,0.0,0.0,0.0,0.0,0.0,0.0,0.0,0.0,0.0,0.0,2.3091,2.3091,2.3091,2.3091,2.3198,2.3477,2.3477,2.3691,2.4111,2.4111,2.4453,2.5135,2.5527,2.5693,2.5693,2.5693,2.5693,2.5693,2.5693,2.5693,2.5693,2.5693,2.5693,2.5693,2.5693,2.5693,2.5693,2.5693,2.5693,2.5693,2.5693,2.5889,2.6191,2.6826,2.7178,2.749,2.8115,2.8751,2.926,2.926,2.9713,3.0214,3.0214,2.9765,3.0068,3.2805,3.2844,3.3132,3.5858,3.581,3.5485,3.584,3.539,3.4815,3.423,3.4677,3.4969,3.4705,3.4474,3.4299,3.4299,3.3796,3.347,3.347,3.3275,3.3124,3.3124,3.3124,3.3124,3.3124,3.3124,3.3124,3.3124,3.3124,3.3124,3.3124,3.3124,3.3124,3.3124,3.3124,3.3124,1.7506,0.0,1.9308,2.1649,2.371,0.0,0.0,0.0,0.0,0.0,0.0,0.0,0.0,0.0,0.0,0.0,0.0,0.0,0.0,0.0,0.0,0.0,0.0,0.0,0.0,0.0,0.0,0.0,0.0,0.0,2.3091,2.3091,2.3091,2.3091,2.3091,2.3091,2.3091,2.3091,2.3276,2.3682,2.375,2.416,2.491,2.5381,2.5615,2.5693,2.5693,2.5693,2.5742,2.5927,2.6014,2.6062,2.6245,2.6332,2.6332,2.6332,2.6197,2.6014,2.6014,2.5868,2.5693,2.5693,2.5742,2.5947,2.6777,2.707,2.7337,2.8374,2.946,3.0369,3.0566,3.148,3.228,3.228,3.0628,2.9608,3.1836,3.2129,3.2783,3.5499,3.6263,3.6405,3.6405,3.6405,3.6207,3.5708,3.5646,3.5516,3.5064,3.4881,3.4818,3.4818,3.4374,3.4035,3.4035,3.3621,3.337,3.337,3.337,3.3319,3.3219,3.3262,3.3169,3.3124,3.3124,3.3124,3.3124,3.3124,3.3124,3.3124,3.3124,3.3124,0.0,0.0,2.2043,0.0,2.5013,0.0,0.0,0.0,0.0,0.0,0.0,0.0,0.0,0.0,0.0,0.0,0.0,0.0,0.0,0.0,0.0,0.0,0.0,0.0,0.0,0.0,0.0,0.0,0.0,0.0,2.3091,2.3091,2.3091,2.3091,2.3091,2.3091,2.3091,2.3091,2.312,2.3188,2.3603,2.3848,2.3984,2.4795,2.5371,2.5693,2.5693,2.5693,2.5781,2.6897,2.7363,2.7447,2.8495,2.8901,2.8901,2.8901,2.8226,2.7363,2.7363,2.662,2.5693,2.5693,2.5996,2.6387,2.6875,2.7275,2.7927,2.9569,3.0162,3.0566,3.1724,3.218,3.228,3.228,3.2028,3.1876,3.223,3.1378,3.1389,3.4117,3.5619,3.6405,3.6405,3.6405,3.638,3.6304,3.6304,3.6267,3.6204,3.573,3.5395,3.5395,3.4893,3.4568,3.4568,3.455,3.45,3.45,3.45,3.4286,3.3809,3.3796,3.3558,3.3124,3.3124,3.3124,3.3124,3.3124,3.3124,3.3124,3.3124,3.3124,1.7896,2.0042,2.1999,0.0,2.5337,0.0,0.0,0.0,0.0,0.0,0.0,0.0,0.0,0.0,0.0,0.0,0.0,0.0,0.0,0.0,0.0,0.0,0.0,0.0,0.0,0.0,0.0,0.0,0.0,2.3091,2.3091,2.3091,2.3091,2.3091,2.3091,2.3091,2.3091,2.3091,2.3091,2.3091,2.3286,2.3555,2.3844,2.4832,2.566,2.6388,2.6642,2.7163,2.7804,2.8355,2.8588,2.868,2.9177,2.9407,2.9407,2.9407,2.9039,2.8588,2.8588,2.7814,2.6754,2.6754,2.6593,2.6465,2.6894,2.7324,2.8058,2.9787,3.0824,3.1735,3.3105,3.4056,3.4593,3.4593,3.4007,3.3464,3.3464,3.2392,3.1988,3.4019,3.4872,3.5523,3.6263,3.6405,3.6405,3.6405,3.6405,3.6405,3.6405,3.6157,3.5994,3.5994,3.5516,3.5144,3.5144,3.4856,3.468,3.468,3.468,3.4568,3.4374,3.406,3.3784,3.3545,3.3232,3.3124,3.3124,3.3124,3.3124,3.3124,3.3124,3.3124,0.0,0.0,2.1241,2.3844,2.5149,0.0,0.0,0.0,0.0,0.0,0.0,0.0,0.0,0.0,0.0,0.0,0.0,0.0,0.0,0.0,0.0,0.0,0.0,0.0,0.0,0.0,0.0,0.0,0.0,2.3091,2.3091,2.3091,2.3091,2.3091,2.3091,2.3091,2.3091,2.3091,2.3091,2.3091,2.3387,2.373,2.4092,2.5274,2.6506,2.7627,2.7793,2.8432,2.9407,2.9727,2.9863,2.9909,3.0226,3.0316,3.0316,3.0316,3.0135,2.9863,2.9863,2.9085,2.8049,2.8049,2.7603,2.7083,2.735,2.7641,2.8196,2.9818,3.103,3.218,3.3932,3.5126,3.5966,3.631,3.5619,3.4727,3.4019,3.3304,3.3155,3.4178,3.4678,3.5223,3.6216,3.6405,3.6405,3.6405,3.6405,3.6405,3.6405,3.6405,3.6405,3.6405,3.5994,3.5708,3.5708,3.5378,3.514,3.514,3.514,3.5077,3.4893,3.4537,3.4186,3.3909,3.3495,3.3262,3.3124,3.3124,3.3124,3.3124,3.3124,3.3124,0.0,1.9018,0.0,2.2636,0.0,0.0,0.0,0.0,0.0,0.0,0.0,0.0,0.0,0.0,0.0,0.0,0.0,0.0,0.0,0.0,0.0,0.0,0.0,0.0,0.0,0.0,0.0,0.0,0.0,2.3091,2.3091,2.3091,2.3091,2.3091,2.3091,2.3091,2.3091,2.3091,2.3091,2.3091,2.4211,2.4713,2.4797,2.6299,2.7991,2.9621,2.8854,2.888,2.9498,3.0631,3.1134,3.1223,3.2426,3.2896,3.2896,3.2896,3.2152,3.1134,3.1134,3.0316,2.9315,2.9315,2.9018,2.8663,2.8684,2.848,2.8572,2.9901,3.0369,3.103,3.3723,3.4434,3.4824,3.6108,3.6358,3.5595,3.2982,3.3415,3.4337,3.4385,3.5427,3.631,3.6405,3.6405,3.6405,3.6405,3.6405,3.6405,3.6405,3.6405,3.6405,3.6405,3.638,3.6367,3.6367,3.6342,3.6317,3.6317,3.6317,3.6044,3.547,3.542,3.4919,3.3922,3.3872,3.3608,3.3124,3.3124,3.3124,3.3124,3.3124,3.3124,0.0,0.0,0.0,2.2311,0.0,0.0,0.0,0.0,0.0,0.0,0.0,0.0,0.0,0.0,0.0,0.0,0.0,0.0,0.0,0.0,0.0,0.0,0.0,0.0,0.0,0.0,0.0,0.0,0.0,0.0,2.3091,2.3091,2.3091,2.3091,2.3091,2.3091,2.3091,2.3091,2.3464,2.4211,2.4585,2.5168,2.5933,2.7177,2.8287,2.9272,3.0062,3.0924,3.1789,3.2239,3.2426,3.2469,3.2927,3.3124,3.3124,3.3124,3.2797,3.2426,3.2426,3.1601,3.0599,3.0982,3.0714,3.0204,3.057,3.0766,3.0968,3.1429,3.1571,3.2039,3.392,3.4385,3.4727,3.6061,3.6405,3.6108,3.515,3.3946,3.3304,3.4227,3.4775,3.5367,3.6263,3.6405,3.6405,3.6405,3.6405,3.6405,3.6405,3.6405,3.6405,3.6405,3.6405,3.6405,3.6405,3.6405,3.6405,3.6405,3.6405,3.6317,3.6081,3.5683,3.5307,3.4919,3.4261,3.3633,3.3124,3.3124,3.3124,3.3124,3.3124,3.3124,1.7854,0.0,0.0,0.0,0.0,0.0,0.0,0.0,0.0,0.0,0.0,0.0,0.0,0.0,0.0,0.0,0.0,0.0,0.0,0.0,0.0,0.0,0.0,0.0,0.0,0.0,0.0,0.0,0.0,0.0,2.3091,2.3091,2.3091,2.3091,2.3091,2.3091,2.3091,2.3464,2.4049,2.483,2.5535,2.6284,2.7087,2.8148,2.8979,2.9553,3.0851,3.1913,3.2805,3.3006,3.3124,3.3124,3.3124,3.3124,3.3124,3.3124,3.3124,3.3124,3.3124,3.2568,3.1906,3.2507,3.2145,3.1599,3.2151,3.2297,3.228,3.228,3.228,3.2632,3.4019,3.4727,3.5319,3.6216,3.6405,3.6405,3.6405,3.4945,3.3946,3.4872,3.5078,3.5367,3.6263,3.6405,3.6405,3.6405,3.6405,3.6405,3.6405,3.6405,3.6405,3.6405,3.6405,3.6405,3.6405,3.6405,3.6405,3.6405,3.6405,3.6405,3.6405,3.6019,3.5683,3.5495,3.4781,3.4085,3.3357,3.3212,3.3124,3.3124,3.3124,3.3124,0.0,0.0,0.0,0.0,0.0,0.0,0.0,0.0,0.0,0.0,0.0,0.0,0.0,0.0,0.0,0.0,0.0,0.0,0.0,0.0,0.0,0.0,0.0,0.0,0.0,0.0,0.0,0.0,0.0,2.3091,2.3135,2.3135,2.3091,2.3091,2.3091,2.3091,2.3091,2.4211,2.483,2.4872,2.7064,2.8136,2.8176,2.9287,3.008,3.062,3.116,3.17,3.2227,3.283,3.3124,3.3124,3.3124,3.3124,3.3124,3.3124,3.3124,3.3124,3.3124,3.3124,3.3194,3.3746,3.3395,3.2864,3.3434,3.3047,3.2431,3.2381,3.2381,3.2694,3.403,3.5367,3.6405,3.6405,3.6405,3.6405,3.6405,3.6405,3.6405,3.6405,3.6405,3.6405,3.6405,3.6405,3.6405,3.6405,3.6405,3.6405,3.6405,3.6405,3.6405,3.6405,3.6405,3.6405,3.6405,3.6405,3.6405,3.6405,3.6405,3.6405,3.6405,3.6405,3.6107,3.5533,3.5508,3.4969,3.3922,3.337,3.3136,3.3124,3.3124,3.3124,1.65,0.0,0.0,0.0,0.0,0.0,0.0,0.0,0.0,0.0,0.0,0.0,0.0,0.0,0.0,0.0,0.0,0.0,0.0,0.0,0.0,0.0,0.0,0.0,0.0,0.0,0.0,0.0,2.3551,2.3474,2.4296,2.3551,2.3091,2.3091,2.3091,2.3091,2.3091,2.4211,2.521,2.6058,2.7441,2.8518,2.9326,2.9663,2.988,3.0068,3.0997,3.1474,3.17,3.2667,3.3124,3.3124,3.3124,3.3124,3.3124,3.3124,3.3124,3.3124,3.3124,3.3332,3.3759,3.4311,3.4578,3.4836,3.5414,3.5436,3.5054,3.4117,3.3822,3.392,3.4288,3.5367,3.6405,3.6405,3.6405,3.6405,3.6405,3.6405,3.6405,3.6405,3.6405,3.6405,3.6405,3.6405,3.6405,3.6405,3.6405,3.6405,3.6405,3.6405,3.6405,3.6405,3.6405,3.6405,3.6405,3.6405,3.6405,3.6405,3.6405,3.6405,3.6405,3.6405,3.6329,3.6132,3.5696,3.5157,3.45,3.3935,3.347,3.3124,3.3124,3.3124,1.6936,0.0,0.0,0.0,0.0,0.0,0.0,0.0,0.0,0.0,0.0,0.0,0.0,0.0,0.0,0.0,0.0,0.0,0.0,0.0,0.0,0.0,0.0,0.0,0.0,0.0,0.0,2.4702,2.3757,2.3594,2.4745,2.3714,2.3299,2.38,2.3343,2.3343,2.38,2.4925,2.6088,2.7168,2.8267,2.9157,2.9792,2.9792,2.9792,2.9854,3.0922,3.1386,3.1474,3.2616,3.3124,3.3124,3.3124,3.3124,3.3124,3.3124,3.3124,3.3124,3.3124,3.3432,3.3985,3.455,3.5044,3.5596,3.6194,3.6405,3.6263,3.5463,3.5223,3.5223,3.5223,3.581,3.6405,3.6405,3.6405,3.6405,3.6405,3.6405,3.6405,3.6405,3.6405,3.6405,3.6405,3.6405,3.6405,3.6405,3.6405,3.6405,3.6405,3.6405,3.6405,3.6405,3.6405,3.6405,3.6405,3.6405,3.6405,3.6405,3.6405,3.6405,3.6405,3.6405,3.6405,3.6405,3.6044,3.5504,3.468,3.4173,3.3621,3.3124,3.3124,3.3124,1.7714,1.7965,0.0,0.0,0.0,0.0,2.1741,2.1455,0.0,0.0,0.0,0.0,0.0,0.0,0.0,0.0,0.0,0.0,0.0,0.0,0.0,0.0,0.0,0.0,0.0,2.3309,2.3757,2.4914,2.4049,2.3844,2.4745,2.3714,2.3637,2.4745,2.3844,2.38,2.4787,2.6047,2.7168,2.8124,2.9275,2.9792,2.9792,2.9792,2.9792,2.9854,3.0922,3.1386,3.1474,3.2616,3.3124,3.3124,3.3124,3.3124,3.3124,3.3124,3.3124,3.3124,3.3124,3.3483,3.4073,3.4517,3.5094,3.5683,3.6267,3.6405,3.6405,3.6405,3.6405,3.6405,3.6405,3.6405,3.6405,3.6405,3.6405,3.6405,3.6405,3.6405,3.6405,3.6405,3.6405,3.6405,3.6405,3.6405,3.6405,3.6405,3.6405,3.6405,3.6405,3.6405,3.6405,3.6405,3.6405,3.6405,3.6405,3.6405,3.6405,3.6405,3.6405,3.6405,3.6405,3.6405,3.6405,3.6405,3.6342,3.5755,3.468,3.4173,3.3621,3.3124,3.3124,3.3124,1.882,1.9095,1.9334,0.0,0.0,0.0,0.0,1.8945,0.0,0.0,0.0,0.0,0.0,0.0,0.0,0.0,0.0,0.0,0.0,0.0,0.0,0.0,0.0,0.0,0.0,2.4457,2.4957,2.6099,2.5975,2.5515,2.483,2.3714,2.3637,2.4745,2.4575,2.4585,2.4787,2.6778,2.7896,2.8124,2.9275,2.9792,2.9792,2.9792,2.9792,2.9854,3.0922,3.1386,3.1474,3.2616,3.3124,3.3124,3.3124,3.3124,3.3124,3.3124,3.3124,3.3124,3.3124,3.3721,3.4575,3.4688,3.5391,3.6267,3.6367,3.6405,3.6405,3.6405,3.6405,3.6405,3.6405,3.6405,3.6405,3.6405,3.6405,3.6405,3.6405,3.6405,3.6405,3.6405,3.6405,3.6405,3.6405,3.6405,3.6405,3.6405,3.6405,3.6405,3.6405,3.6405,3.6405,3.6405,3.6405,3.6405,3.6405,3.6405,3.6405,3.6405,3.6405,3.6405,3.6405,3.6405,3.6405,3.6405,3.5931,3.5332,3.468,3.4173,3.3621,3.3124,3.3124,3.3124,1.9635,1.9811,2.0175,1.9911,0.0,0.0,0.0,0.0,0.0,0.0,0.0,0.0,0.0,0.0,0.0,0.0,0.0,0.0,0.0,0.0,0.0,0.0,0.0,0.0,0.0,2.4945,2.5041,2.5588,2.6182,2.6472,2.6438,2.4339,2.4135,2.6356,2.5368,2.5326,2.6438,2.755,2.8386,2.8937,2.9534,2.9792,2.9792,2.9792,2.9792,2.9854,3.0922,3.1386,3.1474,3.2616,3.3124,3.3124,3.3124,3.3124,3.3124,3.3124,3.3124,3.3162,3.3395,3.4035,3.4718,3.4994,3.5692,3.6405,3.6405,3.6405,3.6405,3.6405,3.6405,3.6405,3.6405,3.6405,3.6405,3.6405,3.6405,3.6405,3.6405,3.6405,3.6405,3.6405,3.6405,3.6405,3.6405,3.6405,3.6405,3.6405,3.6405,3.6405,3.6405,3.6405,3.6405,3.6405,3.6405,3.6405,3.6405,3.6405,3.6405,3.6405,3.6405,3.6405,3.6405,3.6405,3.6405,3.6405,3.6094,3.568,3.5094,3.4575,3.3884,3.3124,3.3124,3.3124,0.0,0.0,0.0,0.0,0.0,2.0639,0.0,0.0,0.0,0.0,0.0,0.0,0.0,0.0,0.0,0.0,0.0,0.0,0.0,0.0,0.0,0.0,0.0,0.0,0.0,2.4984,2.466,2.4808,2.5617,2.6697,2.8032,2.5126,2.4755,2.7683,2.6077,2.5994,2.7763,2.8227,2.8897,2.9792,2.9792,2.9792,2.9792,2.9792,2.9792,2.9854,3.0922,3.1386,3.1474,3.2616,3.3124,3.3124,3.3124,3.3124,3.3124,3.3124,3.3124,3.3156,3.3709,3.4261,3.4768,3.532,3.5918,3.6405,3.6405,3.6405,3.6405,3.6405,3.6405,3.6405,3.6405,3.6405,3.6405,3.6405,3.6405,3.6405,3.6405,3.6405,3.6405,3.6405,3.6405,3.6405,3.6405,3.6405,3.6405,3.6405,3.6405,3.6405,3.6405,3.6405,3.6405,3.6405,3.6405,3.6405,3.6405,3.6405,3.6405,3.6405,3.6405,3.6405,3.6405,3.6405,3.6405,3.6405,3.6405,3.6094,3.5495,3.5056,3.4311,3.3232,3.3174,3.3124,0.0,0.0,0.0,0.0,2.2887,0.0,0.0,0.0,0.0,0.0,0.0,0.0,0.0,0.0,0.0,0.0,0.0,0.0,0.0,0.0,0.0,0.0,0.0,0.0,0.0,0.0,2.4078,2.4746,2.4744,2.572,2.7973,2.5859,2.5252,2.6637,2.6431,2.6431,2.6678,2.8621,2.9663,2.9792,2.9792,2.9792,2.9792,2.9792,2.9792,2.9854,3.0922,3.1386,3.1474,3.2616,3.3124,3.3124,3.3124,3.3124,3.3124,3.3124,3.3124,3.3156,3.3709,3.4261,3.4768,3.532,3.5918,3.6405,3.6405,3.6405,3.6405,3.6405,3.6405,3.6405,3.6405,3.6405,3.6405,3.6405,3.6405,3.6405,3.6405,3.6405,3.6405,3.6405,3.6405,3.6405,3.6405,3.6405,3.6405,3.6405,3.6405,3.6405,3.6405,3.6405,3.6405,3.6405,3.6405,3.6405,3.6405,3.6405,3.6405,3.6405,3.6405,3.6405,3.6405,3.6405,3.6405,3.6405,3.6405,3.6094,3.5495,3.5433,3.4843,3.3796,3.3307,3.3124,0.0,0.0,0.0,0.0,0.0,0.0,0.0,0.0,1.9208,0.0,0.0,0.0,0.0,0.0,0.0,0.0,0.0,0.0,0.0,0.0,0.0,0.0,0.0,0.0,0.0,0.0,0.0,0.0,0.0,2.5794,2.8413,2.5872,2.5607,2.8331,2.718,2.7139,2.8422,2.9339,2.9792,2.9792,2.9792,2.9792,2.9792,2.9792,2.9792,2.9854,3.0922,3.1386,3.1474,3.2616,3.3124,3.3124,3.3124,3.3124,3.3124,3.3124,3.3282,3.3633,3.4186,3.4738,3.5245,3.5843,3.6169,3.6405,3.6405,3.6405,3.6405,3.6405,3.6405,3.6405,3.6405,3.6405,3.6405,3.6405,3.6405,3.6405,3.6405,3.6405,3.6405,3.6405,3.6405,3.6405,3.6405,3.6405,3.6405,3.6405,3.6405,3.6405,3.6405,3.6405,3.6405,3.6405,3.6405,3.6405,3.6405,3.6405,3.6405,3.6405,3.6405,3.6405,3.6405,3.6405,3.6405,3.6405,3.6405,3.6304,3.6019,3.5658,3.5257,3.4826,3.396,3.3382,2.5084,0.0,0.0,0.0,0.0,0.0,0.0,0.0,0.0,0.0,0.0,0.0,0.0,0.0,0.0,0.0,0.0,0.0,0.0,0.0,0.0,0.0,0.0,0.0,0.0,0.0,0.0,0.0,0.0,0.0,2.8737,2.637,2.629,2.9223,2.7787,2.7706,2.9326,2.9624,2.9792,2.9792,2.9792,2.9792,2.9792,2.9792,2.988,3.0068,3.0997,3.1474,3.1687,3.2667,3.3124,3.3124,3.3124,3.3124,3.3124,3.3124,3.342,3.3985,3.4525,3.5132,3.583,3.6279,3.6405,3.6405,3.6405,3.6405,3.6405,3.6405,3.6405,3.6405,3.6405,3.6405,3.6405,3.6405,3.6405,3.6405,3.6405,3.6405,3.6405,3.6405,3.6405,3.6405,3.6405,3.6405,3.6405,3.6405,3.6405,3.6405,3.6405,3.6405,3.6405,3.6405,3.6405,3.6405,3.6405,3.6405,3.6405,3.6405,3.6405,3.6405,3.6405,3.6405,3.6405,3.6405,3.6405,3.6405,3.6405,3.5968,3.5646,3.547,3.4412,3.3684,0.0,0.0,0.0,2.3935,0.0,0.0,0.0,0.0,2.1282,0.0,0.0,0.0,0.0,0.0,0.0,0.0,0.0,0.0,0.0,0.0,0.0,0.0,0.0,0.0,0.0,0.0,0.0,0.0,0.0,0.0,2.8675,2.7799,2.747,2.8112,2.8096,2.8084,2.8136,2.9236,2.9792,2.9792,2.9792,2.9792,2.9792,2.9792,3.008,3.062,3.116,3.1687,3.2227,3.283,3.3124,3.3124,3.3124,3.3124,3.3124,3.3124,3.342,3.3985,3.4525,3.5429,3.638,3.6405,3.6405,3.6405,3.6405,3.6405,3.6405,3.6405,3.6405,3.6405,3.6405,3.6405,3.6405,3.6405,3.6405,3.6405,3.6405,3.6405,3.6405,3.6405,3.6405,3.6405,3.6405,3.6405,3.6405,3.6405,3.6405,3.6405,3.6405,3.6405,3.6405,3.6405,3.6405,3.6405,3.6405,3.6405,3.6405,3.6405,3.6405,3.6405,3.6405,3.6405,3.6405,3.6405,3.6405,3.6405,3.6405,3.6392,3.6056,3.547,3.4412,3.3884,0.0,0.0,2.8021,2.541,0.0,0.0,0.0,0.0,0.0,0.0,0.0,0.0,0.0,0.0,0.0,0.0,0.0,0.0,0.0,0.0,0.0,0.0,0.0,0.0,0.0,0.0,0.0,0.0,2.3867,0.0,0.0,2.7147,2.7342,2.8579,2.8285,2.8478,2.9236,2.9624,2.9792,2.9792,2.9792,2.9792,2.9804,3.0168,3.0444,3.067,3.1549,3.2039,3.2252,3.283,3.3124,3.3124,3.3124,3.3124,3.3124,3.3124,3.3658,3.4575,3.5491,3.6103,3.6405,3.6405,3.6405,3.6405,3.6405,3.6405,3.6405,3.6405,3.6405,3.6405,3.6405,3.6405,3.6405,3.6405,3.6405,3.6405,3.6405,3.6405,3.6518,3.6835,3.6958,3.6958,3.6958,3.6958,3.6832,3.6468,3.6405,3.6405,3.6405,3.6405,3.6405,3.6405,3.6405,3.6405,3.6405,3.6405,3.6405,3.6405,3.6405,3.6405,3.6405,3.6405,3.6405,3.6405,3.6405,3.6405,3.6405,3.6405,3.6317,3.6069,3.5328,3.46,2.8448,2.8624,0.0,2.6414,2.5649,0.0,2.2426,0.0,0.0,0.0,0.0,0.0,0.0,0.0,0.0,0.0,0.0,0.0,0.0,0.0,0.0,0.0,0.0,0.0,0.0,0.0,2.1829,2.3565,2.3326,0.0,0.0,0.0,2.7434,2.8875,2.8772,2.9067,2.9792,2.9792,2.9792,2.9792,2.9792,2.9792,2.9817,3.0369,3.0721,3.0934,3.1825,3.2328,3.2554,3.2918,3.3124,3.3124,3.3124,3.3124,3.3106,3.3294,3.406,3.514,3.6044,3.6405,3.6405,3.6405,3.6405,3.6405,3.6405,3.6405,3.6405,3.6405,3.6405,3.6405,3.6405,3.6405,3.6405,3.6405,3.6405,3.6468,3.6656,3.6707,3.6857,3.7374,3.7475,3.7475,3.7475,3.7475,3.7224,3.6518,3.6405,3.6405,3.6405,3.6405,3.6405,3.6405,3.6405,3.6405,3.6405,3.6405,3.6405,3.6405,3.6405,3.6405,3.6405,3.6405,3.6405,3.6405,3.6405,3.6405,3.6405,3.6405,3.6405,3.6405,3.5994,3.524]}]]